[[{"header":{"parameterUnit":"m.s-1","parameterCategory":1,"la1":31.0,"la2":29.5877,"lo1":-88.7671,"lo2":-86.6584,"dy":0.0162,"dx":0.0185,"nx":115,"ny":88,"refTime":"2023-09-24T00:00:00:Z","depth":0,"parameterNumber":2,"parameterNumberName":"U-component_of_WINDS"},"data":[0.0,0.0,0.0,0.0,0.0,0.0,0.0,0.0,0.0,0.0,0.0,0.0,0.0,0.0,0.0,0.0,0.0,0.0,0.0,0.0,0.0,0.0,0.0,0.0,0.0,0.0,0.0,0.0,0.0,0.0,0.0,0.0,0.0,0.0,0.0,0.0,0.0,0.0,0.0,0.0,0.0,0.0,0.0,0.0,0.0,0.0,0.0,0.0,0.0,0.0,0.0,0.0,0.0,0.0,0.0,0.0,0.0,0.0,0.0,0.0,0.0,0.0,0.0,0.0,0.0,0.0,0.0,0.0,0.0,0.0,0.0,0.0,0.0,0.0,0.0,0.0,0.0,0.0,0.0,0.0,0.0,0.0,0.0,0.0,0.0,0.0,0.0,0.0,0.0,0.0,0.0,0.0,0.0,0.0,0.0,0.0,0.0,0.0,0.0,0.0,0.0,0.0,0.0,0.0,0.0,0.0,0.0,0.0,0.0,0.0,0.0,0.0,0.0,0.0,0.0,0.0,0.0,0.0,0.0,0.0,0.0,0.0,0.0,0.0,0.0,0.0,0.0,0.0,0.0,0.0,0.0,0.0,0.0,0.0,0.0,0.0,0.0,0.0,0.0,0.0,0.0,0.0,0.0,0.0,0.0,0.0,0.0,0.0,0.0,0.0,0.0,0.0,0.0,0.0,0.0,0.0,0.0,0.0,0.0,0.0,0.0,0.0,0.0,0.0,0.0,0.0,0.0,0.0,0.0,0.0,0.0,0.0,0.0,0.0,0.0,0.0,0.0,0.0,0.0,0.0,0.0,0.0,0.0,0.0,0.0,0.0,0.0,0.0,0.0,0.0,0.0,0.0,0.0,0.0,0.0,0.0,0.0,0.0,0.0,0.0,0.0,0.0,0.0,0.0,0.0,0.0,0.0,0.0,0.0,0.0,0.0,0.0,0.0,0.0,0.0,0.0,0.0,0.0,0.0,0.0,0.0,0.0,0.0,0.0,0.0,0.0,0.0,0.0,0.0,0.0,0.0,0.0,0.0,0.0,0.0,0.0,0.0,0.0,0.0,0.0,0.0,0.0,0.0,0.0,0.0,0.0,0.0,0.0,0.0,0.0,0.0,0.0,0.0,0.0,0.0,0.0,0.0,0.0,0.0,0.0,0.0,0.0,0.0,0.0,0.0,0.0,0.0,0.0,0.0,0.0,0.0,0.0,0.0,0.0,0.0,0.0,0.0,0.0,0.0,0.0,0.0,0.0,0.0,0.0,0.0,0.0,0.0,0.0,0.0,0.0,0.0,0.0,0.0,0.0,0.0,0.0,0.0,0.0,0.0,0.0,0.0,0.0,0.0,0.0,0.0,0.0,0.0,0.0,0.0,0.0,0.0,0.0,0.0,0.0,0.0,0.0,0.0,0.0,0.0,0.0,0.0,0.0,0.0,0.0,0.0,0.0,0.0,0.0,0.0,0.0,0.0,0.0,0.0,0.0,0.0,0.0,0.0,0.0,0.0,0.0,0.0,0.0,0.0,0.0,0.0,0.0,0.0,0.0,0.0,0.0,0.0,0.0,0.0,0.0,0.0,0.0,0.0,0.0,0.0,0.0,0.0,0.0,0.0,0.0,0.0,0.0,0.0,0.0,0.0,0.0,0.0,0.0,0.0,0.0,0.0,0.0,0.0,0.0,0.0,0.0,0.0,0.0,0.0,0.0,0.0,0.0,0.0,0.0,0.0,0.0,0.0,0.0,0.0,0.0,0.0,0.0,0.0,0.0,0.0,0.0,0.0,0.0,0.0,0.0,0.0,0.0,0.0,0.0,0.0,0.0,0.0,0.0,0.0,0.0,0.0,0.0,0.0,0.0,0.0,0.0,0.0,0.0,0.0,0.0,0.0,0.0,0.0,0.0,0.0,0.0,0.0,0.0,0.0,0.0,0.0,0.0,0.0,0.0,0.0,0.0,0.0,0.0,0.0,0.0,0.0,0.0,0.0,0.0,0.0,0.0,0.0,0.0,0.0,0.0,0.0,0.0,0.0,0.0,0.0,0.0,0.0,0.0,0.0,0.0,0.0,0.0,0.0,0.0,0.0,0.0,0.0,0.0,0.0,0.0,0.0,0.0,0.0,0.0,0.0,0.0,0.0,0.0,0.0,0.0,0.0,0.0,0.0,0.0,0.0,0.0,0.0,0.0,0.0,0.0,0.0,0.0,0.0,0.0,0.0,0.0,0.0,0.0,0.0,0.0,0.0,0.0,0.0,0.0,0.0,0.0,0.0,0.0,0.0,0.0,0.0,0.0,0.0,0.0,0.0,0.0,0.0,0.0,0.0,0.0,0.0,0.0,0.0,0.0,0.0,0.0,0.0,0.0,0.0,0.0,0.0,0.0,0.0,0.0,0.0,0.0,0.0,0.0,0.0,0.0,0.0,0.0,0.0,0.0,0.0,0.0,0.0,0.0,0.0,0.0,0.0,0.0,0.0,0.0,0.0,0.0,0.0,0.0,0.0,0.0,0.0,0.0,0.0,0.0,0.0,0.0,0.0,0.0,0.0,0.0,0.0,0.0,0.0,0.0,0.0,0.0,0.0,0.0,0.0,0.0,0.0,0.0,0.0,0.0,0.0,0.0,0.0,0.0,0.0,0.0,0.0,0.0,0.0,0.0,0.0,0.0,0.0,0.0,0.0,0.0,0.0,0.0,0.0,0.0,0.0,0.0,0.0,0.0,0.0,0.0,0.0,0.0,0.0,0.0,0.0,0.0,0.0,0.0,0.0,0.0,0.0,0.0,0.0,0.0,0.0,0.0,0.0,0.0,0.0,0.0,0.0,0.0,0.0,0.0,0.0,0.0,0.0,0.0,0.0,0.0,0.0,0.0,0.0,0.0,0.0,0.0,0.0,0.0,0.0,0.0,0.0,0.0,0.0,0.0,0.0,0.0,0.0,0.0,0.0,0.0,0.0,0.0,0.0,0.0,0.0,0.0,0.0,0.0,0.0,0.0,0.0,0.0,0.0,0.0,0.0,0.0,0.0,0.0,0.0,0.0,0.0,0.0,0.0,0.0,0.0,0.0,0.0,0.0,0.0,0.0,0.0,0.0,0.0,0.0,0.0,0.0,0.0,0.0,0.0,0.0,0.0,0.0,0.0,0.0,0.0,0.0,0.0,0.0,0.0,0.0,0.0,0.0,0.0,0.0,0.0,0.0,0.0,0.0,0.0,0.0,0.0,0.0,0.0,0.0,0.0,0.0,0.0,0.0,0.0,0.0,0.0,0.0,0.0,0.0,0.0,0.0,0.0,0.0,0.0,0.0,0.0,0.0,0.0,0.0,0.0,0.0,0.0,0.0,0.0,0.0,0.0,0.0,0.0,0.0,0.0,0.0,0.0,0.0,0.0,0.0,0.0,0.0,0.0,0.0,0.0,0.0,0.0,0.0,0.0,0.0,0.0,0.0,0.0,0.0,0.0,0.0,0.0,0.0,0.0,0.0,0.0,0.0,0.0,0.0,0.0,0.0,0.0,0.0,0.0,0.0,0.0,0.0,0.0,0.0,0.0,0.0,0.0,0.0,0.0,0.0,0.0,0.0,0.0,0.0,0.0,0.0,0.0,0.0,0.0,0.0,0.0,0.0,0.0,0.0,0.0,0.0,0.0,0.0,0.0,0.0,0.0,0.0,0.0,0.0,0.0,0.0,0.0,0.0,0.0,0.0,0.0,0.0,0.0,0.0,0.0,0.0,0.0,0.0,0.0,0.0,0.0,0.0,0.0,0.0,0.0,0.0,0.0,0.0,0.0,0.0,0.0,0.0,0.0,0.0,0.0,0.0,0.0,0.0,0.0,0.0,0.0,0.0,0.0,0.0,0.0,0.0,0.0,0.0,0.0,0.0,0.0,0.0,0.0,0.0,0.0,0.0,0.0,0.0,0.0,0.0,0.0,0.0,0.0,0.0,0.0,0.0,0.0,0.0,0.0,0.0,0.0,0.0,0.0,0.0,0.0,0.0,0.0,0.0,0.0,0.0,0.0,0.0,0.0,0.0,0.0,0.0,0.0,0.0,0.0,0.0,0.0,0.0,0.0,0.0,0.0,0.0,0.0,0.0,0.0,0.0,0.0,0.0,0.0,0.0,0.0,0.0,0.0,0.0,0.0,0.0,0.0,0.0,0.0,0.0,0.0,0.0,0.0,0.0,0.0,0.0,0.0,0.0,0.0,0.0,0.0,0.0,0.0,0.0,0.0,0.0,0.0,0.0,0.0,0.0,0.0,0.0,0.0,0.0,0.0,0.0,0.0,0.0,-0.7563,0.0,0.0,0.0,0.0,0.0,0.0,0.0,0.0,0.0,0.0,0.0,0.0,0.0,0.0,0.0,0.0,0.0,0.0,0.0,0.0,0.0,0.0,0.0,0.0,0.0,0.0,0.0,0.0,0.0,0.0,0.0,0.0,0.0,0.0,0.0,0.0,0.0,0.0,0.0,0.0,0.0,0.0,0.0,0.0,0.0,0.0,0.0,0.0,0.0,0.0,0.0,0.0,0.0,0.0,0.0,0.0,0.0,0.0,0.0,0.0,0.0,0.0,0.0,0.0,0.0,0.0,0.0,0.0,0.0,0.0,0.0,0.0,0.0,0.0,0.0,0.0,0.0,0.0,0.0,0.0,0.0,0.0,0.0,0.0,0.0,0.0,0.0,0.0,0.0,0.0,0.0,0.0,0.0,0.0,0.0,0.0,0.0,0.0,0.0,0.0,0.0,0.0,0.0,0.0,0.0,0.0,0.0,0.0,0.0,0.0,-0.9406,-0.8798,-0.8804,-0.8421,-0.7723,0.0,0.0,0.0,0.0,0.0,0.0,0.0,0.0,0.0,0.0,0.0,0.0,0.0,0.0,0.0,0.0,0.0,0.0,0.0,0.0,0.0,0.0,0.0,0.0,0.0,0.0,0.0,0.0,0.0,0.0,0.0,0.0,0.0,0.0,0.0,0.0,0.0,0.0,0.0,0.0,0.0,0.0,0.0,0.0,0.0,0.0,0.0,0.0,0.0,0.0,0.0,0.0,0.0,0.0,0.0,0.0,0.0,0.0,0.0,0.0,0.0,0.0,0.0,0.0,0.0,0.0,0.0,0.0,0.0,0.0,0.0,0.0,0.0,0.0,0.0,0.0,0.0,0.0,0.0,0.0,0.0,0.0,0.0,0.0,0.0,0.0,0.0,0.0,0.0,0.0,0.0,0.0,0.0,0.0,0.0,0.0,0.0,0.0,0.0,0.0,0.0,0.0,0.0,0.0,0.0,0.0,0.0,0.0,0.0,0.0,0.0,0.0,-0.8838,-0.8374,-0.7456,0.0,0.0,0.0,0.0,0.0,0.0,0.0,0.0,0.0,0.0,0.0,0.0,0.0,0.0,0.0,0.0,0.0,0.0,0.0,0.0,0.0,0.0,0.0,0.0,0.0,0.0,0.0,0.0,0.0,0.0,0.0,0.0,0.0,0.0,0.0,0.0,0.0,0.0,0.0,0.0,0.0,0.0,0.0,0.0,0.0,0.0,0.0,0.0,0.0,0.0,0.0,0.0,0.0,0.0,0.0,0.0,0.0,0.0,0.0,0.0,0.0,0.0,0.0,0.0,0.0,0.0,0.0,0.0,0.0,0.0,0.0,0.0,0.0,0.0,0.0,0.0,0.0,0.0,0.0,0.0,0.0,0.0,0.0,0.0,0.0,0.0,0.0,0.0,0.0,0.0,0.0,0.0,0.0,0.0,0.0,0.0,0.0,0.0,0.0,0.0,0.0,0.0,0.0,0.0,0.0,0.0,0.0,0.0,0.0,0.0,-0.893,-0.9185,-0.8945,0.0,-0.6799,0.0,0.0,0.0,0.0,0.0,0.0,0.0,0.0,0.0,0.0,0.0,0.0,0.0,0.0,0.0,0.0,0.0,0.0,0.0,0.0,0.0,0.0,0.0,0.0,0.0,0.0,0.0,0.0,0.0,0.0,0.0,0.0,0.0,0.0,0.0,0.0,0.0,0.0,0.0,0.0,0.0,0.0,0.0,0.0,0.0,0.0,0.0,0.0,0.0,0.0,0.0,0.0,0.0,0.0,0.0,0.0,0.0,0.0,0.0,0.0,0.0,0.0,0.0,0.0,0.0,0.0,0.0,0.0,0.0,0.0,0.0,0.0,0.0,0.0,0.0,0.0,0.0,0.0,0.0,0.0,0.0,0.0,0.0,0.0,0.0,0.0,0.0,0.0,0.0,0.0,0.0,0.0,0.0,0.0,0.0,0.0,0.0,0.0,0.0,0.0,0.0,0.0,0.0,0.0,0.0,0.0,0.0,0.0,0.0,0.0,-0.9792,-0.9546,-0.907,-0.8075,0.0,0.0,0.0,0.0,0.0,0.0,0.0,0.0,0.0,0.0,0.0,0.0,0.0,0.0,0.0,0.0,0.0,0.0,0.0,0.0,0.0,0.0,0.0,0.0,0.0,0.0,0.0,0.0,0.0,0.0,0.0,0.0,0.0,0.0,0.0,0.0,0.0,0.0,0.0,0.0,0.0,0.0,0.0,0.0,0.0,0.0,0.0,0.0,0.0,0.0,0.0,0.0,0.0,0.0,0.0,0.0,0.0,0.0,0.0,0.0,0.0,0.0,0.0,0.0,0.0,0.0,0.0,0.0,0.0,0.0,0.0,0.0,0.0,0.0,0.0,0.0,0.0,0.0,0.0,0.0,0.0,0.0,0.0,0.0,0.0,0.0,0.0,0.0,0.0,0.0,0.0,0.0,0.0,0.0,0.0,0.0,0.0,0.0,0.0,0.0,0.0,0.0,0.0,0.0,0.0,0.0,0.0,0.0,0.0,0.0,-1.037,-1.0061,-0.9438,-0.8854,-0.7902,-0.6499,0.0,0.0,0.0,0.0,0.0,0.0,0.0,0.0,0.0,0.0,0.0,0.0,0.0,0.0,0.0,0.0,0.0,0.0,0.0,0.0,0.0,0.0,0.0,0.0,0.0,0.0,0.0,0.0,0.0,0.0,0.0,0.0,0.0,0.0,0.0,0.0,0.0,0.0,0.0,0.0,0.0,0.0,0.0,0.0,0.0,0.0,0.0,0.0,0.0,0.0,0.0,0.0,0.0,0.0,0.0,0.0,0.0,0.0,0.0,0.0,0.0,0.0,0.0,0.0,0.0,0.0,0.0,0.0,0.0,0.0,0.0,0.0,0.0,0.0,0.0,0.0,0.0,0.0,0.0,0.0,0.0,0.0,0.0,0.0,0.0,0.0,0.0,0.0,0.0,0.0,0.0,0.0,0.0,0.0,0.0,0.0,0.0,0.0,0.0,0.0,0.0,0.0,0.0,0.0,0.0,0.0,0.0,0.0,-0.9695,-0.955,-0.9168,-0.8534,-0.8123,-0.7517,0.0,0.0,0.0,0.0,0.0,0.0,0.0,0.0,0.0,0.0,0.0,0.0,0.0,0.0,0.0,0.0,0.0,0.0,0.0,0.0,0.0,0.0,0.0,0.0,0.0,0.0,0.0,0.0,0.0,0.0,0.0,0.0,0.0,0.0,0.0,0.0,0.0,0.0,0.0,0.0,0.0,0.0,0.0,0.0,0.0,0.0,0.0,0.0,0.0,0.0,0.0,0.0,0.0,0.0,0.0,0.0,0.0,0.0,0.0,0.0,0.0,0.0,0.0,0.0,0.0,0.0,0.0,0.0,0.0,0.0,0.0,0.0,0.0,0.0,0.0,0.0,0.0,0.0,0.0,0.0,0.0,0.0,0.0,0.0,0.0,0.0,0.0,0.0,0.0,0.0,0.0,0.0,0.0,0.0,0.0,0.0,0.0,0.0,0.0,0.0,0.0,0.0,0.0,0.0,0.0,0.0,0.0,0.0,0.0,-1.0418,-1.0806,-1.0239,-0.8709,-0.8919,-0.8226,0.0,0.0,0.0,0.0,0.0,0.0,0.0,0.0,0.0,0.0,0.0,0.0,0.0,0.0,0.0,0.0,0.0,0.0,0.0,0.0,0.0,0.0,0.0,0.0,0.0,0.0,0.0,0.0,0.0,0.0,0.0,0.0,0.0,0.0,0.0,0.0,0.0,0.0,0.0,0.0,0.0,0.0,0.0,0.0,0.0,0.0,0.0,0.0,0.0,0.0,0.0,0.0,0.0,0.0,0.0,0.0,0.0,0.0,0.0,0.0,0.0,0.0,0.0,0.0,0.0,0.0,0.0,0.0,0.0,0.0,0.0,0.0,0.0,0.0,0.0,0.0,0.0,0.0,0.0,0.0,0.0,0.0,0.0,0.0,0.0,0.0,0.0,0.0,0.0,0.0,0.0,0.0,0.0,0.0,0.0,0.0,0.0,0.0,0.0,0.0,0.0,0.0,0.0,0.0,0.0,0.0,0.0,0.0,0.0,-1.0781,0.0,-1.0857,-0.8898,-0.928,-0.8413,0.0,0.0,0.0,0.0,0.0,0.0,0.0,0.0,0.0,0.0,0.0,0.0,0.0,0.0,0.0,0.0,0.0,0.0,0.0,0.0,0.0,0.0,0.0,0.0,0.0,0.0,0.0,0.0,0.0,0.0,0.0,0.0,0.0,0.0,0.0,0.0,0.0,0.0,0.0,0.0,0.0,0.0,0.0,0.0,0.0,0.0,0.0,0.0,0.0,0.0,0.0,0.0,0.0,0.0,0.0,0.0,0.0,0.0,0.0,0.0,0.0,0.0,0.0,0.0,0.0,0.0,0.0,0.0,0.0,0.0,0.0,0.0,0.0,0.0,0.0,0.0,0.0,0.0,0.0,0.0,0.0,0.0,0.0,0.0,0.0,0.0,0.0,0.0,0.0,0.0,0.0,0.0,0.0,0.0,0.0,0.0,0.0,0.0,0.0,0.0,0.0,0.0,0.0,0.0,0.0,0.0,0.0,0.0,-1.0186,-1.0685,-1.1276,-1.0758,-0.9086,-0.9023,-0.8141,0.0,0.0,0.0,0.0,0.0,0.0,0.0,0.0,0.0,0.0,0.0,0.0,0.0,0.0,0.0,0.0,0.0,0.0,0.0,0.0,0.0,0.0,0.0,0.0,0.0,0.0,0.0,0.0,0.0,0.0,0.0,0.0,0.0,0.0,0.0,0.0,0.0,0.0,0.0,0.0,0.0,0.0,0.0,0.0,0.0,0.0,0.0,0.0,0.0,0.0,0.0,0.0,0.0,0.0,0.0,0.0,0.0,0.0,0.0,0.0,0.0,0.0,0.0,0.0,0.0,0.0,0.0,0.0,0.0,0.0,0.0,0.0,0.0,0.0,0.0,0.0,0.0,0.0,0.0,0.0,0.0,0.0,0.0,0.0,0.0,0.0,0.0,0.0,0.0,0.0,0.0,0.0,0.0,0.0,0.0,0.0,0.0,0.0,0.0,0.0,0.0,0.0,0.0,0.0,0.0,0.0,0.0,0.0,0.0,-1.2968,-1.1788,-1.0698,-0.9846,-0.9342,-0.8094,0.0,0.0,0.0,0.0,0.0,0.0,0.0,0.0,0.0,0.0,0.0,0.0,0.0,0.0,0.0,0.0,0.0,0.0,0.0,0.0,0.0,0.0,0.0,0.0,0.0,0.0,0.0,0.0,0.0,0.0,0.0,0.0,0.0,0.0,0.0,0.0,0.0,0.0,0.0,0.0,0.0,0.0,0.0,0.0,0.0,0.0,0.0,0.0,0.0,0.0,0.0,0.0,0.0,0.0,0.0,0.0,0.0,0.0,0.0,0.0,0.0,0.0,0.0,0.0,0.0,0.0,0.0,0.0,0.0,0.0,0.0,0.0,0.0,0.0,0.0,0.0,0.0,0.0,0.0,0.0,0.0,0.0,0.0,0.0,0.0,0.0,0.0,0.0,0.0,0.0,0.0,0.0,0.0,0.0,0.0,0.0,0.0,0.0,0.0,0.0,0.0,0.0,0.0,0.0,0.0,0.0,0.0,0.0,0.0,-1.3328,-1.1802,-1.0487,-0.9522,-0.8881,-0.7628,-0.5671,0.0,0.0,0.0,0.0,0.0,0.0,0.0,0.0,0.0,0.0,0.0,0.0,0.0,0.0,0.0,0.0,0.0,0.0,0.0,0.0,0.0,0.0,0.0,0.0,0.0,0.0,0.0,0.0,0.0,0.0,0.0,0.0,0.0,0.0,0.0,0.0,0.0,0.0,0.0,0.0,0.0,0.0,0.0,0.0,0.0,0.0,0.0,0.0,0.0,0.0,0.0,0.0,0.0,0.0,0.0,0.0,0.0,0.0,0.0,0.0,0.0,0.0,0.0,0.0,0.0,0.0,0.0,0.0,0.0,0.0,0.0,0.0,0.0,0.0,0.0,0.0,0.0,0.0,0.0,0.0,0.0,0.0,0.0,0.0,0.0,0.0,0.0,0.0,0.0,0.0,0.0,0.0,0.0,0.0,0.0,0.0,0.0,0.0,0.0,0.0,0.0,0.0,0.0,0.0,0.0,0.0,0.0,0.0,-1.2393,-1.1361,-0.9988,-0.8286,-0.781,-0.6776,0.0,0.0,0.0,0.0,0.0,0.0,0.0,0.0,0.0,0.0,0.0,0.0,0.0,0.0,0.0,0.0,0.0,0.0,0.0,0.0,0.0,0.0,0.0,0.0,0.0,0.0,0.0,0.0,0.0,0.0,0.0,0.0,0.0,0.0,0.0,0.0,0.0,0.0,0.0,0.0,0.0,0.0,0.0,0.0,0.0,0.0,0.0,0.0,0.0,0.0,0.0,0.0,0.0,0.0,0.0,0.0,0.0,0.0,0.0,0.0,0.0,0.0,0.0,0.0,0.0,0.0,0.0,0.0,0.0,0.0,0.0,0.0,0.0,0.0,0.0,0.0,0.0,0.0,0.0,0.0,0.0,0.0,0.0,0.0,0.0,0.0,0.0,0.0,0.0,0.0,0.0,0.0,0.0,0.0,0.0,0.0,0.0,0.0,0.0,0.0,0.0,0.0,0.0,0.0,0.0,0.0,0.0,0.0,0.0,-1.3611,-1.0319,-0.8168,-0.747,-0.6464,-0.5494,0.0,0.0,0.0,0.0,0.0,0.0,0.0,0.0,0.0,0.0,0.0,0.0,0.0,0.0,0.0,0.0,0.0,0.0,0.0,0.0,0.0,0.0,0.0,0.0,0.0,0.0,0.0,0.0,0.0,0.0,0.0,0.0,0.0,0.0,0.0,0.0,0.0,0.0,0.0,0.0,0.0,0.0,0.0,0.0,0.0,0.0,0.0,0.0,0.0,0.0,0.0,0.0,0.0,0.0,0.0,0.0,0.0,0.0,0.0,0.0,0.0,0.0,0.0,0.0,0.0,0.0,0.0,0.0,0.0,0.0,0.0,0.0,0.0,0.0,0.0,0.0,0.0,0.0,0.0,0.0,0.0,0.0,0.0,0.0,0.0,0.0,0.0,0.0,0.0,0.0,0.0,0.0,0.0,0.0,0.0,0.0,0.0,0.0,0.0,0.0,0.0,0.0,0.0,0.0,0.0,0.0,0.0,0.0,-1.2435,-1.0521,-0.6998,-0.482,-0.4178,-0.4547,-0.4638,0.0,0.0,0.0,0.0,0.0,0.0,0.0,0.0,0.0,0.0,0.0,0.0,0.0,0.0,0.0,0.0,0.0,0.0,0.0,0.0,0.0,0.0,0.0,0.0,0.0,0.0,0.0,0.0,0.0,0.0,0.0,0.0,0.0,0.0,0.0,0.0,0.0,0.0,0.0,0.0,0.0,0.0,0.0,0.0,0.0,0.0,0.0,0.0,0.0,0.0,0.0,0.0,0.0,0.0,0.0,0.0,0.0,0.0,0.0,0.0,0.0,0.0,0.0,0.0,0.0,0.0,0.0,0.0,0.0,0.0,0.0,0.0,0.0,0.0,0.0,0.0,0.0,0.0,0.0,0.0,0.0,0.0,0.0,0.0,0.0,0.0,0.0,0.0,0.0,0.0,0.0,0.0,0.0,0.0,0.0,0.0,0.0,0.0,0.0,0.0,0.0,0.0,0.0,0.0,0.0,0.0,0.0,0.0,-1.1057,-0.5305,-0.2958,-0.1109,0.0265,-0.228,-0.3843,0.0,0.0,0.0,0.0,0.0,0.0,0.0,0.0,0.0,0.0,0.0,0.0,0.0,0.0,0.0,0.0,0.0,0.0,0.0,0.0,0.0,0.0,0.0,0.0,0.0,0.0,0.0,0.0,0.0,0.0,0.0,0.0,0.0,0.0,0.0,0.0,0.0,0.0,0.0,0.0,0.0,0.0,0.0,0.0,0.0,0.0,0.0,0.0,0.0,0.0,0.0,0.0,0.0,0.0,0.0,0.0,0.0,0.0,0.0,0.0,0.0,0.0,0.0,0.0,0.0,0.0,0.0,0.0,0.0,0.0,0.0,0.0,0.0,0.0,0.0,0.0,0.0,0.0,0.0,0.0,0.0,0.0,0.0,0.0,0.0,0.0,0.0,0.0,0.0,0.0,0.0,0.0,0.0,0.0,0.0,0.0,0.0,0.0,0.0,0.0,0.0,0.0,0.0,0.0,0.0,0.0,0.0,0.0,-0.842,-0.4631,-0.3081,-0.0579,0.3043,-0.007,-0.1813,0.0,0.0,0.0,0.0,0.0,0.0,0.0,0.0,0.0,0.0,0.0,0.0,0.0,0.0,0.0,0.0,0.0,0.0,0.0,0.0,0.0,0.0,0.0,0.0,0.0,0.0,0.0,0.0,0.0,0.0,0.0,0.0,0.0,0.0,0.0,0.0,0.0,0.0,0.0,0.0,0.0,0.0,0.0,0.0,0.0,0.0,0.0,0.0,1.7312,0.0,0.0,0.0,0.0,0.0,0.0,0.0,0.0,0.0,0.0,0.0,0.0,0.0,0.0,0.0,0.0,0.0,0.0,0.0,0.0,0.0,0.0,0.0,0.0,0.0,0.0,0.0,0.0,0.0,0.0,0.0,0.0,0.0,0.0,0.0,0.0,0.0,0.0,0.0,0.0,0.0,0.0,0.0,0.0,0.0,0.0,0.0,0.0,0.0,0.0,0.0,0.0,0.0,0.0,0.0,0.0,0.0,0.0,0.0,-0.5984,-0.1218,0.0358,0.2142,0.4091,0.1926,0.0217,0.0,0.0,0.0,0.0,0.0,0.0,0.0,0.0,0.0,0.0,0.0,0.0,0.0,0.0,0.0,0.0,0.0,0.0,0.0,0.0,0.0,0.0,0.0,0.0,0.0,0.0,0.0,0.0,0.0,0.0,0.0,0.0,0.0,0.0,0.0,0.0,0.0,0.0,0.0,0.0,0.0,0.0,0.0,0.0,0.0,0.0,0.0,0.0,0.0,0.0,0.0,0.0,0.0,0.0,0.0,0.0,0.0,0.0,0.0,0.0,0.0,0.0,0.0,0.0,0.0,0.0,0.0,0.0,0.0,0.0,0.0,0.0,0.0,0.0,0.0,0.0,0.0,0.0,0.0,0.0,0.0,0.0,0.0,0.0,0.0,0.0,0.0,0.0,0.0,0.0,0.0,0.0,0.0,0.0,0.0,0.0,0.0,0.0,0.0,0.0,0.0,0.0,0.0,0.0,0.0,0.0,0.0,-0.6423,-0.3232,0.2579,0.452,0.5248,0.4872,0.3721,0.2297,0.0658,0.0,0.0,0.0,0.0,0.0,0.0,0.0,0.0,0.0,0.0,0.0,0.0,0.0,0.0,0.0,0.0,0.0,0.0,0.0,0.0,0.0,0.0,0.0,0.0,0.0,0.0,0.0,0.0,0.0,0.0,0.0,0.0,0.0,0.0,0.0,0.0,0.0,0.0,1.4684,1.543,0.0,0.0,0.0,0.0,0.0,0.0,0.0,0.0,1.8319,0.0,0.0,0.0,0.0,0.0,0.0,0.0,0.0,0.0,0.0,0.0,0.0,0.0,0.0,0.0,0.0,0.0,0.0,0.0,0.0,0.0,0.0,0.0,0.0,0.0,0.0,0.0,0.0,0.0,0.0,0.0,0.0,0.0,0.0,0.0,0.0,0.0,0.0,0.0,0.0,0.0,0.0,0.0,0.0,0.0,0.0,0.0,0.0,0.0,0.0,0.0,0.0,0.0,0.0,0.0,0.0,-0.5127,-0.216,0.0872,0.3867,0.548,0.6235,0.6096,0.529,0.4334,0.3159,0.0,0.0,0.0,0.0,0.0,0.0,0.0,0.0,0.0,0.0,0.0,0.0,0.0,0.0,0.0,0.0,0.0,0.0,0.0,0.0,0.0,0.0,0.0,0.0,0.0,0.0,0.0,0.0,0.0,0.0,0.0,0.0,0.0,0.0,0.0,0.0,0.0,0.0,0.0,1.59,1.6669,0.0,0.0,0.0,0.0,0.0,0.0,0.0,0.0,1.9099,0.0,0.0,0.0,0.0,0.0,0.0,0.0,0.0,0.0,0.0,0.0,0.0,0.0,0.0,0.0,0.0,0.0,0.0,0.0,0.0,0.0,0.0,0.0,0.0,0.0,0.0,0.0,0.0,0.0,0.0,0.0,0.0,0.0,0.0,0.0,0.0,0.0,0.0,0.0,0.0,0.0,0.0,0.0,0.0,0.0,0.0,0.0,0.0,0.0,0.0,0.0,0.0,0.0,0.0,0.0,-0.2781,0.0819,0.4096,0.692,0.7468,0.7511,0.7064,0.6336,0.5444,0.0,0.0,0.0,0.0,0.0,0.0,0.0,0.0,0.0,0.0,0.0,0.0,0.0,0.0,0.0,0.0,0.0,0.0,0.0,0.0,0.0,0.0,0.0,0.0,0.0,0.0,0.0,0.0,0.0,0.0,0.0,0.0,0.0,0.0,0.0,0.0,0.0,0.0,0.0,0.0,1.6732,1.7383,1.6489,0.0,0.0,0.0,0.0,0.0,0.0,1.8432,1.9035,0.0,0.0,0.0,0.0,0.0,0.0,0.0,0.0,0.0,0.0,0.0,0.0,0.0,0.0,0.0,0.0,0.0,0.0,0.0,0.0,0.0,0.0,0.0,0.0,0.0,0.0,0.0,0.0,0.0,0.0,0.0,0.0,0.0,0.0,0.0,0.0,0.0,0.0,0.0,0.0,0.0,0.0,0.0,0.0,0.0,0.0,0.0,0.0,0.0,0.0,0.0,0.0,0.0,0.0,0.0,-0.0,0.3596,0.6945,0.9842,0.9289,0.8579,0.7935,0.7125,0.6229,0.0,0.0,0.0,0.0,0.0,0.0,0.0,0.0,0.0,0.0,0.0,0.0,0.0,0.0,0.0,0.0,0.0,0.0,0.0,0.0,0.0,0.0,0.0,0.0,0.0,0.0,0.0,0.0,0.0,0.0,0.0,0.0,0.0,0.0,0.0,0.0,0.0,0.0,0.0,0.0,0.0,1.8496,1.7897,1.8302,0.0,0.0,0.0,0.0,1.8282,1.8762,0.0,0.0,0.0,0.0,0.0,0.0,0.0,0.0,0.0,0.0,0.0,0.0,0.0,0.0,0.0,0.0,0.0,0.0,0.0,0.0,0.0,0.0,0.0,0.0,0.0,0.0,0.0,0.0,0.0,0.0,0.0,0.0,0.0,0.0,0.0,0.0,0.0,0.0,0.0,0.0,0.0,0.0,0.0,0.0,0.0,0.0,0.0,0.0,0.0,0.0,0.0,0.0,0.0,0.0,0.0,0.0,0.3522,0.6973,0.9537,1.095,0.9831,0.8993,0.8668,0.7889,0.6873,0.0,0.0,0.0,0.0,0.0,0.0,0.0,0.0,0.0,0.0,0.0,0.0,0.0,0.0,0.0,0.0,0.0,0.0,0.0,0.0,0.0,0.0,0.0,0.0,0.0,0.0,0.0,0.0,0.0,0.0,0.0,0.0,0.0,0.0,0.0,0.0,0.0,0.0,0.0,0.0,0.0,2.0572,1.9584,1.989,1.9888,0.0,0.0,1.9498,1.8917,1.9308,0.0,0.0,0.0,0.0,0.0,0.0,0.0,0.0,0.0,0.0,0.0,0.0,0.0,0.0,0.0,0.0,0.0,0.0,0.0,0.0,0.0,0.0,0.0,0.0,0.0,0.0,0.0,0.0,0.0,0.0,0.0,0.0,0.0,0.0,0.0,0.0,0.0,0.0,0.0,0.0,0.0,0.0,0.0,0.0,0.0,0.0,0.0,0.0,0.0,0.0,0.0,0.0,0.0,0.0,0.0,0.3181,0.5552,0.9211,1.1428,1.1987,1.0819,0.9816,0.9108,0.7712,0.6514,0.0,0.0,0.0,0.0,0.0,0.0,0.0,0.0,0.0,0.0,0.0,0.0,0.0,0.0,0.0,0.0,0.0,0.0,0.0,0.0,0.0,0.0,0.0,0.0,0.0,0.0,0.0,0.0,0.0,0.0,0.0,0.0,0.0,0.0,0.0,0.0,0.0,0.0,0.0,0.0,0.0,0.0,2.1142,2.1092,0.0,0.0,0.0,2.0736,2.0128,0.0,0.0,0.0,0.0,0.0,0.0,0.0,0.0,0.0,0.0,0.0,0.0,0.0,0.0,0.0,0.0,0.0,0.0,0.0,0.0,0.0,0.0,0.0,0.0,0.0,0.0,0.0,0.0,0.0,0.0,0.0,0.0,0.0,0.0,0.0,0.0,0.0,0.0,0.0,0.0,0.0,0.0,0.0,0.0,0.0,0.0,0.0,0.0,0.0,0.0,0.0,0.0,0.0,0.0,0.0,0.0,0.0,0.8639,1.136,1.2783,1.2811,1.1711,1.0648,0.9676,0.7562,0.0,0.0,0.0,0.0,0.0,0.0,0.0,0.0,0.0,0.0,0.0,0.0,0.0,0.0,0.0,0.0,0.0,0.0,0.0,0.0,0.0,0.0,0.0,0.0,0.0,0.0,0.0,1.1267,0.0,0.0,0.0,0.0,0.0,0.0,0.0,0.0,0.0,0.0,0.0,0.0,0.0,0.0,2.1453,2.2694,2.2347,2.1599,0.0,0.0,2.1911,2.1228,2.144,2.1525,0.0,0.0,0.0,0.0,0.0,0.0,0.0,0.0,0.0,0.0,0.0,0.0,0.0,0.0,0.0,0.0,0.0,0.0,0.0,0.0,0.0,0.0,0.0,0.0,0.0,0.0,0.0,0.0,0.0,0.0,0.0,0.0,0.0,0.0,0.0,0.0,0.0,0.0,0.0,0.0,0.0,0.0,0.0,0.0,0.0,0.0,0.0,0.0,0.0,0.0,0.0,0.0,0.0,0.0,0.7432,1.4044,1.3733,1.3446,1.3514,1.229,1.1341,1.0666,0.7787,0.6199,0.0,0.0,0.0,0.0,0.0,0.0,0.0,0.0,0.0,0.0,0.0,0.0,0.0,0.0,0.0,0.0,0.0,0.0,0.0,0.0,0.0,0.0,0.0,0.0,0.0,0.0,0.0,0.0,0.0,0.0,0.0,0.0,0.0,0.0,0.0,0.0,0.0,0.0,0.0,0.0,0.0,2.3183,2.4197,2.3878,2.3232,0.0,2.2809,2.2931,2.1824,2.1681,2.1685,2.1627,0.0,0.0,0.0,0.0,0.0,0.0,0.0,0.0,0.0,0.0,0.0,0.0,0.0,0.0,0.0,0.0,0.0,0.0,0.0,0.0,0.0,0.0,0.0,0.0,0.0,0.0,0.0,0.0,0.0,0.0,0.0,0.0,0.0,0.0,0.0,0.0,0.0,0.0,0.0,0.0,0.0,0.0,0.0,0.0,0.0,0.0,0.0,0.0,0.0,0.0,0.0,0.0,0.0,0.8426,1.5074,1.435,1.3894,1.3837,1.3283,1.2444,1.1255,0.8985,0.7544,0.0,0.0,0.0,0.0,0.0,0.0,0.0,0.0,0.0,0.0,0.0,0.0,0.0,0.0,0.0,0.0,0.0,0.0,0.0,0.0,0.0,0.0,0.0,0.0,0.0,0.0,0.0,0.0,1.1255,1.168,1.2678,0.0,0.0,0.0,0.0,0.0,0.0,0.0,0.0,0.0,0.0,2.2826,2.489,2.4503,0.0,0.0,2.4105,2.3884,2.3437,2.3083,2.2732,2.2393,2.2112,0.0,0.0,0.0,0.0,0.0,0.0,0.0,0.0,0.0,0.0,0.0,0.0,0.0,0.0,0.0,0.0,0.0,0.0,0.0,0.0,0.0,0.0,0.0,0.0,0.0,0.0,0.0,0.0,0.0,0.0,0.0,0.0,0.0,0.0,0.0,0.0,0.0,0.0,0.0,0.0,0.0,0.0,0.0,0.0,0.0,0.0,0.0,0.0,0.0,0.0,0.0,0.0,0.8366,1.328,1.4515,1.5098,1.4983,1.4416,1.3599,1.249,1.0552,0.9088,0.0,0.0,0.0,0.0,0.0,0.0,0.0,0.0,0.0,0.0,0.0,0.0,0.0,0.0,0.0,0.0,0.0,0.0,0.0,0.0,0.0,0.0,0.0,0.0,0.0,0.0,0.0,0.0,1.1225,1.2107,1.2732,0.0,0.0,0.0,0.0,0.0,0.0,0.0,0.0,0.0,0.0,2.2971,2.5244,2.512,2.4995,2.5513,2.5188,2.4792,2.443,2.4074,2.3623,2.3054,0.0,0.0,0.0,0.0,0.0,0.0,0.0,0.0,0.0,0.0,0.0,0.0,0.0,0.0,0.0,0.0,0.0,0.0,0.0,0.0,0.0,0.0,0.0,0.0,0.0,0.0,0.0,0.0,0.0,0.0,-1.2861,0.0,0.0,0.0,0.0,0.0,0.0,0.0,0.0,0.0,0.0,0.0,0.0,0.0,0.0,0.0,0.0,0.0,0.0,0.0,0.0,0.0,0.0,0.713,0.8703,1.4325,1.7234,1.7146,1.5679,1.4825,1.4615,1.2399,1.0737,0.9822,0.0,0.0,0.0,0.0,0.0,0.0,0.0,0.0,0.0,0.0,0.0,0.0,0.0,0.0,0.0,0.0,0.0,0.0,0.0,0.0,0.0,0.0,0.0,0.0,0.0,0.0,1.0235,1.1957,1.3133,0.0,0.0,0.0,0.0,0.0,0.0,0.0,0.0,0.0,1.8301,2.1328,2.4106,2.5363,2.586,2.6093,2.6025,2.5964,2.5615,2.4576,2.4389,2.4199,0.0,0.0,0.0,0.0,0.0,0.0,0.0,0.0,0.0,0.0,0.0,0.0,0.0,0.0,0.0,0.0,0.0,0.0,0.0,0.0,0.0,0.0,0.0,0.0,0.0,0.0,0.0,-1.4081,-1.3695,0.0,0.0,0.0,0.0,0.0,0.0,0.0,0.0,0.0,0.0,0.0,-0.9649,-0.8555,0.0,0.0,0.0,0.0,0.0,0.0,0.0,0.0,0.0,0.0,0.0,0.0,0.5868,0.7829,1.3652,1.6748,1.6763,1.6431,1.5825,1.4939,1.3633,1.1825,0.9552,0.0,0.0,0.0,0.0,0.0,0.0,0.0,0.0,0.0,0.0,0.0,0.0,0.0,0.0,0.0,0.0,0.0,0.0,0.0,0.0,0.0,0.0,0.0,0.0,0.0,1.0127,0.0,0.0,0.0,0.0,0.0,0.0,0.0,0.0,0.0,0.0,0.0,1.9088,1.92,2.207,2.4829,2.681,2.6785,2.6615,0.0,0.0,0.0,0.0,0.0,0.0,0.0,0.0,0.0,0.0,0.0,0.0,0.0,0.0,2.2651,2.1568,2.171,2.2053,2.2039,0.0,0.0,0.0,0.0,0.0,0.0,0.0,0.0,0.0,0.0,0.0,0.0,0.0,0.0,-1.3624,0.0,-1.2295,0.0,0.0,0.0,0.0,0.0,0.0,0.0,0.0,-0.8617,-0.7077,-0.6635,-0.5519,-0.501,0.0,-0.4336,-0.4226,0.0,0.0,0.0,0.0,0.0,0.0,0.0,0.0,0.3988,0.6451,1.3738,1.7467,1.722,1.7435,1.6935,1.5659,1.4452,1.2706,1.0435,0.8823,0.7893,0.0,0.0,0.0,0.0,0.0,0.0,0.0,0.0,0.0,0.0,0.0,0.0,0.0,0.0,0.0,0.0,0.0,0.0,0.0,0.0,0.0,0.0,0.0,1.0719,0.0,0.0,0.0,0.0,0.0,0.0,0.0,0.0,0.0,1.8493,1.9228,2.0102,2.0876,2.3143,2.5502,2.7617,0.0,0.0,0.0,0.0,0.0,0.0,0.0,2.491,2.4712,2.4657,2.4776,2.5128,2.4792,2.4281,2.3676,0.0,0.0,2.2317,2.2225,2.2363,2.2363,2.2725,2.3054,2.3245,2.3876,2.4632,0.0,0.0,0.0,0.0,0.0,0.0,0.0,0.0,-1.3493,-1.2869,0.0,-1.1611,0.0,0.0,0.0,0.0,0.0,-1.1266,0.0,0.0,-0.5939,-0.3049,-0.1113,-0.0296,0.017,0.0259,0.0316,-0.0231,-0.1405,-0.3972,0.0,0.0,0.0,0.0,0.0,0.0,0.1596,0.4589,1.4318,1.9226,1.8479,1.8646,1.8139,1.6767,1.4886,1.3387,1.2376,1.1253,1.0034,0.8555,0.8221,0.0,0.0,0.0,0.0,0.0,0.0,0.0,0.0,0.0,0.0,0.0,0.0,0.0,0.0,0.0,0.0,0.0,0.0,0.0,0.0,1.1054,0.0,0.0,0.0,0.0,0.0,0.0,0.0,0.0,0.0,0.0,2.0798,2.1178,2.1832,2.3019,0.0,0.0,0.0,0.0,2.7286,2.7255,2.6954,2.6539,2.6068,2.5977,2.5815,2.5297,0.0,0.0,2.5221,2.4984,2.4882,2.515,2.5144,2.4681,2.3113,2.326,2.3623,2.3623,2.3666,2.3837,2.4266,2.4455,2.4816,-0.7486,0.0,0.0,0.0,0.0,-1.1165,-1.1217,-1.1589,-1.1332,-1.036,-0.8997,-0.9604,0.0,0.0,0.0,0.0,0.0,0.0,-0.9771,-0.6513,-0.2679,0.0174,0.2122,0.2917,0.4307,0.6114,0.4574,0.3487,0.2734,0.094,-0.1723,-0.5069,0.0,0.0,0.0,0.0,0.1716,0.2401,1.1443,1.698,1.8189,1.8304,1.7868,1.6841,1.569,1.4536,1.3393,1.2378,1.126,1.0076,0.8735,0.0,0.0,0.0,0.0,0.0,0.0,0.0,0.0,0.0,0.0,0.0,0.0,0.0,0.0,0.0,0.0,0.0,0.0,0.0,1.1209,1.2206,1.2853,0.0,0.0,0.0,0.0,0.0,0.0,0.0,0.0,0.0,2.3616,2.3795,2.3669,0.0,0.0,2.6854,2.7014,2.7175,2.721,2.6906,2.6987,0.0,2.6104,2.6013,2.5924,2.5815,2.6052,2.6175,2.5835,2.5983,2.5922,2.5329,2.5221,2.5012,2.4641,2.4601,2.4736,2.4752,2.4736,2.4776,2.4934,2.5243,2.5677,-0.4599,-0.6217,-0.7348,-0.857,-0.9542,-0.8328,-0.7945,-0.8069,-0.7559,-0.6747,-0.5887,-0.675,-0.6806,-0.6442,-0.8937,0.0,0.0,0.0,-0.6441,-0.3061,0.0822,0.3864,0.6062,0.676,0.7704,0.8847,0.7572,0.6205,0.4814,0.4152,0.2422,-0.0476,0.0,0.0,-0.5614,-0.1283,0.18,0.3767,1.1284,1.6123,1.7753,1.7689,1.7375,1.6815,1.5877,1.5048,1.4351,1.3429,1.2619,1.1878,1.0376,0.9313,0.0,0.0,0.0,0.0,0.0,0.0,0.0,0.0,0.0,0.0,0.0,0.8381,0.8381,0.0,0.0,0.0,1.1521,1.3042,1.3226,1.4205,0.0,0.0,0.0,0.0,0.0,0.0,0.0,2.0509,2.2643,2.4296,2.4943,2.5739,2.5925,2.5195,2.6499,2.7447,2.7204,0.0,2.75,2.7391,2.7452,2.733,2.6838,2.674,2.6757,2.674,2.6666,2.6762,2.6788,2.6993,2.6911,2.6264,2.6021,2.5966,2.5819,2.5783,2.5619,2.5297,2.5221,2.5259,2.5449,2.5724,2.6048,-0.1899,-0.2475,-0.5731,-0.6984,-0.6753,-0.5301,-0.453,-0.4168,-0.2933,-0.2633,-0.3079,-0.3346,-0.3912,-0.4785,-0.782,0.0,-0.4006,-0.3419,-0.1892,0.0627,0.4508,0.7715,1.023,1.0671,1.0416,0.9492,0.9497,0.8212,0.5838,0.6131,0.6057,0.542,0.0763,-0.1666,-0.1647,-0.0839,0.2384,0.8064,1.3001,1.6111,1.7255,1.7028,1.6866,1.6805,1.5752,1.5195,1.5074,1.4506,1.3976,1.36,1.2775,1.1528,0.9876,0.0,0.0,0.0,0.0,0.0,0.0,0.0,0.0,0.0,0.0,0.0,0.0,0.0,0.0,1.0109,1.3167,0.0,1.565,1.6671,0.0,0.0,0.0,1.7926,1.9199,2.0287,2.1173,2.1834,0.0,0.0,2.5263,2.7064,2.8273,2.7975,2.7912,2.7931,2.7941,2.7905,2.7992,2.8219,2.8075,2.7897,2.7765,2.7794,2.7765,2.7747,2.7271,2.7109,2.7688,2.794,2.7824,2.7348,2.7365,2.7224,2.6841,2.6757,2.6522,2.566,2.5454,2.5545,2.5999,2.6067,2.6247,0.0907,-0.2269,-0.309,-0.2817,-0.1781,-0.1384,-0.124,-0.1142,-0.0156,0.0204,-0.0,-0.0615,-0.2812,-0.5995,-0.4374,-0.1752,0.1533,0.0778,0.1859,0.4534,0.8262,1.0283,1.0753,1.1276,1.145,1.118,1.0733,1.007,0.9085,0.7919,0.7377,0.73,0.5196,0.3351,0.1968,0.3096,0.6589,1.2328,1.3091,1.4685,1.7197,1.7402,1.7271,1.6815,1.627,1.571,1.5149,1.5425,1.5059,1.3964,1.3741,1.2999,1.1575,0.9557,0.0,0.0,0.0,0.0,0.0,0.0,0.0,0.0,0.0,0.8997,1.0173,0.0,1.2213,0.0,1.6341,1.7571,1.7309,1.7878,0.0,0.0,1.8574,1.9112,2.0355,2.1844,2.3092,2.3918,2.5313,2.6497,2.7143,2.7905,2.8324,2.8166,2.8219,2.8255,2.8164,2.8,2.7926,2.802,2.7964,2.7897,2.7926,2.7897,2.7926,2.7897,2.7727,2.771,2.7862,2.839,2.8532,2.7917,2.7736,2.7725,2.7607,2.7636,2.756,2.7278,2.7014,2.6838,2.697,2.7013,2.728,0.1815,0.069,-0.0677,-0.0726,0.0111,0.1447,0.1968,0.1906,0.2362,0.2536,0.2446,0.1786,0.0156,-0.1902,0.0049,0.2721,0.5732,0.5605,0.6076,0.7112,0.9879,1.1096,1.0972,1.1718,1.197,1.1811,1.1634,1.1579,1.1508,0.9924,0.943,0.9907,0.8561,0.7588,0.7005,0.6823,0.8958,1.3413,1.4377,1.5848,1.7872,1.7945,1.777,1.7436,1.6805,1.6262,1.5828,1.577,1.5462,1.4948,1.4385,1.3818,1.3188,1.1012,0.9588,0.0,0.0,0.0,0.0,0.0,0.0,0.0,0.0,0.0,0.0,0.0,1.4216,1.6531,1.8516,1.9501,1.9021,1.9951,2.0655,2.0778,2.1259,2.1906,2.2714,2.3967,2.498,2.543,2.6602,2.7484,2.788,2.8342,2.8572,2.833,2.8485,2.8644,2.8564,2.8458,2.8404,2.8386,2.8404,2.8404,2.8404,2.8404,2.8386,2.8404,2.8404,2.8386,2.8404,2.8727,2.8827,2.8255,2.8129,2.8075,2.7954,2.7897,2.7897,2.7897,2.7851,2.7747,2.7589,2.7628,2.7808,0.1525,0.3691,0.1525,0.0338,0.0225,0.3222,0.4443,0.4294,0.4252,0.4235,0.4227,0.3851,0.3795,0.3985,0.4361,0.6088,0.8792,0.9567,0.9453,0.8823,1.0283,1.1044,1.1153,1.2016,1.222,1.1901,1.2198,1.2579,1.2961,1.1571,1.1371,1.2221,1.0928,1.0821,1.1954,1.0079,1.0477,1.3194,1.6039,1.7855,1.8602,1.8345,1.8192,1.8146,1.7242,1.6712,1.6681,1.5909,1.5675,1.6148,1.5108,1.4624,1.4855,1.2756,1.1535,0.0,1.0092,0.0,0.0,0.0,0.0,0.0,0.0,0.0,0.0,1.4256,1.6349,1.8511,2.0247,2.1207,2.1011,2.2383,2.3321,2.3468,2.4397,2.5143,2.5419,2.6182,2.6703,2.6736,2.7745,2.829,2.8102,2.8626,2.8881,2.859,2.8773,2.8952,2.8975,2.8952,2.8929,2.8975,2.8975,2.8905,2.8929,2.8952,2.8952,2.8975,2.8929,2.8975,2.8952,2.897,2.8881,2.8565,2.8471,2.8386,2.8093,2.8065,2.8065,2.8093,2.829,2.8342,2.8075,2.8031,2.8149,0.035,0.1051,0.2863,0.2217,0.0292,0.3217,0.402,0.3358,0.4136,0.4457,0.4522,0.5413,0.5883,0.6015,0.5769,0.7037,0.9259,0.8272,0.8319,0.9376,1.0435,1.1247,1.1821,1.2196,1.2345,1.2284,1.2028,1.1979,1.2036,1.1287,1.1475,1.2502,1.134,1.1729,1.3506,0.0,0.0,0.0,1.6473,1.7575,1.7738,1.8037,1.8192,1.8146,1.7242,0.0,1.6712,1.6542,1.655,1.6738,1.7006,0.0,0.0,0.0,0.0,0.0,0.0,0.0,0.0,0.0,0.0,0.0,1.472,1.5853,1.5659,1.8658,2.0953,2.1685,2.2387,2.3021,2.3586,2.3935,2.4514,2.5352,2.6028,2.6486,2.6727,2.7274,2.773,2.8004,2.8272,2.8515,2.8725,2.8929,2.897,2.8887,2.8952,2.8994,2.8975,2.8975,2.8975,2.8975,2.8975,2.8975,2.8975,2.8975,2.8975,2.8975,2.8975,2.8975,2.8975,2.8975,2.8975,2.8863,2.8905,2.8863,2.8791,2.8773,2.8743,2.8791,2.8839,2.8773,2.8394,2.8572,2.8808,-0.0,0.0,0.161,0.138,0.0,0.3228,0.4188,0.377,0.4278,0.459,0.4881,0.6004,0.684,0.7399,0.7508,0.8237,0.9377,0.8647,0.8829,0.9688,1.02,1.0526,1.0785,1.0913,1.0853,1.0587,1.0584,1.075,1.0998,1.0956,1.1572,1.2787,1.2064,1.2442,1.3938,1.3506,1.3914,1.5301,1.6703,1.7654,1.8183,1.8426,1.868,1.8897,1.8128,0.0,0.0,0.0,0.0,0.0,0.0,0.0,0.0,1.6652,0.0,1.5661,1.5633,1.5159,1.4105,1.5765,1.6393,1.5472,1.7752,1.9214,1.9071,2.1412,2.3126,2.3667,2.4078,2.4532,2.5165,2.5757,2.6157,2.6405,2.7112,2.7575,2.7549,2.7901,2.8192,2.8394,2.8583,2.8773,2.8975,2.8975,2.8975,2.8975,2.8975,2.8975,2.8975,2.8975,2.8975,2.8975,2.8975,2.8975,2.8975,2.8975,2.9017,2.8975,2.8975,2.8975,2.8975,2.8975,2.8975,2.8975,2.8975,2.8975,2.8975,2.8975,2.8975,2.8975,2.8975,2.8952,2.8749,2.8863,2.8975,-0.0,-0.0,-0.0,0.0169,0.0561,0.3051,0.4241,0.449,0.0,0.0,0.0,0.6143,0.7153,0.8092,0.8635,0.8954,0.9094,0.899,0.9209,0.9615,0.9684,0.967,0.9583,0.9606,0.9408,0.9006,0.9278,0.9734,1.0283,1.0671,1.157,1.2765,1.2556,1.2895,1.3864,1.4015,1.462,1.5731,1.6663,1.7572,1.8444,1.865,1.9006,1.9566,1.8906,1.8584,1.8668,1.7317,1.7015,1.7935,1.6978,1.6983,1.8229,1.7553,1.746,1.8257,1.7832,1.7472,1.7415,1.7889,1.8272,1.8389,2.0511,2.1945,2.2224,2.3141,2.4111,2.5117,2.5333,2.5649,2.6322,2.7232,2.7643,2.7227,2.7982,2.8394,2.8147,2.8316,2.8515,2.854,2.8773,2.8975,2.8975,2.8975,2.8975,2.8975,2.8975,2.9021,2.9062,2.9021,2.904,2.9067,2.9112,2.9089,2.9115,2.9093,2.9067,2.9089,2.9044,2.8975,2.8975,2.8975,2.8975,2.8975,2.8975,2.8975,2.8975,2.8975,2.8975,2.8975,2.904,2.9122,2.9273,2.9355,2.9337,-0.0,-0.0,-0.0,0.0748,0.1912,0.2364,0.3266,0.4467,0.4467,0.4831,0.5504,0.6249,0.6929,0.7489,0.7568,0.7866,0.8263,0.7323,0.7491,0.8636,0.8905,0.9286,0.9773,0.9988,1.007,0.999,0.9641,0.99,1.0615,1.0697,1.1276,1.2121,1.2363,1.2896,1.3859,1.4351,1.4947,1.5611,1.6231,1.6604,1.676,1.772,1.8458,1.8939,1.8397,1.8256,1.8653,1.7941,1.7848,1.8554,1.8785,1.9072,1.9456,1.9617,1.9657,1.9462,1.9647,1.9797,1.9721,2.0242,2.0909,2.1843,2.3128,2.3915,2.3947,2.3799,2.4432,2.6124,2.5821,2.6025,2.7339,2.7732,2.8077,2.8547,2.879,2.8881,2.8815,2.8839,2.8887,2.8887,2.8952,2.8975,2.8975,2.8975,2.8975,2.8975,2.9021,2.9089,2.9246,2.9156,2.913,2.9289,2.9332,2.9395,2.9494,2.9435,2.9353,2.9351,2.9138,2.9021,2.9021,2.8998,2.8998,2.8975,2.8998,2.904,2.8998,2.8975,2.9081,2.9104,2.9277,2.9518,3.0118,3.0524,3.043,-0.1477,-0.0,-0.0,0.0853,0.225,0.3076,0.3854,0.4463,0.4463,0.4842,0.5538,0.6293,0.6945,0.7576,0.777,0.786,0.7778,0.7181,0.7086,0.7497,0.7766,0.815,0.8587,0.8727,0.8832,0.8963,0.8729,0.8837,0.9225,0.9468,1.0374,1.1781,1.2406,1.3034,1.3788,1.3773,1.4031,1.4624,1.5504,1.6275,1.687,1.7409,1.8052,1.8855,1.8605,1.8695,1.9226,1.8912,1.8985,1.9562,1.9734,2.0007,2.0398,2.0962,2.0994,2.0431,2.1147,2.1617,2.1569,2.2578,2.3397,2.3844,2.4736,2.5548,2.6162,2.5641,2.5826,2.709,2.6997,2.7276,2.8342,2.8621,2.8809,2.8962,2.8975,2.8975,2.8975,2.8975,2.8975,2.8975,2.8975,2.8975,2.8975,2.8975,2.8975,2.9017,2.9112,2.9291,2.9514,2.9456,2.9416,2.9533,2.957,2.9589,2.9678,2.9644,2.957,2.9551,2.9373,2.9206,2.9203,2.9115,2.8998,2.8998,2.9112,2.9203,2.9185,2.9332,2.9543,2.9995,2.9737,2.9964,3.0584,3.0979,3.1092,-0.2355,-0.0504,-0.0112,0.0673,0.185,0.3705,0.4484,0.4467,0.4467,0.4842,0.5538,0.6122,0.6747,0.7389,0.7716,0.7561,0.7104,0.6961,0.6773,0.6667,0.6753,0.705,0.7371,0.7359,0.7534,0.7843,0.7879,0.7966,0.8153,0.8736,0.9927,1.1649,1.2522,1.3135,1.3596,1.3234,1.3401,1.4192,1.5231,1.6094,1.6672,1.6967,1.7585,1.8458,1.865,1.9116,1.9854,1.9984,2.0314,2.092,2.1079,2.1244,2.1503,2.2199,2.2378,2.1922,2.2599,2.3162,2.3392,2.4562,2.5295,2.5203,2.5986,2.685,2.7636,2.742,2.7383,2.7956,2.7999,2.8244,2.8823,2.9178,2.928,2.904,2.8975,2.8975,2.8975,2.8975,2.8975,2.8975,2.8975,2.8975,2.8975,2.8975,2.904,2.9134,2.9312,2.9533,2.9731,2.9796,2.9848,2.9848,2.9815,2.9815,2.9832,2.9815,2.9763,2.9763,2.9588,2.9494,2.9435,2.9272,2.9166,2.9188,2.9332,2.9435,2.9474,2.957,2.9887,3.03,3.0071,3.0099,3.0959,3.164,3.1857,-0.1061,-0.1729,-0.0504,0.0056,0.0559,0.3249,0.4376,0.4477,0.4477,0.4904,0.5378,0.5588,0.5931,0.6422,0.636,0.6213,0.5935,0.5754,0.5808,0.6036,0.6201,0.6406,0.6699,0.6709,0.7026,0.7635,0.7735,0.8081,0.8706,0.964,1.0802,1.2089,1.2676,1.2949,1.3047,1.3312,1.4053,1.5322,1.5875,1.5751,1.5074,1.5996,1.6866,1.7435,1.7947,1.8931,2.046,2.1059,2.1819,2.2884,2.3585,2.3697,2.319,2.3765,2.4137,2.4036,2.4198,2.4545,2.5253,2.5768,2.6027,2.6067,2.7004,2.7669,2.786,2.8411,2.8755,2.8741,2.8213,2.8276,2.8888,2.9081,2.9104,2.9017,2.8975,2.8975,2.8975,2.8975,2.8975,2.8975,2.8975,2.8975,2.8975,2.8998,2.9112,2.9332,2.9533,2.9729,2.9958,3.0122,3.026,3.0241,3.0136,3.0095,3.0215,3.0122,3.0018,2.9988,2.9796,2.9696,2.9661,2.9643,2.9625,2.9495,2.9625,2.9661,2.9678,2.9696,2.9769,3.021,3.0269,3.0352,3.1481,3.262,3.3245,-0.1955,-0.0837,-0.028,-0.0,-0.0,0.134,0.2852,0.4435,0.4487,0.4359,0.4113,0.4629,0.5692,0.6945,0.6611,0.6307,0.5997,0.558,0.5187,0.496,0.5113,0.5428,0.5923,0.5959,0.6554,0.7616,0.767,0.8106,0.9034,1.0806,1.2036,1.2358,1.2734,1.3135,1.3616,1.3979,1.4532,1.53,1.6328,1.6616,1.6326,1.6757,1.7109,1.7391,1.8194,1.9131,2.0235,2.1651,2.2783,2.3489,2.4354,2.4775,2.4636,2.5392,2.5614,2.5222,2.5579,2.5852,2.5906,2.6855,2.7363,2.7132,2.7976,2.8521,2.8521,2.8833,2.8975,2.8962,2.8861,2.8867,2.8984,2.9248,2.9311,2.9081,2.8975,2.8975,2.8975,2.8975,2.8975,2.8975,2.8975,2.8975,2.9021,2.9134,2.9312,2.9551,2.9765,2.9939,3.0196,3.0323,3.0379,3.0398,3.0299,3.0299,3.0367,3.0311,3.0241,3.0196,3.0032,2.9877,2.9877,2.9765,2.9696,2.9713,2.9813,2.9877,2.9877,3.0075,3.0209,3.051,3.0925,3.1296,3.2225,3.2929,3.3369,-0.3246,-0.1397,-0.1232,-0.0728,-0.0,-0.0,0.1228,0.3249,0.4101,0.3846,0.2914,0.3868,0.5171,0.6347,0.5854,0.5332,0.4944,0.4554,0.4148,0.385,0.4252,0.475,0.5226,0.5242,0.59,0.6966,0.7283,0.809,0.9427,1.1379,1.2624,1.2744,1.2943,1.3401,1.4122,1.4626,1.5112,1.5491,1.6865,1.7637,1.7519,1.7661,1.7708,1.7648,1.8526,1.9461,2.0388,2.2178,2.3529,2.4331,2.5305,2.5925,2.6073,2.681,2.697,2.6496,2.702,2.7256,2.6903,2.7937,2.8446,2.8223,2.8723,2.8975,2.8975,2.8975,2.904,2.9134,2.9289,2.927,2.9085,2.9311,2.9333,2.904,2.8975,2.8975,2.8975,2.8975,2.8975,2.8975,2.8975,2.9021,2.9112,2.9289,2.9455,2.971,2.9908,3.0109,3.0323,3.0398,3.0398,3.0398,3.0398,3.0398,3.0398,3.0379,3.0398,3.0367,3.0209,3.0122,3.0103,2.9958,2.9896,3.0037,3.0061,3.0109,3.0122,3.0356,3.0463,3.1148,3.1641,3.1936,3.2256,3.2949,3.393,-0.4442,-0.4169,-0.4284,-0.2581,-0.0,-0.0,-0.0,0.0726,0.3193,0.3583,0.2509,0.3526,0.4271,0.4633,0.3362,0.2347,0.219,0.2308,0.2556,0.3043,0.4011,0.4519,0.4574,0.4574,0.4952,0.5814,0.6475,0.8072,1.0592,1.1294,1.2241,1.3404,1.3455,1.3701,1.4252,1.529,1.5815,1.6115,1.7725,1.8422,1.8017,1.84,1.8496,1.8273,1.8708,1.9785,2.1398,2.2652,2.4062,2.5812,2.6919,2.7502,2.733,2.7877,2.8224,2.8258,2.8573,2.8814,2.8769,2.8814,2.8868,2.8879,2.8855,2.8952,2.8905,2.8929,2.9044,2.933,2.9312,2.9267,2.9044,2.9075,2.9112,2.9067,2.9021,2.9044,2.9017,2.9021,2.8998,2.8975,2.8975,2.9093,2.933,2.9392,2.9551,2.9788,2.9961,3.0122,3.0323,3.0398,3.0398,3.0398,3.0398,3.0398,3.0398,3.0398,3.0398,3.0379,3.0355,3.0336,3.0367,3.0367,3.0343,3.0311,3.0311,3.0311,3.0386,3.0398,3.0417,3.0968,3.1891,3.2314,3.2391,3.4064,3.4911,-0.3373,-0.1738,-0.2631,-0.2916,-0.2699,-0.0838,-0.0,-0.0,0.1094,0.1776,0.2172,0.3234,0.3901,0.406,0.2776,0.2696,0.3472,0.3531,0.3635,0.3905,0.4291,0.4477,0.4463,0.4463,0.4842,0.5542,0.6258,0.8199,1.0995,1.1791,1.2821,1.4063,1.4033,1.4218,1.4978,1.6042,1.6716,1.7089,1.857,1.9325,1.9089,1.932,1.9334,1.9208,1.892,1.9529,2.1145,2.2638,2.4193,2.5809,2.6605,2.7322,2.7911,2.8246,2.8496,2.8707,2.8464,2.8507,2.8839,2.8558,2.8386,2.8565,2.8412,2.8326,2.8334,2.8489,2.8664,2.8808,2.9048,2.9067,2.9016,2.8989,2.9118,2.9381,2.9456,2.9395,2.927,2.9246,2.9181,2.9044,2.8998,2.9141,2.9456,2.9589,2.9677,2.9935,3.0117,3.0267,3.0355,3.0398,3.0398,3.0398,3.0417,3.0448,3.0398,3.0398,3.0398,3.0398,3.0379,3.0379,3.0398,3.0398,3.0367,3.0355,3.0398,3.0398,3.0398,3.0398,3.0398,3.0621,3.1583,3.2468,3.2557,3.4083,3.4853,-0.3317,-0.1793,-0.2514,-0.3535,-0.4123,-0.179,-0.0391,-0.0,-0.0,0.101,0.2592,0.3451,0.3802,0.3811,0.3089,0.3356,0.4403,0.4488,0.4497,0.4484,0.449,0.4484,0.4463,0.4463,0.4838,0.5609,0.6604,0.8482,1.0686,1.1805,1.2986,1.426,1.4308,1.4697,1.5474,1.6324,1.6924,1.7176,1.8336,1.9097,1.915,1.9574,1.9783,1.9787,1.9705,2.0099,2.113,2.2452,2.3853,2.5207,2.6079,2.7023,2.8066,2.8237,2.8342,2.8551,2.8201,2.8093,2.8507,2.8174,2.7992,2.821,2.8047,2.7926,2.8047,2.829,2.8496,2.8718,2.8943,2.9138,2.9196,2.9233,2.9323,2.9606,2.9774,2.9811,2.9532,2.9453,2.9267,2.9067,2.9089,2.9312,2.9626,2.9748,2.9893,3.0089,3.0279,3.0379,3.0398,3.0398,3.0398,3.0417,3.0467,3.0486,3.046,3.0471,3.0421,3.041,3.0398,3.0398,3.0398,3.0398,3.0398,3.0398,3.0398,3.0398,3.0398,3.0398,3.0417,3.0487,3.1506,3.2622,3.3173,3.3981,3.4795,-0.4455,-0.4271,-0.4487,-0.4369,-0.4278,-0.2732,-0.1283,-0.0,-0.0,0.1746,0.3644,0.4056,0.3923,0.3963,0.3767,0.4098,0.4393,0.4532,0.4595,0.4588,0.4543,0.4591,0.468,0.4625,0.5073,0.5854,0.7372,0.8645,0.9797,1.1304,1.2642,1.3639,1.4477,1.5066,1.5478,1.6213,1.6297,1.6318,1.7388,1.795,1.782,1.9172,1.9883,2.0042,2.0927,2.1539,2.1716,2.2264,2.3214,2.4424,2.5704,2.6882,2.7596,2.7747,2.7851,2.7833,2.7823,2.7869,2.788,2.7851,2.7783,2.7851,2.7869,2.788,2.8057,2.8272,2.8554,2.8993,2.9249,2.9395,2.9533,2.955,2.955,2.9512,2.9962,3.0126,2.9774,2.9513,2.931,2.9112,2.92,2.9455,2.9678,2.9829,2.9999,3.0254,3.0386,3.0398,3.0398,3.0398,3.0417,3.0463,3.0501,3.0513,3.0524,3.0528,3.0471,3.0429,3.041,3.0398,3.0398,3.0398,3.0398,3.0398,3.0398,3.0398,3.0398,3.0398,3.0417,3.066,3.1814,3.273,3.3378,3.4089,3.5068,-0.4494,-0.4469,-0.4331,-0.4395,-0.4265,-0.2841,-0.1367,0.0167,0.1689,0.2571,0.2801,0.3556,0.3931,0.3941,0.4029,0.42,0.4316,0.488,0.5175,0.512,0.4743,0.5073,0.5664,0.5441,0.594,0.7271,0.8075,0.924,1.0675,1.1863,1.2937,1.3961,1.4792,1.5525,1.6151,1.6885,1.7324,1.7776,1.8608,1.9294,1.9723,1.9762,2.0204,2.1037,2.152,2.1902,2.236,2.256,2.3216,2.4348,2.4823,2.5484,2.6269,2.6455,2.6587,2.6747,2.6672,2.6869,2.7274,2.7172,2.7192,2.7348,2.7272,2.7129,2.7299,2.7747,2.8129,2.8453,2.8803,2.916,2.9191,2.9226,2.9364,2.9761,3.0178,3.0205,2.9754,2.9375,2.9203,2.9246,2.9181,2.9357,2.9729,2.9874,2.9973,3.0311,3.0398,3.0398,3.0398,3.0421,3.0451,3.0438,3.0503,3.0544,3.0556,3.0528,3.0443,3.0414,3.04,3.0398,3.0398,3.0398,3.0398,3.0398,3.0398,3.0398,3.0398,3.0417,3.0448,3.0864,3.1819,3.2582,3.3249,3.4141,3.5126,-0.444,-0.4456,-0.4219,-0.4241,-0.4245,-0.2808,-0.1345,0.0273,0.2792,0.3408,0.2968,0.3664,0.4101,0.4124,0.4246,0.4324,0.4388,0.5175,0.5651,0.5814,0.5496,0.5828,0.6603,0.6619,0.7032,0.8195,0.8863,1.0033,1.1586,1.2381,1.3262,1.4177,1.4991,1.5732,1.6475,1.6973,1.7556,1.8305,1.8931,1.9684,2.0142,1.9948,2.0351,2.1485,2.1697,2.2053,2.2589,2.2498,2.2876,2.3891,2.4266,2.4768,2.5501,2.5611,2.5688,2.5799,2.5845,2.6002,2.6555,2.6556,2.6641,2.6922,2.6841,2.6808,2.6971,2.747,2.7736,2.8129,2.8489,2.8858,2.898,2.9005,2.9246,2.971,2.9962,2.9967,2.9626,2.9334,2.9178,2.9243,2.92,2.9435,2.9695,2.9874,2.9958,3.0299,3.0398,3.0417,3.0433,3.0451,3.044,3.0457,3.05,3.0547,3.0577,3.0511,3.042,3.0392,3.0407,3.04,3.0398,3.0398,3.0398,3.0417,3.0436,3.0467,3.0467,3.0506,3.0564,3.1241,3.1738,3.2422,3.3158,3.4218,3.5176,-0.4294,-0.4409,-0.4155,-0.4101,-0.4039,-0.2909,-0.1494,0.032,0.298,0.4046,0.4036,0.4219,0.4396,0.446,0.4416,0.444,0.4622,0.532,0.5982,0.6485,0.6668,0.6911,0.6937,0.7784,0.8425,0.8816,0.9747,1.0873,1.1989,1.2769,1.3485,1.4373,1.5167,1.5946,1.668,1.6686,1.7257,1.818,1.8666,1.9364,2.0054,1.9847,2.0382,2.173,2.1744,2.196,2.2346,2.2193,2.2423,2.345,2.4032,2.4496,2.4973,2.5089,2.5051,2.5057,2.5128,2.5411,2.5799,2.6033,2.6227,2.6573,2.6708,2.6841,2.7115,2.7303,2.7589,2.8084,2.8298,2.854,2.8839,2.897,2.9134,2.9332,2.9589,2.9608,2.9434,2.9372,2.9225,2.9112,2.9225,2.9454,2.9643,2.9796,3.0037,3.0312,3.0381,3.04,3.0501,3.0498,3.049,3.0487,3.0498,3.0541,3.0587,3.0469,3.038,3.0333,3.0316,3.0286,3.0343,3.0374,3.0417,3.0448,3.0494,3.0521,3.0543,3.0567,3.0582,3.0864,3.1474,3.2222,3.3223,3.4316,3.5215,-0.4304,-0.4148,-0.4172,-0.4085,-0.405,-0.364,-0.2162,0.0055,0.1934,0.3369,0.4177,0.4263,0.4284,0.4274,0.4426,0.4463,0.4791,0.5714,0.6367,0.6781,0.799,0.8165,0.8105,0.8995,0.9603,0.9773,1.0608,1.1512,1.1958,1.3122,1.4186,1.5032,1.5728,1.6801,1.7948,1.8002,1.8787,1.978,2.0075,2.0766,2.154,2.1302,2.1539,2.2271,2.1932,2.1805,2.2007,2.23,2.2543,2.292,2.3493,2.3879,2.4074,2.4074,2.4116,2.4158,2.443,2.4657,2.4934,2.5561,2.6033,2.6175,2.6505,2.6725,2.6841,2.7147,2.7378,2.7631,2.7833,2.8183,2.8525,2.8808,2.9016,2.9108,2.9272,2.9415,2.9353,2.9203,2.9067,2.904,2.9067,2.9228,2.9435,2.957,2.9786,3.017,3.0322,3.0336,3.0466,3.0525,3.0527,3.0462,3.047,3.054,3.0548,3.0426,3.0339,3.0272,3.0207,3.0099,3.0202,3.0324,3.0412,3.0487,3.0579,3.0626,3.0591,3.0605,3.0625,3.0685,3.1729,3.2734,3.3535,3.4512,3.5351,-0.4304,-0.4199,-0.412,-0.4131,-0.4183,-0.3931,-0.3079,-0.164,0.0381,0.2535,0.3984,0.3896,0.3962,0.4308,0.4484,0.446,0.468,0.5937,0.6643,0.7123,0.8675,0.9182,0.9163,0.9794,1.012,1.0154,1.0898,1.1447,1.195,1.3114,1.4067,1.4876,1.5948,1.7081,1.8069,1.8898,1.9506,2.0348,2.1081,2.1799,2.1846,2.2025,2.2058,2.2104,2.1472,2.1,2.1363,2.2207,2.2709,2.2844,2.3231,2.3595,2.3595,2.3595,2.3595,2.3595,2.3906,2.4142,2.4511,2.5221,2.5742,2.6033,2.6436,2.6657,2.6725,2.6939,2.71,2.7317,2.7547,2.7823,2.812,2.8434,2.8514,2.8525,2.8688,2.8902,2.9163,2.9089,2.8998,2.8975,2.8998,2.9112,2.9351,2.9373,2.9626,2.9972,3.0175,3.0306,3.0477,3.0524,3.0534,3.047,3.0452,3.0527,3.053,3.0435,3.0333,3.0261,3.0133,2.9988,3.0133,3.0305,3.0444,3.0524,3.0643,3.071,3.0672,3.0686,3.0743,3.1159,3.224,3.2949,3.3594,3.4434,3.5293,-0.429,-0.4429,-0.4052,-0.4098,-0.428,-0.3914,-0.357,-0.3245,-0.0661,0.1978,0.3917,0.3589,0.3831,0.4477,0.4512,0.4581,0.4768,0.6046,0.6976,0.7851,0.9067,0.9701,0.9814,1.0013,1.0207,1.0302,1.051,1.1274,1.2081,1.2879,1.3726,1.4836,1.613,1.7002,1.8018,1.9049,1.9736,2.0267,2.1397,2.1738,2.1417,2.1697,2.1885,2.1493,2.0584,2.0302,2.0877,2.1799,2.2558,2.2603,2.3231,2.3551,2.3595,2.3595,2.3595,2.3595,2.3666,2.3837,2.4307,2.4855,2.5411,2.5835,2.635,2.6691,2.6742,2.6758,2.6873,2.7147,2.7241,2.7439,2.7754,2.7886,2.8,2.8037,2.801,2.8255,2.8676,2.8881,2.8881,2.8887,2.8863,2.903,2.9163,2.9295,2.936,2.9569,2.9813,3.0152,3.0389,3.0566,3.0546,3.0501,3.0494,3.0513,3.0488,3.0438,3.0348,3.0263,3.0098,3.0013,3.0123,3.0297,3.0456,3.0578,3.0698,3.0748,3.0762,3.0799,3.0859,3.1172,3.1894,3.25,3.3144,3.418,3.5098,-0.4022,-0.4017,-0.409,-0.3981,-0.3877,-0.4098,-0.3,-0.0886,0.089,0.2672,0.4125,0.4242,0.4301,0.4532,0.4643,0.4905,0.5688,0.645,0.749,0.9358,0.9023,0.9667,1.0177,1.0483,1.051,1.0656,1.1238,1.1896,1.2634,1.3356,1.461,1.5843,1.661,1.7696,1.8424,1.93,2.0091,2.0554,2.1089,2.1307,2.1321,2.1251,2.1251,2.0966,2.0319,1.9978,2.0206,2.1232,2.1899,2.2179,2.2965,2.3709,2.3638,2.3595,2.3595,2.3638,2.3595,2.3638,2.3921,2.4697,2.5259,2.5503,2.621,2.6708,2.6708,2.6708,2.6725,2.6808,2.6841,2.7068,2.7396,2.7707,2.7765,2.7811,2.7794,2.7897,2.8093,2.8165,2.8201,2.8228,2.8386,2.8446,2.8316,2.8554,2.8764,2.9082,2.9506,2.9915,3.025,3.0586,3.0564,3.0488,3.0544,3.0552,3.0537,3.0505,3.0433,3.0363,3.0196,3.0095,3.0237,3.0349,3.0537,3.0665,3.0762,3.0801,3.082,3.0859,3.0898,3.123,3.1523,3.2148,3.2871,3.3906,3.4551,-0.4488,-0.4141,-0.354,-0.3565,-0.3545,-0.1431,-0.0168,0.028,0.1563,0.3079,0.4386,0.4923,0.5132,0.5148,0.5191,0.5667,0.6535,0.7364,0.8527,0.9845,1.0085,1.0381,1.0571,1.0926,1.1045,1.0744,1.0989,1.1476,1.2027,1.3122,1.4043,1.5371,1.6743,1.7632,1.8395,1.9469,2.0167,2.0341,2.0584,2.0638,2.0321,2.0446,2.0686,2.0845,2.072,2.0805,2.1293,2.2058,2.2639,2.3098,2.3819,2.4074,2.3681,2.3595,2.3724,2.3921,2.3724,2.3964,2.4389,2.4871,2.5335,2.5577,2.628,2.659,2.6708,2.6708,2.6708,2.6708,2.6725,2.6808,2.7004,2.7147,2.7334,2.7365,2.7348,2.7317,2.7378,2.7648,2.7897,2.7926,2.8075,2.8093,2.8065,2.8102,2.8149,2.8448,2.9173,2.9639,3.0338,3.0597,3.055,3.053,3.0582,3.0606,3.06,3.0579,3.0552,3.0506,3.0417,3.0369,3.0427,3.0528,3.0637,3.0719,3.0781,3.0859,3.0879,3.0918,3.0937,3.1113,3.1426,3.1914,3.248,3.3281,3.375,-0.5043,-0.4252,-0.2932,-0.3003,-0.2841,0.1953,0.2921,0.1176,0.2011,0.3416,0.4438,0.5419,0.5677,0.5821,0.5936,0.6554,0.7719,0.8434,0.9457,1.0479,1.0939,1.1169,1.1296,1.1663,1.1593,1.087,1.0926,1.1045,1.1454,1.2389,1.3881,1.4465,1.6244,1.728,1.7847,1.9125,1.9875,1.9674,1.9953,1.9949,1.9361,1.9629,2.0169,2.0733,2.128,2.1791,2.2303,2.301,2.3661,2.4374,2.4894,2.4657,2.4116,2.3767,2.3794,2.4225,2.3794,2.4048,2.4632,2.5105,2.5411,2.5961,2.6436,2.6657,2.6708,2.6708,2.6708,2.6708,2.6691,2.6691,2.6691,2.6791,2.6791,2.6758,2.6725,2.6708,2.6825,2.7317,2.756,2.7666,2.7678,2.7707,2.7754,2.7776,2.7772,2.7907,2.8685,2.9432,3.0171,3.0564,3.0481,3.0559,3.0617,3.0715,3.0726,3.0654,3.063,3.0592,3.0567,3.056,3.0595,3.0679,3.0755,3.0733,3.0781,3.0859,3.0918,3.0918,3.0957,3.1035,3.1211,3.1562,3.207,3.2676,3.2949,-0.4719,-0.3731,-0.3467,-0.2422,-0.0324,0.3049,0.4169,0.3881,0.3863,0.4252,0.4591,0.5285,0.5764,0.5808,0.629,0.775,0.9246,0.9625,1.0108,1.1098,1.1301,1.1322,1.2336,1.2749,1.2381,1.1772,1.1764,1.1974,1.2158,1.3322,1.4112,1.5108,1.6249,1.6838,1.7126,1.7734,1.8888,1.9132,1.9278,1.9312,1.9547,1.9834,2.0357,2.1015,2.1697,2.2215,2.2685,2.3244,2.3716,2.4225,2.4847,2.5051,2.4894,2.4536,2.4266,2.4032,2.3879,2.4158,2.4792,2.5067,2.5449,2.5961,2.6436,2.6691,2.6725,2.6708,2.6708,2.6725,2.6725,2.6725,2.6708,2.6758,2.6725,2.6725,2.6758,2.6758,2.6825,2.6971,2.7147,2.7272,2.7334,2.7378,2.7439,2.7554,2.7634,2.7857,2.8453,2.9342,3.0166,3.0403,3.0377,3.0494,3.0661,3.0769,3.0845,3.0756,3.0698,3.0677,3.0644,3.0646,3.0685,3.0791,3.0824,3.0801,3.082,3.0898,3.0918,3.0918,3.0937,3.0976,3.1074,3.1172,3.1543,3.1931,3.2069,-0.5008,-0.3924,-0.2391,-0.0164,0.2304,0.379,0.4501,0.4553,0.486,0.5073,0.5618,0.6514,0.6934,0.6911,0.7421,0.8887,1.004,1.0242,1.0661,1.1524,1.1819,1.2128,1.3243,1.376,1.3339,1.3089,1.3485,1.3382,1.272,1.3191,1.4378,1.543,1.6482,1.709,1.74,1.8328,1.8809,1.921,1.9238,1.9396,1.9851,2.0302,2.1178,2.2076,2.2773,2.3374,2.3895,2.4467,2.487,2.5217,2.5693,2.5895,2.5826,2.5611,2.5277,2.4863,2.4576,2.476,2.5357,2.5709,2.5835,2.6297,2.6624,2.6808,2.6873,2.6841,2.6758,2.6758,2.6939,2.6906,2.6725,2.6906,2.6987,2.7036,2.7019,2.7115,2.7241,2.7303,2.7272,2.7178,2.7147,2.7192,2.7224,2.737,2.7496,2.7861,2.8318,2.9153,3.0146,3.0241,3.023,3.0467,3.0645,3.0767,3.0857,3.0817,3.0738,3.0706,3.0703,3.0711,3.075,3.081,3.0843,3.0843,3.0879,3.0918,3.0898,3.0898,3.0898,3.0898,3.0957,3.1016,3.0996,3.113,3.1342,-0.4982,-0.2465,-0.0111,0.2291,0.4333,0.4927,0.5085,0.5195,0.5864,0.6342,0.6686,0.7994,0.8475,0.8135,0.8564,0.9511,1.087,1.0828,1.1329,1.2594,1.2992,1.3304,1.4058,1.4464,1.474,1.4282,1.4838,1.4887,1.3022,1.3793,1.4821,1.5984,1.7289,1.7823,1.8036,1.8932,1.9642,1.9897,1.9902,1.989,2.0368,2.1175,2.2298,2.349,2.4225,2.4863,2.5347,2.5664,2.6092,2.6386,2.669,2.6871,2.6802,2.6785,2.6656,2.6334,2.577,2.6021,2.6352,2.6455,2.6455,2.6937,2.6954,2.7147,2.7272,2.721,2.7036,2.6987,2.7178,2.7334,2.7147,2.7241,2.7378,2.7426,2.7439,2.75,2.7678,2.7765,2.7736,2.753,2.721,2.7192,2.7422,2.7625,2.786,2.8031,2.8482,2.9092,2.9906,3.0034,3.013,3.0425,3.0639,3.0753,3.082,3.0843,3.0767,3.0701,3.0703,3.0695,3.0754,3.0827,3.0856,3.0879,3.0879,3.0918,3.0898,3.0847,3.082,3.0801,3.084,3.0855,3.0851,3.0824,3.0914,-0.3796,0.3429,0.3766,0.4219,0.4768,0.6228,0.6928,0.7031,0.7811,0.8306,0.8371,0.9165,0.929,0.8825,0.862,1.02,1.1403,1.1512,1.2227,1.4195,1.4364,1.4885,1.5833,1.5449,1.612,1.5982,1.592,1.3637,1.31,1.5345,1.6874,1.7487,1.8052,1.8499,1.8744,1.9474,1.9845,2.0386,2.0518,2.0887,2.1514,2.216,2.2891,2.3796,2.4799,2.577,2.6267,2.6522,2.6787,2.7465,2.7648,2.7736,2.7736,2.7718,2.7718,2.74,2.6908,2.6436,2.6957,2.7037,2.7103,2.7495,2.7678,2.7765,2.7725,2.7736,2.7678,2.7754,2.7811,2.7754,2.7648,2.7783,2.7823,2.7851,2.7862,2.788,2.7992,2.8298,2.8246,2.8156,2.7872,2.7862,2.7946,2.8121,2.8288,2.8424,2.8664,2.9267,2.972,2.9924,3.0125,3.044,3.0585,3.0691,3.0739,3.0754,3.0734,3.0687,3.0683,3.0678,3.0723,3.0782,3.0877,3.0898,3.0918,3.0859,3.0781,3.0743,3.0707,3.0717,3.0734,3.0734,3.0712,3.0683,3.0641,0.1636,0.4567,0.5652,0.6078,0.6228,0.7528,0.8094,0.8239,0.8906,0.949,0.9898,1.0562,1.0498,1.0098,1.0183,1.0763,1.1556,1.189,1.3371,1.5508,1.5778,1.6409,1.7984,1.8531,1.8821,1.8236,1.8606,1.7942,1.6448,1.6254,1.7786,1.8833,1.9384,1.9761,1.9855,2.0409,2.085,2.1365,2.1883,2.2743,2.345,2.3923,2.4343,2.5142,2.5875,2.6556,2.7106,2.7291,2.743,2.788,2.7897,2.8084,2.8314,2.8424,2.8474,2.8706,2.8384,2.7942,2.7642,2.7657,2.784,2.7911,2.8012,2.7986,2.7974,2.8102,2.8084,2.788,2.8075,2.8112,2.8029,2.8075,2.8156,2.8237,2.8322,2.8428,2.8504,2.8718,2.8837,2.8694,2.8603,2.8609,2.8542,2.8492,2.8688,2.8915,2.903,2.9357,2.977,3.0037,3.026,3.0491,3.0568,3.0604,3.0637,3.065,3.0634,3.0604,3.0621,3.0648,3.0664,3.0731,3.084,3.0898,3.0918,3.084,3.0703,3.0675,3.0695,3.0646,3.0607,3.0625,3.0645,3.0633,3.0583,0.7972,0.7342,0.8199,0.837,0.822,0.9467,1.0194,1.0319,1.0838,1.13,1.174,1.2192,1.2195,1.22,1.2565,1.2921,1.3402,1.3772,1.543,1.6806,1.7601,1.8507,1.9649,2.0725,2.0496,2.0132,2.0784,2.0446,1.963,1.9381,2.0091,2.0617,2.1202,2.1367,2.1564,2.2183,2.2802,2.3051,2.3662,2.4471,2.519,2.5488,2.5965,2.6551,2.7065,2.7479,2.8076,2.8182,2.8208,2.8406,2.8456,2.8717,2.8997,2.903,2.9142,2.9302,2.9206,2.8975,2.8615,2.8476,2.842,2.8445,2.8463,2.8644,2.8512,2.8591,2.8688,2.8506,2.8646,2.8621,2.8492,2.8664,2.8759,2.8856,2.8927,2.9045,2.9148,2.9214,2.9297,2.9217,2.9198,2.9359,2.9221,2.8964,2.9049,2.9357,2.9513,2.957,2.9832,3.0155,3.0324,3.0525,3.0537,3.0568,3.0595,3.0591,3.053,3.0509,3.056,3.0595,3.0632,3.0707,3.0817,3.0859,3.0918,3.0801,3.0664,3.0665,3.066,3.0582,3.0518,3.0552,3.0564,3.0564,3.0544,1.4314,1.462,1.2715,1.13,1.0401,1.2813,1.3983,1.3938,1.4114,1.435,1.4551,1.42,1.4762,1.5459,1.5432,1.6616,1.9858,1.7748,1.8768,1.997,2.0525,2.101,2.1747,2.1727,2.124,2.1766,2.2378,2.2488,2.2525,2.2621,2.3094,2.3402,2.326,2.33,2.3538,2.4126,2.4862,2.5083,2.5497,2.5782,2.6281,2.6595,2.6976,2.7508,2.8345,2.9012,2.901,2.8987,2.9084,2.9361,2.9326,2.9435,2.9587,2.9586,2.9666,2.9739,2.9744,2.9569,2.9418,2.9299,2.9379,2.9495,2.9476,2.9382,2.9283,2.9458,2.9532,2.9381,2.9322,2.94,2.9439,2.9588,2.94,2.9399,2.938,2.9439,2.9514,2.957,2.9624,2.9661,2.9696,2.9748,2.9815,2.9513,2.9401,2.9661,2.9754,2.9823,3.0015,3.0279,3.0369,3.0506,3.0525,3.0543,3.0582,3.0548,3.0532,3.0505,3.0498,3.0544,3.0595,3.0687,3.0784,3.0879,3.0898,3.0781,3.0672,3.0653,3.0598,3.0467,3.0417,3.0467,3.0506,3.0506,3.0487,1.6335,1.6204,1.6447,1.5235,1.3265,1.506,1.5798,1.5751,1.5922,1.6262,1.6689,1.7151,1.7916,1.8564,1.8972,2.0243,2.2918,2.1477,2.2123,2.2921,2.3409,2.3846,2.43,2.4499,2.4583,2.4523,2.436,2.4179,2.4369,2.5017,2.5761,2.5786,2.5323,2.5075,2.5362,2.5742,2.637,2.683,2.6911,2.7064,2.7611,2.761,2.7878,2.8542,2.8815,2.9381,2.9532,2.957,2.9699,2.9758,2.9786,2.9909,3.0041,3.0023,3.0035,3.0075,3.0062,3.0056,3.0018,2.9895,2.9832,2.9813,2.9763,2.9731,2.9765,2.9695,2.9695,2.9677,2.9731,2.9765,2.9713,2.9678,2.9662,2.9755,2.9822,2.9842,2.9861,2.9915,2.9883,2.9886,2.988,2.9908,3.0003,3.0047,2.9973,2.9927,2.9988,3.0057,3.0234,3.0367,3.0475,3.0527,3.0546,3.0554,3.0593,3.0579,3.0556,3.0518,3.0471,3.0525,3.0587,3.066,3.0762,3.084,3.0898,3.0801,3.0695,3.0626,3.0563,3.046,3.041,3.0398,3.0417,3.0448,3.0417,1.8936,1.8782,1.9984,1.8856,1.6494,1.7556,1.803,1.7866,1.7694,1.7785,1.82,1.9625,2.082,2.1461,2.1979,2.308,2.4379,2.3818,2.4186,2.4651,2.5114,2.5866,2.6658,2.6959,2.6575,2.6799,2.6733,2.6378,2.5612,2.632,2.6983,2.7326,2.7293,2.6927,2.6503,2.7017,2.7565,2.7967,2.8136,2.8257,2.8805,2.8829,2.8839,2.9441,2.9616,2.9773,2.9967,3.0023,3.004,3.0057,3.0051,3.0129,3.0233,3.03,3.0303,3.0334,3.0335,3.0342,3.0292,3.0242,3.015,3.0109,3.0018,2.9943,2.9896,2.9896,2.9958,2.9962,2.9965,2.9934,2.9915,3.0019,3.0072,3.016,3.0234,3.0252,3.0215,3.0218,3.0161,3.0117,3.0138,3.0213,3.024,3.0331,3.0272,3.0232,3.027,3.0324,3.0414,3.051,3.0549,3.0577,3.0597,3.0588,3.0608,3.0607,3.0595,3.0559,3.054,3.0568,3.0623,3.0668,3.0755,3.0859,3.0879,3.082,3.0725,3.0626,3.054,3.046,3.0429,3.0398,3.0398,3.0417,3.0417,2.2665,2.3258,2.3119,2.1585,1.9311,2.0426,2.1007,2.0878,2.002,1.9585,1.9963,2.1506,2.2925,2.3818,2.4203,2.4937,2.545,2.4628,2.4544,2.5467,2.5534,2.6362,2.7066,2.7466,2.7508,2.7655,2.759,2.7242,2.6785,2.7607,2.8227,2.85,2.8553,2.8454,2.756,2.8164,2.8722,2.9039,2.9161,2.9359,2.9631,2.9771,2.9904,2.9989,2.9996,3.0075,3.0155,3.0175,3.0175,3.0175,3.0193,3.0265,3.0378,3.0371,3.0386,3.0487,3.0482,3.0466,3.0414,3.0451,3.043,3.0367,3.0286,3.0292,3.033,3.0343,3.0305,3.0272,3.0331,3.04,3.0463,3.0494,3.0482,3.0501,3.055,3.0552,3.0472,3.0425,3.0364,3.0333,3.0467,3.0583,3.0583,3.0564,3.0533,3.0501,3.0552,3.0586,3.0599,3.0644,3.0684,3.0697,3.0697,3.0697,3.0697,3.0658,3.0613,3.0593,3.0607,3.0616,3.0651,3.0692,3.0769,3.0875,3.0846,3.0775,3.0691,3.0607,3.0528,3.0441,3.0429,3.0398,3.0398,3.0398,3.0398,2.253,2.2675,2.2675,2.2152,2.1427,2.2216,2.2482,2.2422,2.2639,2.2932,2.3516,2.4872,2.5629,2.5963,2.532,2.5524,2.614,2.4422,2.4283,2.5938,2.5349,2.6136,2.6866,2.7355,2.7693,2.8054,2.8171,2.8493,2.885,2.8809,2.8974,2.9285,2.9272,2.9504,2.9413,2.9687,2.9877,3.0023,2.9998,3.0015,3.0218,3.0194,3.0152,3.0162,3.0012,2.9978,3.0055,3.0056,3.0085,3.0075,3.0074,3.0162,3.0317,3.0314,3.0374,3.0498,3.0549,3.0526,3.0506,3.0541,3.058,3.0563,3.0524,3.0516,3.0537,3.0525,3.0544,3.0525,3.0537,3.0565,3.0585,3.0579,3.0574,3.0623,3.0645,3.0653,3.0628,3.0581,3.0529,3.0537,3.0607,3.0711,3.075,3.0893,3.0883,3.067,3.0672,3.0672,3.0673,3.0781,3.084,3.082,3.0825,3.0808,3.0788,3.0735,3.0679,3.0657,3.0645,3.0675,3.07,3.0694,3.072,3.0778,3.075,3.0732,3.0649,3.0568,3.0492,3.0452,3.041,3.0398,3.0398,3.0398,3.0398,2.1639,2.1322,2.1727,2.1871,2.1989,2.268,2.2879,2.3009,2.4375,2.5327,2.5634,2.6246,2.6607,2.6241,2.5236,2.4603,2.5332,2.3188,2.2721,2.4505,2.3764,2.4576,2.5789,2.6861,2.7585,2.8176,2.8589,2.8934,2.9593,2.8924,2.8991,2.9373,2.9407,2.9375,2.9677,3.003,3.0297,3.036,3.0287,3.0278,3.0305,3.0217,3.0104,2.9994,2.9832,2.9655,2.9661,2.9717,2.979,2.9773,2.9842,2.9975,3.019,3.0321,3.034,3.0487,3.051,3.0521,3.0559,3.0575,3.0618,3.0601,3.0559,3.0545,3.054,3.051,3.0535,3.0558,3.0597,3.0627,3.0634,3.0626,3.0726,3.0775,3.089,3.0888,3.0952,3.093,3.1172,3.1113,3.1319,3.1274,3.1109,3.1146,3.1261,3.1011,3.0781,3.077,3.0762,3.082,3.0898,3.0879,3.0878,3.0859,3.0817,3.0781,3.0732,3.0704,3.0691,3.0682,3.0659,3.0652,3.0651,3.0658,3.0653,3.0636,3.0569,3.0511,3.0447,3.0421,3.041,3.0398,3.0398,3.0398,3.0398,2.0285,1.954,2.0515,2.1029,2.1211,2.2277,2.2773,2.312,2.531,2.6227,2.6189,2.5645,2.5687,2.5584,2.3329,2.2286,2.2059,2.028,2.0572,2.1036,2.1044,2.2689,2.4377,2.5624,2.6595,2.7847,2.8308,2.8038,2.944,2.8452,2.8398,2.8883,2.844,2.8608,2.9081,2.957,2.9888,2.9994,3.015,3.0049,2.991,2.9966,2.9747,2.9587,2.9438,2.9245,2.9245,2.9342,2.9458,2.9549,2.9704,3.0013,3.0235,3.0367,3.0367,3.0386,3.0374,3.041,3.0417,3.0441,3.0475,3.0436,3.042,3.0401,3.0469,3.0503,3.0535,3.0576,3.0617,3.0637,3.0664,3.0798,3.0918,3.1034,3.1191,3.1263,3.1352,3.1538,3.1912,3.2164,3.2543,3.2533,3.2108,3.2015,3.1871,3.1382,3.1129,3.0901,3.0873,3.0801,3.084,3.084,3.0841,3.0856,3.0813,3.0759,3.0715,3.0664,3.0639,3.0638,3.0604,3.0598,3.0607,3.0615,3.0597,3.0554,3.0499,3.0469,3.0414,3.0398,3.0398,3.0398,3.0398,3.0398,3.0398,1.8152,1.8517,1.8906,1.9948,2.1703,2.3715,2.5013,2.5778,2.7038,2.7401,2.7022,2.5614,2.469,2.4557,2.086,1.9767,1.8733,1.7892,1.8016,1.8338,1.895,2.0998,2.2618,2.3915,2.5009,2.5773,2.6252,2.6421,2.7026,2.6736,2.683,2.7236,2.7098,2.7319,2.7727,2.8259,2.8704,2.9196,2.9448,2.9481,2.9343,2.9302,2.9082,2.8879,2.881,2.8615,2.8561,2.8938,2.903,2.8887,2.9135,2.9456,2.9864,2.9915,2.9946,3.0089,3.007,3.0042,2.9965,2.9877,2.9977,3.0228,3.0224,3.0326,3.0449,3.06,3.0589,3.0567,3.0759,3.0877,3.0834,3.0886,3.1261,3.1607,3.1938,3.2411,3.2466,3.2465,3.2805,3.3147,3.3514,3.3383,3.2991,3.2869,3.2666,3.1983,3.1467,3.1188,3.0938,3.0833,3.0769,3.0781,3.0759,3.0754,3.07,3.0646,3.0643,3.0616,3.0588,3.0588,3.0586,3.0576,3.0579,3.0537,3.0491,3.0467,3.0441,3.0417,3.0398,3.0398,3.0398,3.0398,3.0398,3.0398,3.0398,1.5365,1.5765,1.7187,1.9224,2.1609,2.3463,2.4729,2.57,2.6693,2.6557,2.5194,2.3462,2.2486,2.1401,1.8343,1.6637,1.6497,1.5558,1.5608,1.6708,1.7188,1.9363,2.1009,2.2188,2.3132,2.3881,2.4288,2.4358,2.4713,2.4548,2.4551,2.5511,2.5493,2.5717,2.6051,2.6342,2.6851,2.7672,2.8371,2.8648,2.8669,2.8626,2.8453,2.8138,2.8094,2.7958,2.7982,2.8489,2.8615,2.8609,2.8943,2.9332,2.9661,2.9713,2.9731,2.9877,2.9858,2.981,2.9765,2.9693,2.9893,3.017,3.0352,3.0715,3.08,3.091,3.0714,3.0587,3.0928,3.1142,3.1036,3.1039,3.1678,3.227,3.3006,3.3742,3.3674,3.3519,3.3743,3.4064,3.4116,3.4017,3.3875,3.3781,3.3267,3.2264,3.1615,3.1309,3.0967,3.0704,3.0679,3.0665,3.0653,3.0649,3.0579,3.0529,3.0511,3.051,3.0513,3.0524,3.0525,3.0506,3.0463,3.039,3.033,3.0318,3.0318,3.0386,3.0398,3.0367,3.0343,3.0355,3.0367,3.0398,3.0398,1.2525,1.2425,1.5829,1.8962,2.1126,2.2004,2.2814,2.3661,2.4519,2.4026,2.2217,2.0337,1.9261,1.8346,1.5728,1.424,1.4157,1.3714,1.4174,1.5371,1.6137,1.7991,1.9965,2.0757,2.1843,2.2673,2.292,2.2542,2.225,2.2448,2.3085,2.3707,2.3512,2.3787,2.4527,2.4765,2.5324,2.6162,2.7287,2.8013,2.8121,2.8255,2.8336,2.7816,2.7606,2.749,2.778,2.8166,2.8511,2.8777,2.9107,2.9395,2.957,2.9696,2.9713,2.9661,2.966,2.9607,2.9645,2.9683,3.0152,3.0547,3.096,3.1298,3.14,3.1393,3.1207,3.113,3.1456,3.1629,3.1572,3.1636,3.2083,3.287,3.369,3.4074,3.4021,3.4035,3.4309,3.4584,3.4721,3.4634,3.4578,3.4457,3.4083,3.2786,3.2228,3.1942,3.1223,3.0868,3.0656,3.0652,3.0554,3.0528,3.0507,3.0449,3.0414,3.04,3.0369,3.0299,3.0199,3.0234,3.0311,3.0202,3.0085,3.0161,3.0188,3.0202,3.0202,3.0202,3.0202,3.0286,3.0318,3.0273,3.0286,1.1693,1.4328,1.8082,2.014,2.0765,2.1775,2.177,2.1258,2.0961,2.1426,2.1512,1.9337,1.7493,1.6278,1.3811,1.2392,1.2238,1.2887,1.3398,1.471,1.5665,1.7312,1.9455,1.9891,2.0724,2.1254,2.1288,2.0877,2.0948,2.1374,2.1801,2.2147,2.208,2.2497,2.3327,2.3595,2.4331,2.5057,2.5957,2.6874,2.712,2.7426,2.7544,2.7189,2.694,2.7034,2.7382,2.7956,2.8112,2.8272,2.8803,2.9163,2.9435,2.9607,2.9607,2.9513,2.9435,2.9353,2.9471,2.9684,3.0172,3.0714,3.1171,3.167,3.1921,3.1974,3.1977,3.1933,3.196,3.2093,3.2245,3.2345,3.2593,3.3483,3.4204,3.4243,3.4281,3.4545,3.4807,3.499,3.519,3.5209,3.5144,3.4941,3.4609,3.4218,3.3866,3.3288,3.2025,3.1341,3.0845,3.074,3.0482,3.0429,3.0369,3.0286,3.0194,3.0104,3.0041,2.9977,2.9896,2.9912,2.9962,2.988,2.9815,2.988,2.9912,2.9848,2.9864,2.9943,2.9958,3.0022,2.9977,2.9931,2.9988,1.1467,1.3793,1.7554,1.9226,1.9407,2.0221,2.0099,1.9253,1.8775,1.8961,1.9384,1.7631,1.6126,1.5008,1.2797,1.166,1.1714,1.2378,1.3478,1.4636,1.5712,1.7081,1.823,1.8895,1.9028,1.9492,1.9233,1.9101,1.9672,1.9965,2.028,2.0518,2.0693,2.1372,2.2159,2.2884,2.3616,2.4405,2.5051,2.5524,2.6101,2.6637,2.6995,2.6725,2.6708,2.6807,2.7352,2.7918,2.8156,2.8378,2.8863,2.8998,2.9203,2.9312,2.9293,2.9188,2.9093,2.9044,2.9277,2.9639,3.0184,3.083,3.1483,3.198,3.273,3.2754,3.2562,3.2524,3.2694,3.2826,3.3072,3.3204,3.3564,3.4264,3.4225,3.4112,3.4396,3.4755,3.4923,3.5047,3.5157,3.5136,3.512,3.512,3.4734,3.4121,3.4016,3.3748,3.2642,3.1833,3.1327,3.082,3.0581,3.0242,3.0026,2.9962,2.9915,2.9832,2.9676,2.9746,2.9729,2.9625,2.957,2.9551,2.957,2.9643,2.9643,2.9532,2.966,2.9799,2.9782,2.9748,2.9642,2.9533,2.9569,1.1786,1.2679,1.6131,1.7633,1.7633,1.8035,1.7915,1.7324,1.7047,1.661,1.6198,1.5725,1.4637,1.3708,1.2789,1.2268,1.2145,1.2487,1.3552,1.4625,1.5618,1.671,1.7301,1.7711,1.7984,1.8178,1.8112,1.8112,1.8317,1.8943,1.9386,1.9097,1.9562,2.0399,2.1257,2.1883,2.2521,2.3606,2.4318,2.461,2.5289,2.6108,2.6501,2.6668,2.674,2.7062,2.7526,2.788,2.8228,2.8482,2.87,2.8773,2.8797,2.885,2.8845,2.8749,2.8775,2.8971,2.9286,2.9612,3.0374,3.1118,3.1763,3.2448,3.3146,3.3256,3.3059,3.3069,3.321,3.3254,3.3479,3.3571,3.3968,3.4137,3.3872,3.3794,3.4201,3.466,3.4832,3.4925,3.4962,3.4943,3.5034,3.5053,3.4729,3.4101,3.372,3.3358,3.2942,3.2419,3.1895,3.1235,3.0707,3.0315,2.9773,2.9607,2.9551,2.9286,2.9167,2.942,2.957,2.9397,2.9316,2.9301,2.9341,2.926,2.9221,2.9142,2.9323,2.9439,2.9322,2.9182,2.9098,2.9008,2.9089,1.2739,1.4809,1.6802,1.7578,1.7401,1.6444,1.5877,1.5533,1.4455,1.376,1.3862,1.3647,1.3177,1.2714,1.1189,1.0901,1.2001,1.253,1.3325,1.435,1.5625,1.6346,1.6746,1.7011,1.749,1.7578,1.7786,1.8328,1.785,1.8732,1.9527,1.9463,1.9579,2.0194,2.0861,2.1429,2.207,2.3051,2.3595,2.3971,2.4744,2.5554,2.6274,2.6445,2.6503,2.6725,2.6971,2.7255,2.7439,2.7747,2.8192,2.8342,2.836,2.8412,2.8412,2.8443,2.8485,2.8887,2.926,2.9951,3.0786,3.1479,3.212,3.2775,3.3223,3.335,3.3195,3.3117,3.3124,3.2776,3.2813,3.2543,3.271,3.2636,3.2445,3.2815,3.3202,3.3817,3.4265,3.4338,3.4408,3.4555,3.4754,3.4773,3.4753,3.4338,3.4339,3.3979,3.3753,3.3146,3.2405,3.1648,3.0856,3.0054,2.9398,2.9246,2.9138,2.8828,2.8766,2.9163,2.931,2.9134,2.9052,2.8911,2.8759,2.8615,2.8621,2.8699,2.8627,2.8693,2.864,2.856,2.8511,2.8492,2.8609]},{"header":{"parameterUnit":"m.s-1","parameterCategory":1,"la1":31.0,"la2":29.5877,"lo1":-88.7671,"lo2":-86.6584,"dy":0.0162,"dx":0.0185,"nx":115,"ny":88,"refTime":"2023-09-24T00:00:00:Z","depth":0,"parameterNumber":3,"parameterNumberName":"V-component_of_WINDS"},"data":[0.0,0.0,0.0,0.0,0.0,0.0,0.0,0.0,0.0,0.0,0.0,0.0,0.0,0.0,0.0,0.0,0.0,0.0,0.0,0.0,0.0,0.0,0.0,0.0,0.0,0.0,0.0,0.0,0.0,0.0,0.0,0.0,0.0,0.0,0.0,0.0,0.0,0.0,0.0,0.0,0.0,0.0,0.0,0.0,0.0,0.0,0.0,0.0,0.0,0.0,0.0,0.0,0.0,0.0,0.0,0.0,0.0,0.0,0.0,0.0,0.0,0.0,0.0,0.0,0.0,0.0,0.0,0.0,0.0,0.0,0.0,0.0,0.0,0.0,0.0,0.0,0.0,0.0,0.0,0.0,0.0,0.0,0.0,0.0,0.0,0.0,0.0,0.0,0.0,0.0,0.0,0.0,0.0,0.0,0.0,0.0,0.0,0.0,0.0,0.0,0.0,0.0,0.0,0.0,0.0,0.0,0.0,0.0,0.0,0.0,0.0,0.0,0.0,0.0,0.0,0.0,0.0,0.0,0.0,0.0,0.0,0.0,0.0,0.0,0.0,0.0,0.0,0.0,0.0,0.0,0.0,0.0,0.0,0.0,0.0,0.0,0.0,0.0,0.0,0.0,0.0,0.0,0.0,0.0,0.0,0.0,0.0,0.0,0.0,0.0,0.0,0.0,0.0,0.0,0.0,0.0,0.0,0.0,0.0,0.0,0.0,0.0,0.0,0.0,0.0,0.0,0.0,0.0,0.0,0.0,0.0,0.0,0.0,0.0,0.0,0.0,0.0,0.0,0.0,0.0,0.0,0.0,0.0,0.0,0.0,0.0,0.0,0.0,0.0,0.0,0.0,0.0,0.0,0.0,0.0,0.0,0.0,0.0,0.0,0.0,0.0,0.0,0.0,0.0,0.0,0.0,0.0,0.0,0.0,0.0,0.0,0.0,0.0,0.0,0.0,0.0,0.0,0.0,0.0,0.0,0.0,0.0,0.0,0.0,0.0,0.0,0.0,0.0,0.0,0.0,0.0,0.0,0.0,0.0,0.0,0.0,0.0,0.0,0.0,0.0,0.0,0.0,0.0,0.0,0.0,0.0,0.0,0.0,0.0,0.0,0.0,0.0,0.0,0.0,0.0,0.0,0.0,0.0,0.0,0.0,0.0,0.0,0.0,0.0,0.0,0.0,0.0,0.0,0.0,0.0,0.0,0.0,0.0,0.0,0.0,0.0,0.0,0.0,0.0,0.0,0.0,0.0,0.0,0.0,0.0,0.0,0.0,0.0,0.0,0.0,0.0,0.0,0.0,0.0,0.0,0.0,0.0,0.0,0.0,0.0,0.0,0.0,0.0,0.0,0.0,0.0,0.0,0.0,0.0,0.0,0.0,0.0,0.0,0.0,0.0,0.0,0.0,0.0,0.0,0.0,0.0,0.0,0.0,0.0,0.0,0.0,0.0,0.0,0.0,0.0,0.0,0.0,0.0,0.0,0.0,0.0,0.0,0.0,0.0,0.0,0.0,0.0,0.0,0.0,0.0,0.0,0.0,0.0,0.0,0.0,0.0,0.0,0.0,0.0,0.0,0.0,0.0,0.0,0.0,0.0,0.0,0.0,0.0,0.0,0.0,0.0,0.0,0.0,0.0,0.0,0.0,0.0,0.0,0.0,0.0,0.0,0.0,0.0,0.0,0.0,0.0,0.0,0.0,0.0,0.0,0.0,0.0,0.0,0.0,0.0,0.0,0.0,0.0,0.0,0.0,0.0,0.0,0.0,0.0,0.0,0.0,0.0,0.0,0.0,0.0,0.0,0.0,0.0,0.0,0.0,0.0,0.0,0.0,0.0,0.0,0.0,0.0,0.0,0.0,0.0,0.0,0.0,0.0,0.0,0.0,0.0,0.0,0.0,0.0,0.0,0.0,0.0,0.0,0.0,0.0,0.0,0.0,0.0,0.0,0.0,0.0,0.0,0.0,0.0,0.0,0.0,0.0,0.0,0.0,0.0,0.0,0.0,0.0,0.0,0.0,0.0,0.0,0.0,0.0,0.0,0.0,0.0,0.0,0.0,0.0,0.0,0.0,0.0,0.0,0.0,0.0,0.0,0.0,0.0,0.0,0.0,0.0,0.0,0.0,0.0,0.0,0.0,0.0,0.0,0.0,0.0,0.0,0.0,0.0,0.0,0.0,0.0,0.0,0.0,0.0,0.0,0.0,0.0,0.0,0.0,0.0,0.0,0.0,0.0,0.0,0.0,0.0,0.0,0.0,0.0,0.0,0.0,0.0,0.0,0.0,0.0,0.0,0.0,0.0,0.0,0.0,0.0,0.0,0.0,0.0,0.0,0.0,0.0,0.0,0.0,0.0,0.0,0.0,0.0,0.0,0.0,0.0,0.0,0.0,0.0,0.0,0.0,0.0,0.0,0.0,0.0,0.0,0.0,0.0,0.0,0.0,0.0,0.0,0.0,0.0,0.0,0.0,0.0,0.0,0.0,0.0,0.0,0.0,0.0,0.0,0.0,0.0,0.0,0.0,0.0,0.0,0.0,0.0,0.0,0.0,0.0,0.0,0.0,0.0,0.0,0.0,0.0,0.0,0.0,0.0,0.0,0.0,0.0,0.0,0.0,0.0,0.0,0.0,0.0,0.0,0.0,0.0,0.0,0.0,0.0,0.0,0.0,0.0,0.0,0.0,0.0,0.0,0.0,0.0,0.0,0.0,0.0,0.0,0.0,0.0,0.0,0.0,0.0,0.0,0.0,0.0,0.0,0.0,0.0,0.0,0.0,0.0,0.0,0.0,0.0,0.0,0.0,0.0,0.0,0.0,0.0,0.0,0.0,0.0,0.0,0.0,0.0,0.0,0.0,0.0,0.0,0.0,0.0,0.0,0.0,0.0,0.0,0.0,0.0,0.0,0.0,0.0,0.0,0.0,0.0,0.0,0.0,0.0,0.0,0.0,0.0,0.0,0.0,0.0,0.0,0.0,0.0,0.0,0.0,0.0,0.0,0.0,0.0,0.0,0.0,0.0,0.0,0.0,0.0,0.0,0.0,0.0,0.0,0.0,0.0,0.0,0.0,0.0,0.0,0.0,0.0,0.0,0.0,0.0,0.0,0.0,0.0,0.0,0.0,0.0,0.0,0.0,0.0,0.0,0.0,0.0,0.0,0.0,0.0,0.0,0.0,0.0,0.0,0.0,0.0,0.0,0.0,0.0,0.0,0.0,0.0,0.0,0.0,0.0,0.0,0.0,0.0,0.0,0.0,0.0,0.0,0.0,0.0,0.0,0.0,0.0,0.0,0.0,0.0,0.0,0.0,0.0,0.0,0.0,0.0,0.0,0.0,0.0,0.0,0.0,0.0,0.0,0.0,0.0,0.0,0.0,0.0,0.0,0.0,0.0,0.0,0.0,0.0,0.0,0.0,0.0,0.0,0.0,0.0,0.0,0.0,0.0,0.0,0.0,0.0,0.0,0.0,0.0,0.0,0.0,0.0,0.0,0.0,0.0,0.0,0.0,0.0,0.0,0.0,0.0,0.0,0.0,0.0,0.0,0.0,0.0,0.0,0.0,0.0,0.0,0.0,0.0,0.0,0.0,0.0,0.0,0.0,0.0,0.0,0.0,0.0,0.0,0.0,0.0,0.0,0.0,0.0,0.0,0.0,0.0,0.0,0.0,0.0,0.0,0.0,0.0,0.0,0.0,0.0,0.0,0.0,0.0,0.0,0.0,0.0,0.0,0.0,0.0,0.0,0.0,0.0,0.0,0.0,0.0,0.0,0.0,0.0,0.0,0.0,0.0,0.0,0.0,0.0,0.0,0.0,0.0,0.0,0.0,0.0,0.0,0.0,0.0,0.0,0.0,0.0,0.0,0.0,0.0,0.0,0.0,0.0,0.0,0.0,0.0,0.0,0.0,0.0,0.0,0.0,0.0,0.0,0.0,0.0,0.0,0.0,0.0,0.0,0.0,0.0,0.0,0.0,0.0,0.0,0.0,0.0,0.0,0.0,0.0,0.0,0.0,0.0,0.0,0.0,0.0,0.0,0.0,0.0,0.0,0.0,0.0,0.0,0.0,0.0,0.0,0.0,0.0,0.0,0.0,0.0,0.0,0.0,0.0,0.0,0.0,0.0,0.0,0.0,0.0,0.0,0.0,0.0,0.0,0.0,0.0,0.0,0.0,0.0,0.0,0.0,0.0,0.0,0.0,0.0,0.0,0.0,0.0,0.0,0.0,0.0,0.0,0.0,0.0,0.0,0.0,0.0,0.0,0.0,0.0,0.0,0.0,0.0,-2.4545,0.0,0.0,0.0,0.0,0.0,0.0,0.0,0.0,0.0,0.0,0.0,0.0,0.0,0.0,0.0,0.0,0.0,0.0,0.0,0.0,0.0,0.0,0.0,0.0,0.0,0.0,0.0,0.0,0.0,0.0,0.0,0.0,0.0,0.0,0.0,0.0,0.0,0.0,0.0,0.0,0.0,0.0,0.0,0.0,0.0,0.0,0.0,0.0,0.0,0.0,0.0,0.0,0.0,0.0,0.0,0.0,0.0,0.0,0.0,0.0,0.0,0.0,0.0,0.0,0.0,0.0,0.0,0.0,0.0,0.0,0.0,0.0,0.0,0.0,0.0,0.0,0.0,0.0,0.0,0.0,0.0,0.0,0.0,0.0,0.0,0.0,0.0,0.0,0.0,0.0,0.0,0.0,0.0,0.0,0.0,0.0,0.0,0.0,0.0,0.0,0.0,0.0,0.0,0.0,0.0,0.0,0.0,0.0,0.0,0.0,-2.3878,-2.4171,-2.419,-2.4284,-2.4495,0.0,0.0,0.0,0.0,0.0,0.0,0.0,0.0,0.0,0.0,0.0,0.0,0.0,0.0,0.0,0.0,0.0,0.0,0.0,0.0,0.0,0.0,0.0,0.0,0.0,0.0,0.0,0.0,0.0,0.0,0.0,0.0,0.0,0.0,0.0,0.0,0.0,0.0,0.0,0.0,0.0,0.0,0.0,0.0,0.0,0.0,0.0,0.0,0.0,0.0,0.0,0.0,0.0,0.0,0.0,0.0,0.0,0.0,0.0,0.0,0.0,0.0,0.0,0.0,0.0,0.0,0.0,0.0,0.0,0.0,0.0,0.0,0.0,0.0,0.0,0.0,0.0,0.0,0.0,0.0,0.0,0.0,0.0,0.0,0.0,0.0,0.0,0.0,0.0,0.0,0.0,0.0,0.0,0.0,0.0,0.0,0.0,0.0,0.0,0.0,0.0,0.0,0.0,0.0,0.0,0.0,0.0,0.0,0.0,0.0,0.0,0.0,-2.4281,-2.4321,-2.4578,0.0,0.0,0.0,0.0,0.0,0.0,0.0,0.0,0.0,0.0,0.0,0.0,0.0,0.0,0.0,0.0,0.0,0.0,0.0,0.0,0.0,0.0,0.0,0.0,0.0,0.0,0.0,0.0,0.0,0.0,0.0,0.0,0.0,0.0,0.0,0.0,0.0,0.0,0.0,0.0,0.0,0.0,0.0,0.0,0.0,0.0,0.0,0.0,0.0,0.0,0.0,0.0,0.0,0.0,0.0,0.0,0.0,0.0,0.0,0.0,0.0,0.0,0.0,0.0,0.0,0.0,0.0,0.0,0.0,0.0,0.0,0.0,0.0,0.0,0.0,0.0,0.0,0.0,0.0,0.0,0.0,0.0,0.0,0.0,0.0,0.0,0.0,0.0,0.0,0.0,0.0,0.0,0.0,0.0,0.0,0.0,0.0,0.0,0.0,0.0,0.0,0.0,0.0,0.0,0.0,0.0,0.0,0.0,0.0,0.0,-2.4206,-2.5236,-2.4575,0.0,-2.4727,0.0,0.0,0.0,0.0,0.0,0.0,0.0,0.0,0.0,0.0,0.0,0.0,0.0,0.0,0.0,0.0,0.0,0.0,0.0,0.0,0.0,0.0,0.0,0.0,0.0,0.0,0.0,0.0,0.0,0.0,0.0,0.0,0.0,0.0,0.0,0.0,0.0,0.0,0.0,0.0,0.0,0.0,0.0,0.0,0.0,0.0,0.0,0.0,0.0,0.0,0.0,0.0,0.0,0.0,0.0,0.0,0.0,0.0,0.0,0.0,0.0,0.0,0.0,0.0,0.0,0.0,0.0,0.0,0.0,0.0,0.0,0.0,0.0,0.0,0.0,0.0,0.0,0.0,0.0,0.0,0.0,0.0,0.0,0.0,0.0,0.0,0.0,0.0,0.0,0.0,0.0,0.0,0.0,0.0,0.0,0.0,0.0,0.0,0.0,0.0,0.0,0.0,0.0,0.0,0.0,0.0,0.0,0.0,0.0,0.0,-2.3934,-2.439,-2.4258,-2.4134,0.0,0.0,0.0,0.0,0.0,0.0,0.0,0.0,0.0,0.0,0.0,0.0,0.0,0.0,0.0,0.0,0.0,0.0,0.0,0.0,0.0,0.0,0.0,0.0,0.0,0.0,0.0,0.0,0.0,0.0,0.0,0.0,0.0,0.0,0.0,0.0,0.0,0.0,0.0,0.0,0.0,0.0,0.0,0.0,0.0,0.0,0.0,0.0,0.0,0.0,0.0,0.0,0.0,0.0,0.0,0.0,0.0,0.0,0.0,0.0,0.0,0.0,0.0,0.0,0.0,0.0,0.0,0.0,0.0,0.0,0.0,0.0,0.0,0.0,0.0,0.0,0.0,0.0,0.0,0.0,0.0,0.0,0.0,0.0,0.0,0.0,0.0,0.0,0.0,0.0,0.0,0.0,0.0,0.0,0.0,0.0,0.0,0.0,0.0,0.0,0.0,0.0,0.0,0.0,0.0,0.0,0.0,0.0,0.0,0.0,-2.3155,-2.3418,-2.3508,-2.3526,-2.3615,-2.3837,0.0,0.0,0.0,0.0,0.0,0.0,0.0,0.0,0.0,0.0,0.0,0.0,0.0,0.0,0.0,0.0,0.0,0.0,0.0,0.0,0.0,0.0,0.0,0.0,0.0,0.0,0.0,0.0,0.0,0.0,0.0,0.0,0.0,0.0,0.0,0.0,0.0,0.0,0.0,0.0,0.0,0.0,0.0,0.0,0.0,0.0,0.0,0.0,0.0,0.0,0.0,0.0,0.0,0.0,0.0,0.0,0.0,0.0,0.0,0.0,0.0,0.0,0.0,0.0,0.0,0.0,0.0,0.0,0.0,0.0,0.0,0.0,0.0,0.0,0.0,0.0,0.0,0.0,0.0,0.0,0.0,0.0,0.0,0.0,0.0,0.0,0.0,0.0,0.0,0.0,0.0,0.0,0.0,0.0,0.0,0.0,0.0,0.0,0.0,0.0,0.0,0.0,0.0,0.0,0.0,0.0,0.0,0.0,-2.3551,-2.2914,-2.2691,-2.2978,-2.2318,-2.2796,0.0,0.0,0.0,0.0,0.0,0.0,0.0,0.0,0.0,0.0,0.0,0.0,0.0,0.0,0.0,0.0,0.0,0.0,0.0,0.0,0.0,0.0,0.0,0.0,0.0,0.0,0.0,0.0,0.0,0.0,0.0,0.0,0.0,0.0,0.0,0.0,0.0,0.0,0.0,0.0,0.0,0.0,0.0,0.0,0.0,0.0,0.0,0.0,0.0,0.0,0.0,0.0,0.0,0.0,0.0,0.0,0.0,0.0,0.0,0.0,0.0,0.0,0.0,0.0,0.0,0.0,0.0,0.0,0.0,0.0,0.0,0.0,0.0,0.0,0.0,0.0,0.0,0.0,0.0,0.0,0.0,0.0,0.0,0.0,0.0,0.0,0.0,0.0,0.0,0.0,0.0,0.0,0.0,0.0,0.0,0.0,0.0,0.0,0.0,0.0,0.0,0.0,0.0,0.0,0.0,0.0,0.0,0.0,0.0,-2.1842,-2.1674,-2.171,-2.1969,-2.2643,-2.3069,0.0,0.0,0.0,0.0,0.0,0.0,0.0,0.0,0.0,0.0,0.0,0.0,0.0,0.0,0.0,0.0,0.0,0.0,0.0,0.0,0.0,0.0,0.0,0.0,0.0,0.0,0.0,0.0,0.0,0.0,0.0,0.0,0.0,0.0,0.0,0.0,0.0,0.0,0.0,0.0,0.0,0.0,0.0,0.0,0.0,0.0,0.0,0.0,0.0,0.0,0.0,0.0,0.0,0.0,0.0,0.0,0.0,0.0,0.0,0.0,0.0,0.0,0.0,0.0,0.0,0.0,0.0,0.0,0.0,0.0,0.0,0.0,0.0,0.0,0.0,0.0,0.0,0.0,0.0,0.0,0.0,0.0,0.0,0.0,0.0,0.0,0.0,0.0,0.0,0.0,0.0,0.0,0.0,0.0,0.0,0.0,0.0,0.0,0.0,0.0,0.0,0.0,0.0,0.0,0.0,0.0,0.0,0.0,0.0,-2.017,0.0,-1.9996,-2.0836,-2.1862,-2.2502,0.0,0.0,0.0,0.0,0.0,0.0,0.0,0.0,0.0,0.0,0.0,0.0,0.0,0.0,0.0,0.0,0.0,0.0,0.0,0.0,0.0,0.0,0.0,0.0,0.0,0.0,0.0,0.0,0.0,0.0,0.0,0.0,0.0,0.0,0.0,0.0,0.0,0.0,0.0,0.0,0.0,0.0,0.0,0.0,0.0,0.0,0.0,0.0,0.0,0.0,0.0,0.0,0.0,0.0,0.0,0.0,0.0,0.0,0.0,0.0,0.0,0.0,0.0,0.0,0.0,0.0,0.0,0.0,0.0,0.0,0.0,0.0,0.0,0.0,0.0,0.0,0.0,0.0,0.0,0.0,0.0,0.0,0.0,0.0,0.0,0.0,0.0,0.0,0.0,0.0,0.0,0.0,0.0,0.0,0.0,0.0,0.0,0.0,0.0,0.0,0.0,0.0,0.0,0.0,0.0,0.0,0.0,0.0,-2.1,-1.8886,-1.7363,-1.7642,-1.9597,-1.9799,-2.0934,0.0,0.0,0.0,0.0,0.0,0.0,0.0,0.0,0.0,0.0,0.0,0.0,0.0,0.0,0.0,0.0,0.0,0.0,0.0,0.0,0.0,0.0,0.0,0.0,0.0,0.0,0.0,0.0,0.0,0.0,0.0,0.0,0.0,0.0,0.0,0.0,0.0,0.0,0.0,0.0,0.0,0.0,0.0,0.0,0.0,0.0,0.0,0.0,0.0,0.0,0.0,0.0,0.0,0.0,0.0,0.0,0.0,0.0,0.0,0.0,0.0,0.0,0.0,0.0,0.0,0.0,0.0,0.0,0.0,0.0,0.0,0.0,0.0,0.0,0.0,0.0,0.0,0.0,0.0,0.0,0.0,0.0,0.0,0.0,0.0,0.0,0.0,0.0,0.0,0.0,0.0,0.0,0.0,0.0,0.0,0.0,0.0,0.0,0.0,0.0,0.0,0.0,0.0,0.0,0.0,0.0,0.0,0.0,0.0,-1.95,-1.7233,-1.7037,-1.9117,-1.9585,-2.0679,0.0,0.0,0.0,0.0,0.0,0.0,0.0,0.0,0.0,0.0,0.0,0.0,0.0,0.0,0.0,0.0,0.0,0.0,0.0,0.0,0.0,0.0,0.0,0.0,0.0,0.0,0.0,0.0,0.0,0.0,0.0,0.0,0.0,0.0,0.0,0.0,0.0,0.0,0.0,0.0,0.0,0.0,0.0,0.0,0.0,0.0,0.0,0.0,0.0,0.0,0.0,0.0,0.0,0.0,0.0,0.0,0.0,0.0,0.0,0.0,0.0,0.0,0.0,0.0,0.0,0.0,0.0,0.0,0.0,0.0,0.0,0.0,0.0,0.0,0.0,0.0,0.0,0.0,0.0,0.0,0.0,0.0,0.0,0.0,0.0,0.0,0.0,0.0,0.0,0.0,0.0,0.0,0.0,0.0,0.0,0.0,0.0,0.0,0.0,0.0,0.0,0.0,0.0,0.0,0.0,0.0,0.0,0.0,0.0,-1.8176,-1.617,-1.5919,-1.7721,-1.8831,-2.0001,-2.135,0.0,0.0,0.0,0.0,0.0,0.0,0.0,0.0,0.0,0.0,0.0,0.0,0.0,0.0,0.0,0.0,0.0,0.0,0.0,0.0,0.0,0.0,0.0,0.0,0.0,0.0,0.0,0.0,0.0,0.0,0.0,0.0,0.0,0.0,0.0,0.0,0.0,0.0,0.0,0.0,0.0,0.0,0.0,0.0,0.0,0.0,0.0,0.0,0.0,0.0,0.0,0.0,0.0,0.0,0.0,0.0,0.0,0.0,0.0,0.0,0.0,0.0,0.0,0.0,0.0,0.0,0.0,0.0,0.0,0.0,0.0,0.0,0.0,0.0,0.0,0.0,0.0,0.0,0.0,0.0,0.0,0.0,0.0,0.0,0.0,0.0,0.0,0.0,0.0,0.0,0.0,0.0,0.0,0.0,0.0,0.0,0.0,0.0,0.0,0.0,0.0,0.0,0.0,0.0,0.0,0.0,0.0,0.0,-1.5373,-1.4347,-1.4465,-1.5834,-1.7646,-1.9004,0.0,0.0,0.0,0.0,0.0,0.0,0.0,0.0,0.0,0.0,0.0,0.0,0.0,0.0,0.0,0.0,0.0,0.0,0.0,0.0,0.0,0.0,0.0,0.0,0.0,0.0,0.0,0.0,0.0,0.0,0.0,0.0,0.0,0.0,0.0,0.0,0.0,0.0,0.0,0.0,0.0,0.0,0.0,0.0,0.0,0.0,0.0,0.0,0.0,0.0,0.0,0.0,0.0,0.0,0.0,0.0,0.0,0.0,0.0,0.0,0.0,0.0,0.0,0.0,0.0,0.0,0.0,0.0,0.0,0.0,0.0,0.0,0.0,0.0,0.0,0.0,0.0,0.0,0.0,0.0,0.0,0.0,0.0,0.0,0.0,0.0,0.0,0.0,0.0,0.0,0.0,0.0,0.0,0.0,0.0,0.0,0.0,0.0,0.0,0.0,0.0,0.0,0.0,0.0,0.0,0.0,0.0,0.0,0.0,-1.2582,-1.3327,-1.4811,-1.6878,-1.7288,-1.8254,0.0,0.0,0.0,0.0,0.0,0.0,0.0,0.0,0.0,0.0,0.0,0.0,0.0,0.0,0.0,0.0,0.0,0.0,0.0,0.0,0.0,0.0,0.0,0.0,0.0,0.0,0.0,0.0,0.0,0.0,0.0,0.0,0.0,0.0,0.0,0.0,0.0,0.0,0.0,0.0,0.0,0.0,0.0,0.0,0.0,0.0,0.0,0.0,0.0,0.0,0.0,0.0,0.0,0.0,0.0,0.0,0.0,0.0,0.0,0.0,0.0,0.0,0.0,0.0,0.0,0.0,0.0,0.0,0.0,0.0,0.0,0.0,0.0,0.0,0.0,0.0,0.0,0.0,0.0,0.0,0.0,0.0,0.0,0.0,0.0,0.0,0.0,0.0,0.0,0.0,0.0,0.0,0.0,0.0,0.0,0.0,0.0,0.0,0.0,0.0,0.0,0.0,0.0,0.0,0.0,0.0,0.0,0.0,-1.4242,-1.2049,-1.3444,-1.4945,-1.645,-1.6676,-1.7461,0.0,0.0,0.0,0.0,0.0,0.0,0.0,0.0,0.0,0.0,0.0,0.0,0.0,0.0,0.0,0.0,0.0,0.0,0.0,0.0,0.0,0.0,0.0,0.0,0.0,0.0,0.0,0.0,0.0,0.0,0.0,0.0,0.0,0.0,0.0,0.0,0.0,0.0,0.0,0.0,0.0,0.0,0.0,0.0,0.0,0.0,0.0,0.0,0.0,0.0,0.0,0.0,0.0,0.0,0.0,0.0,0.0,0.0,0.0,0.0,0.0,0.0,0.0,0.0,0.0,0.0,0.0,0.0,0.0,0.0,0.0,0.0,0.0,0.0,0.0,0.0,0.0,0.0,0.0,0.0,0.0,0.0,0.0,0.0,0.0,0.0,0.0,0.0,0.0,0.0,0.0,0.0,0.0,0.0,0.0,0.0,0.0,0.0,0.0,0.0,0.0,0.0,0.0,0.0,0.0,0.0,0.0,0.0,-1.3715,-1.2728,-1.4067,-1.492,-1.5193,-1.5971,-1.6812,0.0,0.0,0.0,0.0,0.0,0.0,0.0,0.0,0.0,0.0,0.0,0.0,0.0,0.0,0.0,0.0,0.0,0.0,0.0,0.0,0.0,0.0,0.0,0.0,0.0,0.0,0.0,0.0,0.0,0.0,0.0,0.0,0.0,0.0,0.0,0.0,0.0,0.0,0.0,0.0,0.0,0.0,0.0,0.0,0.0,0.0,0.0,0.0,0.0,0.0,0.0,0.0,0.0,0.0,0.0,0.0,0.0,0.0,0.0,0.0,0.0,0.0,0.0,0.0,0.0,0.0,0.0,0.0,0.0,0.0,0.0,0.0,0.0,0.0,0.0,0.0,0.0,0.0,0.0,0.0,0.0,0.0,0.0,0.0,0.0,0.0,0.0,0.0,0.0,0.0,0.0,0.0,0.0,0.0,0.0,0.0,0.0,0.0,0.0,0.0,0.0,0.0,0.0,0.0,0.0,0.0,0.0,0.0,-1.2367,-1.1463,-1.348,-1.4735,-1.5127,-1.5996,-1.6895,0.0,0.0,0.0,0.0,0.0,0.0,0.0,0.0,0.0,0.0,0.0,0.0,0.0,0.0,0.0,0.0,0.0,0.0,0.0,0.0,0.0,0.0,0.0,0.0,0.0,0.0,0.0,0.0,0.0,0.0,0.0,0.0,0.0,0.0,0.0,0.0,0.0,0.0,0.0,0.0,0.0,0.0,0.0,0.0,0.0,0.0,0.0,0.0,-1.8893,0.0,0.0,0.0,0.0,0.0,0.0,0.0,0.0,0.0,0.0,0.0,0.0,0.0,0.0,0.0,0.0,0.0,0.0,0.0,0.0,0.0,0.0,0.0,0.0,0.0,0.0,0.0,0.0,0.0,0.0,0.0,0.0,0.0,0.0,0.0,0.0,0.0,0.0,0.0,0.0,0.0,0.0,0.0,0.0,0.0,0.0,0.0,0.0,0.0,0.0,0.0,0.0,0.0,0.0,0.0,0.0,0.0,0.0,0.0,-1.2336,-1.2362,-1.3687,-1.455,-1.4877,-1.5407,-1.6561,0.0,0.0,0.0,0.0,0.0,0.0,0.0,0.0,0.0,0.0,0.0,0.0,0.0,0.0,0.0,0.0,0.0,0.0,0.0,0.0,0.0,0.0,0.0,0.0,0.0,0.0,0.0,0.0,0.0,0.0,0.0,0.0,0.0,0.0,0.0,0.0,0.0,0.0,0.0,0.0,0.0,0.0,0.0,0.0,0.0,0.0,0.0,0.0,0.0,0.0,0.0,0.0,0.0,0.0,0.0,0.0,0.0,0.0,0.0,0.0,0.0,0.0,0.0,0.0,0.0,0.0,0.0,0.0,0.0,0.0,0.0,0.0,0.0,0.0,0.0,0.0,0.0,0.0,0.0,0.0,0.0,0.0,0.0,0.0,0.0,0.0,0.0,0.0,0.0,0.0,0.0,0.0,0.0,0.0,0.0,0.0,0.0,0.0,0.0,0.0,0.0,0.0,0.0,0.0,0.0,0.0,0.0,-1.1469,-1.2963,-1.3585,-1.4016,-1.4323,-1.4455,-1.4652,-1.6087,-1.8856,0.0,0.0,0.0,0.0,0.0,0.0,0.0,0.0,0.0,0.0,0.0,0.0,0.0,0.0,0.0,0.0,0.0,0.0,0.0,0.0,0.0,0.0,0.0,0.0,0.0,0.0,0.0,0.0,0.0,0.0,0.0,0.0,0.0,0.0,0.0,0.0,0.0,0.0,-1.8964,-1.8718,0.0,0.0,0.0,0.0,0.0,0.0,0.0,0.0,-1.9904,0.0,0.0,0.0,0.0,0.0,0.0,0.0,0.0,0.0,0.0,0.0,0.0,0.0,0.0,0.0,0.0,0.0,0.0,0.0,0.0,0.0,0.0,0.0,0.0,0.0,0.0,0.0,0.0,0.0,0.0,0.0,0.0,0.0,0.0,0.0,0.0,0.0,0.0,0.0,0.0,0.0,0.0,0.0,0.0,0.0,0.0,0.0,0.0,0.0,0.0,0.0,0.0,0.0,0.0,0.0,0.0,-0.9015,-1.2411,-1.3761,-1.2849,-1.3564,-1.3922,-1.3855,-1.4245,-1.5763,-1.8383,0.0,0.0,0.0,0.0,0.0,0.0,0.0,0.0,0.0,0.0,0.0,0.0,0.0,0.0,0.0,0.0,0.0,0.0,0.0,0.0,0.0,0.0,0.0,0.0,0.0,0.0,0.0,0.0,0.0,0.0,0.0,0.0,0.0,0.0,0.0,0.0,0.0,0.0,0.0,-1.7352,-1.7489,0.0,0.0,0.0,0.0,0.0,0.0,0.0,0.0,-2.0752,0.0,0.0,0.0,0.0,0.0,0.0,0.0,0.0,0.0,0.0,0.0,0.0,0.0,0.0,0.0,0.0,0.0,0.0,0.0,0.0,0.0,0.0,0.0,0.0,0.0,0.0,0.0,0.0,0.0,0.0,0.0,0.0,0.0,0.0,0.0,0.0,0.0,0.0,0.0,0.0,0.0,0.0,0.0,0.0,0.0,0.0,0.0,0.0,0.0,0.0,0.0,0.0,0.0,0.0,0.0,-1.2947,-1.2493,-1.2243,-1.2107,-1.2806,-1.3276,-1.3498,-1.3983,-1.5373,0.0,0.0,0.0,0.0,0.0,0.0,0.0,0.0,0.0,0.0,0.0,0.0,0.0,0.0,0.0,0.0,0.0,0.0,0.0,0.0,0.0,0.0,0.0,0.0,0.0,0.0,0.0,0.0,0.0,0.0,0.0,0.0,0.0,0.0,0.0,0.0,0.0,0.0,0.0,0.0,-1.7402,-1.7612,-1.7605,0.0,0.0,0.0,0.0,0.0,0.0,-1.9852,-2.0864,0.0,0.0,0.0,0.0,0.0,0.0,0.0,0.0,0.0,0.0,0.0,0.0,0.0,0.0,0.0,0.0,0.0,0.0,0.0,0.0,0.0,0.0,0.0,0.0,0.0,0.0,0.0,0.0,0.0,0.0,0.0,0.0,0.0,0.0,0.0,0.0,0.0,0.0,0.0,0.0,0.0,0.0,0.0,0.0,0.0,0.0,0.0,0.0,0.0,0.0,0.0,0.0,0.0,0.0,0.0,-1.4883,-1.2338,-1.1114,-1.1372,-1.205,-1.266,-1.3142,-1.3686,-1.4945,0.0,0.0,0.0,0.0,0.0,0.0,0.0,0.0,0.0,0.0,0.0,0.0,0.0,0.0,0.0,0.0,0.0,0.0,0.0,0.0,0.0,0.0,0.0,0.0,0.0,0.0,0.0,0.0,0.0,0.0,0.0,0.0,0.0,0.0,0.0,0.0,0.0,0.0,0.0,0.0,0.0,-1.7706,-1.7511,-1.8544,0.0,0.0,0.0,0.0,-1.8123,-1.9514,0.0,0.0,0.0,0.0,0.0,0.0,0.0,0.0,0.0,0.0,0.0,0.0,0.0,0.0,0.0,0.0,0.0,0.0,0.0,0.0,0.0,0.0,0.0,0.0,0.0,0.0,0.0,0.0,0.0,0.0,0.0,0.0,0.0,0.0,0.0,0.0,0.0,0.0,0.0,0.0,0.0,0.0,0.0,0.0,0.0,0.0,0.0,0.0,0.0,0.0,0.0,0.0,0.0,0.0,0.0,0.0,-1.0086,-1.2324,-1.2598,-1.062,-1.1561,-1.2321,-1.2671,-1.326,-1.4574,0.0,0.0,0.0,0.0,0.0,0.0,0.0,0.0,0.0,0.0,0.0,0.0,0.0,0.0,0.0,0.0,0.0,0.0,0.0,0.0,0.0,0.0,0.0,0.0,0.0,0.0,0.0,0.0,0.0,0.0,0.0,0.0,0.0,0.0,0.0,0.0,0.0,0.0,0.0,0.0,0.0,-1.6958,-1.7945,-1.7752,-1.7519,0.0,0.0,-1.8182,-1.7487,-1.8974,0.0,0.0,0.0,0.0,0.0,0.0,0.0,0.0,0.0,0.0,0.0,0.0,0.0,0.0,0.0,0.0,0.0,0.0,0.0,0.0,0.0,0.0,0.0,0.0,0.0,0.0,0.0,0.0,0.0,0.0,0.0,0.0,0.0,0.0,0.0,0.0,0.0,0.0,0.0,0.0,0.0,0.0,0.0,0.0,0.0,0.0,0.0,0.0,0.0,0.0,0.0,0.0,0.0,0.0,0.0,-1.3778,-0.7138,-0.9622,-1.0426,-0.9115,-1.0725,-1.1854,-1.2309,-1.3093,-1.4545,0.0,0.0,0.0,0.0,0.0,0.0,0.0,0.0,0.0,0.0,0.0,0.0,0.0,0.0,0.0,0.0,0.0,0.0,0.0,0.0,0.0,0.0,0.0,0.0,0.0,0.0,0.0,0.0,0.0,0.0,0.0,0.0,0.0,0.0,0.0,0.0,0.0,0.0,0.0,0.0,0.0,0.0,-1.6592,-1.7309,0.0,0.0,0.0,-1.9001,-1.8363,0.0,0.0,0.0,0.0,0.0,0.0,0.0,0.0,0.0,0.0,0.0,0.0,0.0,0.0,0.0,0.0,0.0,0.0,0.0,0.0,0.0,0.0,0.0,0.0,0.0,0.0,0.0,0.0,0.0,0.0,0.0,0.0,0.0,0.0,0.0,0.0,0.0,0.0,0.0,0.0,0.0,0.0,0.0,0.0,0.0,0.0,0.0,0.0,0.0,0.0,0.0,0.0,0.0,0.0,0.0,0.0,0.0,-0.5114,-0.703,-0.8143,-0.828,-1.0225,-1.1621,-1.2219,-1.2773,0.0,0.0,0.0,0.0,0.0,0.0,0.0,0.0,0.0,0.0,0.0,0.0,0.0,0.0,0.0,0.0,0.0,0.0,0.0,0.0,0.0,0.0,0.0,0.0,0.0,0.0,0.0,-1.7601,0.0,0.0,0.0,0.0,0.0,0.0,0.0,0.0,0.0,0.0,0.0,0.0,0.0,0.0,-1.573,-1.567,-1.6688,-1.7491,0.0,0.0,-1.93,-1.8864,-1.9475,-2.0161,0.0,0.0,0.0,0.0,0.0,0.0,0.0,0.0,0.0,0.0,0.0,0.0,0.0,0.0,0.0,0.0,0.0,0.0,0.0,0.0,0.0,0.0,0.0,0.0,0.0,0.0,0.0,0.0,0.0,0.0,0.0,0.0,0.0,0.0,0.0,0.0,0.0,0.0,0.0,0.0,0.0,0.0,0.0,0.0,0.0,0.0,0.0,0.0,0.0,0.0,0.0,0.0,0.0,0.0,-1.2872,-0.4496,-0.5479,-0.7037,-0.8776,-1.0451,-1.1693,-1.2543,-1.2106,-1.3294,0.0,0.0,0.0,0.0,0.0,0.0,0.0,0.0,0.0,0.0,0.0,0.0,0.0,0.0,0.0,0.0,0.0,0.0,0.0,0.0,0.0,0.0,0.0,0.0,0.0,0.0,0.0,0.0,0.0,0.0,0.0,0.0,0.0,0.0,0.0,0.0,0.0,0.0,0.0,0.0,0.0,-1.6233,-1.6168,-1.573,-1.5818,0.0,-1.7661,-1.8077,-1.8232,-1.9266,-2.0046,-2.008,0.0,0.0,0.0,0.0,0.0,0.0,0.0,0.0,0.0,0.0,0.0,0.0,0.0,0.0,0.0,0.0,0.0,0.0,0.0,0.0,0.0,0.0,0.0,0.0,0.0,0.0,0.0,0.0,0.0,0.0,0.0,0.0,0.0,0.0,0.0,0.0,0.0,0.0,0.0,0.0,0.0,0.0,0.0,0.0,0.0,0.0,0.0,0.0,0.0,0.0,0.0,0.0,0.0,-1.1283,-0.1751,-0.3478,-0.5334,-0.7088,-0.9087,-1.0722,-1.2017,-1.2423,-1.375,0.0,0.0,0.0,0.0,0.0,0.0,0.0,0.0,0.0,0.0,0.0,0.0,0.0,0.0,0.0,0.0,0.0,0.0,0.0,0.0,0.0,0.0,0.0,0.0,0.0,0.0,0.0,0.0,-1.7167,-1.7235,-1.761,0.0,0.0,0.0,0.0,0.0,0.0,0.0,0.0,0.0,0.0,-1.4333,-1.3304,-1.4005,0.0,0.0,-1.7194,-1.841,-1.8476,-1.9283,-2.0023,-2.043,-2.1075,0.0,0.0,0.0,0.0,0.0,0.0,0.0,0.0,0.0,0.0,0.0,0.0,0.0,0.0,0.0,0.0,0.0,0.0,0.0,0.0,0.0,0.0,0.0,0.0,0.0,0.0,0.0,0.0,0.0,0.0,0.0,0.0,0.0,0.0,0.0,0.0,0.0,0.0,0.0,0.0,0.0,0.0,0.0,0.0,0.0,0.0,0.0,0.0,0.0,0.0,0.0,0.0,-1.1255,-0.0145,-0.1975,-0.3869,-0.5714,-0.8115,-1.0155,-1.175,-1.2409,-1.373,0.0,0.0,0.0,0.0,0.0,0.0,0.0,0.0,0.0,0.0,0.0,0.0,0.0,0.0,0.0,0.0,0.0,0.0,0.0,0.0,0.0,0.0,0.0,0.0,0.0,0.0,0.0,0.0,-1.779,-1.7866,-1.8099,0.0,0.0,0.0,0.0,0.0,0.0,0.0,0.0,0.0,0.0,-1.3531,-1.2041,-1.3077,-1.4286,-1.5103,-1.683,-1.8178,-1.8661,-1.915,-1.9734,-2.0396,0.0,0.0,0.0,0.0,0.0,0.0,0.0,0.0,0.0,0.0,0.0,0.0,0.0,0.0,0.0,0.0,0.0,0.0,0.0,0.0,0.0,0.0,0.0,0.0,0.0,0.0,0.0,0.0,0.0,0.0,-2.2276,0.0,0.0,0.0,0.0,0.0,0.0,0.0,0.0,0.0,0.0,0.0,0.0,0.0,0.0,0.0,0.0,0.0,0.0,0.0,0.0,0.0,0.0,-1.3551,-0.0361,-0.1411,-0.3039,-0.5242,-0.7903,-1.0189,-1.1994,-1.1818,-1.2968,-1.5719,0.0,0.0,0.0,0.0,0.0,0.0,0.0,0.0,0.0,0.0,0.0,0.0,0.0,0.0,0.0,0.0,0.0,0.0,0.0,0.0,0.0,0.0,0.0,0.0,0.0,0.0,-1.7816,-1.8411,-1.8844,0.0,0.0,0.0,0.0,0.0,0.0,0.0,0.0,0.0,-1.4953,-1.4727,-1.4413,-1.3203,-1.339,-1.4241,-1.6105,-1.6461,-1.7034,-1.8436,-1.8715,-1.8992,0.0,0.0,0.0,0.0,0.0,0.0,0.0,0.0,0.0,0.0,0.0,0.0,0.0,0.0,0.0,0.0,0.0,0.0,0.0,0.0,0.0,0.0,0.0,0.0,0.0,0.0,0.0,-2.0681,-2.1497,0.0,0.0,0.0,0.0,0.0,0.0,0.0,0.0,0.0,0.0,0.0,-2.1295,-2.1042,0.0,0.0,0.0,0.0,0.0,0.0,0.0,0.0,0.0,0.0,0.0,0.0,-1.3741,-0.5157,-0.5309,-0.6179,-0.7245,-0.8147,-0.965,-1.1777,-1.2062,-1.3425,-1.5976,0.0,0.0,0.0,0.0,0.0,0.0,0.0,0.0,0.0,0.0,0.0,0.0,0.0,0.0,0.0,0.0,0.0,0.0,0.0,0.0,0.0,0.0,0.0,0.0,0.0,-1.8459,0.0,0.0,0.0,0.0,0.0,0.0,0.0,0.0,0.0,0.0,0.0,-1.7877,-1.5827,-1.4816,-1.3905,-1.2932,-1.2848,-1.3415,0.0,0.0,0.0,0.0,0.0,0.0,0.0,0.0,0.0,0.0,0.0,0.0,0.0,0.0,-2.0756,-2.1852,-2.171,-2.139,-2.1376,0.0,0.0,0.0,0.0,0.0,0.0,0.0,0.0,0.0,0.0,0.0,0.0,0.0,0.0,-2.0681,0.0,-2.1295,0.0,0.0,0.0,0.0,0.0,0.0,0.0,0.0,-2.0425,-2.0554,-2.0885,-2.042,-2.0671,0.0,-2.1799,-2.2259,0.0,0.0,0.0,0.0,0.0,0.0,0.0,0.0,-1.5148,-0.943,-0.8752,-0.8519,-0.8445,-0.8223,-0.9291,-1.164,-1.2786,-1.4236,-1.6069,-1.7315,-1.8822,0.0,0.0,0.0,0.0,0.0,0.0,0.0,0.0,0.0,0.0,0.0,0.0,0.0,0.0,0.0,0.0,0.0,0.0,0.0,0.0,0.0,0.0,0.0,-1.8754,0.0,0.0,0.0,0.0,0.0,0.0,0.0,0.0,0.0,-1.915,-1.8326,-1.7093,-1.5589,-1.4673,-1.3775,-1.2731,0.0,0.0,0.0,0.0,0.0,0.0,0.0,-1.8015,-1.8286,-1.8328,-1.8167,-1.7677,-1.8012,-1.8631,-1.9517,0.0,0.0,-2.1086,-2.1183,-2.1037,-2.1037,-2.0733,-2.0396,-2.0118,-1.9334,-1.8394,0.0,0.0,0.0,0.0,0.0,0.0,0.0,0.0,-2.058,-2.1,0.0,-2.1609,0.0,0.0,0.0,0.0,0.0,-2.0641,0.0,0.0,-1.9425,-1.9252,-1.9597,-1.9412,-1.9452,-1.9822,-2.0662,-2.119,-2.1438,-2.1968,0.0,0.0,0.0,0.0,0.0,0.0,-1.78,-1.352,-1.1492,-0.9849,-0.8666,-0.8156,-0.9143,-1.174,-1.3821,-1.5198,-1.5984,-1.7749,-1.9482,-2.1042,-2.2136,0.0,0.0,0.0,0.0,0.0,0.0,0.0,0.0,0.0,0.0,0.0,0.0,0.0,0.0,0.0,0.0,0.0,0.0,0.0,0.0,-2.0045,0.0,0.0,0.0,0.0,0.0,0.0,0.0,0.0,0.0,0.0,-1.7144,-1.6546,-1.5572,-1.4245,0.0,0.0,0.0,0.0,-1.4204,-1.4264,-1.4864,-1.5633,-1.6368,-1.6549,-1.6765,-1.7468,0.0,0.0,-1.7578,-1.7575,-1.7585,-1.7611,-1.7688,-1.8263,-2.027,-2.0131,-1.9734,-1.9734,-1.9683,-1.9475,-1.8874,-1.8596,-1.8112,-2.6543,0.0,0.0,0.0,0.0,-2.3541,-2.3126,-2.3117,-2.1426,-2.1479,-2.2696,-2.1956,0.0,0.0,0.0,0.0,0.0,0.0,-2.1196,-2.0658,-2.0352,-1.9921,-1.9376,-1.9233,-1.9231,-1.9391,-1.9811,-2.0031,-2.0088,-2.0506,-2.1298,-2.2402,0.0,0.0,0.0,0.0,-1.8671,-1.8241,-1.4131,-1.0456,-0.7534,-0.8487,-0.9904,-1.1737,-1.2992,-1.416,-1.5272,-1.6278,-1.7675,-1.946,-2.0332,0.0,0.0,0.0,0.0,0.0,0.0,0.0,0.0,0.0,0.0,0.0,0.0,0.0,0.0,0.0,0.0,0.0,0.0,0.0,-1.7938,-1.8528,-1.8965,0.0,0.0,0.0,0.0,0.0,0.0,0.0,0.0,0.0,-1.6155,-1.575,-1.5444,0.0,0.0,-1.4354,-1.4591,-1.4373,-1.4392,-1.4991,-1.4805,0.0,-1.6312,-1.6492,-1.6595,-1.6765,-1.6358,-1.6197,-1.6698,-1.6793,-1.6995,-1.749,-1.7578,-1.7841,-1.8317,-1.837,-1.8221,-1.8232,-1.8221,-1.8167,-1.795,-1.7512,-1.6834,-2.6082,-2.6146,-2.6054,-2.5801,-2.5353,-2.4358,-2.3745,-2.3435,-2.2268,-2.2241,-2.2969,-2.2607,-2.2978,-2.3832,-2.3745,0.0,0.0,0.0,-2.1069,-2.0179,-1.9827,-1.9424,-1.8936,-1.8449,-1.8372,-1.8653,-1.9101,-1.9239,-1.913,-1.9963,-2.0856,-2.1831,0.0,0.0,-2.1324,-1.9567,-1.9134,-1.9841,-1.546,-1.1501,-0.842,-0.9704,-1.0857,-1.1774,-1.2857,-1.3789,-1.454,-1.5654,-1.6976,-1.8555,-1.9722,-2.1167,0.0,0.0,0.0,0.0,0.0,0.0,0.0,0.0,0.0,0.0,0.0,-2.1553,-2.1553,0.0,0.0,0.0,-1.8526,-1.7465,-1.6332,-1.77,0.0,0.0,0.0,0.0,0.0,0.0,0.0,-1.7907,-1.6451,-1.5553,-1.5662,-1.4637,-1.4223,-1.4989,-1.4313,-1.376,-1.3936,0.0,-1.3786,-1.3957,-1.3837,-1.4076,-1.4953,-1.5129,-1.5138,-1.5129,-1.4781,-1.4606,-1.5002,-1.5117,-1.5381,-1.6016,-1.626,-1.6384,-1.6687,-1.6743,-1.6957,-1.7468,-1.7578,-1.7523,-1.7246,-1.6546,-1.5806,-2.5554,-2.5701,-2.6397,-2.6295,-2.5649,-2.521,-2.4149,-2.2766,-2.3056,-2.3112,-2.2998,-2.3434,-2.4019,-2.4617,-2.3889,0.0,-2.1882,-2.0993,-2.0106,-1.915,-1.8421,-1.8176,-1.8268,-1.7329,-1.7165,-1.7759,-1.844,-1.8664,-1.8515,-1.9897,-2.0613,-2.0587,-2.1842,-2.2419,-2.2165,-2.0236,-1.907,-1.8771,-1.5632,-1.2815,-1.0419,-1.1217,-1.17,-1.1822,-1.3101,-1.3802,-1.3934,-1.5556,-1.6955,-1.8047,-1.9766,-2.1454,-2.2988,0.0,0.0,0.0,0.0,0.0,0.0,0.0,0.0,0.0,0.0,0.0,0.0,0.0,0.0,-1.8913,-1.7713,0.0,-1.5312,-1.7188,0.0,0.0,0.0,-1.9997,-2.0231,-1.9168,-1.8244,-1.776,0.0,0.0,-1.5406,-1.3346,-1.2367,-1.3796,-1.3388,-1.2655,-1.2004,-1.257,-1.2757,-1.2197,-1.2573,-1.3009,-1.3243,-1.3183,-1.3243,-1.3235,-1.3008,-1.3076,-1.3132,-1.3103,-1.3346,-1.4085,-1.4094,-1.4323,-1.5108,-1.5216,-1.5623,-1.6824,-1.7169,-1.7069,-1.6404,-1.5585,-1.485,-2.598,-2.6603,-2.6107,-2.5725,-2.5465,-2.5353,-2.4695,-2.3781,-2.3828,-2.3417,-2.2676,-2.3468,-2.376,-2.3606,-2.2767,-2.2255,-2.1919,-2.0962,-2.0227,-1.964,-1.8556,-1.7811,-1.7462,-1.7036,-1.6896,-1.7052,-1.7429,-1.7708,-1.7927,-1.8769,-1.9219,-1.9269,-1.9738,-2.0865,-2.2492,-2.0411,-1.7742,-1.4692,-1.4861,-1.3635,-1.0956,-1.0664,-1.095,-1.1774,-1.2484,-1.3182,-1.3881,-1.4702,-1.5731,-1.694,-1.7989,-1.9455,-2.1429,-2.1465,0.0,0.0,0.0,0.0,0.0,0.0,0.0,0.0,0.0,-2.0815,-1.9233,0.0,-1.8897,0.0,-1.6058,-1.5274,-1.4588,-1.5337,0.0,0.0,-1.7397,-1.7822,-1.8981,-1.8329,-1.7322,-1.6057,-1.5436,-1.4763,-1.3756,-1.257,-1.195,-1.232,-1.2197,-1.2212,-1.2613,-1.2834,-1.2948,-1.2696,-1.2818,-1.3009,-1.2948,-1.3009,-1.2948,-1.3009,-1.3003,-1.2995,-1.2992,-1.3013,-1.3078,-1.3241,-1.3304,-1.3373,-1.3614,-1.3554,-1.3666,-1.4049,-1.4591,-1.4953,-1.4796,-1.4137,-1.3305,-2.5952,-2.6358,-2.585,-2.5595,-2.5488,-2.5486,-2.5001,-2.4222,-2.4535,-2.4125,-2.327,-2.4035,-2.3828,-2.289,-2.2656,-2.2158,-2.1394,-2.0558,-1.9873,-1.9277,-1.8194,-1.7502,-1.714,-1.6735,-1.6628,-1.6789,-1.677,-1.6926,-1.7304,-1.7812,-1.8211,-1.8534,-1.8463,-1.9263,-2.0785,-1.9402,-1.7772,-1.6128,-1.5621,-1.4332,-1.2168,-1.199,-1.2213,-1.2785,-1.307,-1.3465,-1.4003,-1.4706,-1.5529,-1.6528,-1.7529,-1.8931,-2.0801,-2.1042,-2.1408,0.0,0.0,0.0,0.0,0.0,0.0,0.0,0.0,0.0,0.0,0.0,-1.7792,-1.5148,-1.408,-1.3591,-1.3693,-1.397,-1.4801,-1.6454,-1.6313,-1.6657,-1.8067,-1.7254,-1.6222,-1.5431,-1.4369,-1.3554,-1.3,-1.1958,-1.1399,-1.1735,-1.1509,-1.1428,-1.1832,-1.1934,-1.1911,-1.1903,-1.1911,-1.1911,-1.1911,-1.1911,-1.1903,-1.1911,-1.1911,-1.1903,-1.1911,-1.1899,-1.2014,-1.2359,-1.2451,-1.2573,-1.2887,-1.3009,-1.3009,-1.3009,-1.3061,-1.3235,-1.3606,-1.303,-1.2308,-2.5853,-2.5851,-2.5853,-2.5818,-2.578,-2.5776,-2.5197,-2.4351,-2.5072,-2.4975,-2.4283,-2.4662,-2.3959,-2.2601,-2.2969,-2.2329,-2.0838,-2.017,-1.9489,-1.8707,-1.7901,-1.7419,-1.7256,-1.6691,-1.6591,-1.6917,-1.6485,-1.6468,-1.6815,-1.7074,-1.751,-1.8119,-1.7745,-1.7833,-1.832,-1.7905,-1.833,-1.9654,-1.6902,-1.4849,-1.3639,-1.395,-1.4086,-1.4113,-1.4088,-1.4085,-1.4121,-1.49,-1.5675,-1.6361,-1.7533,-1.8887,-2.0447,-2.0816,-2.0917,0.0,-2.152,0.0,0.0,0.0,0.0,0.0,0.0,0.0,0.0,-1.8579,-1.6492,-1.3265,-1.2226,-1.1937,-1.2624,-1.2793,-1.3669,-1.5607,-1.5468,-1.5711,-1.6905,-1.5887,-1.4954,-1.4896,-1.3011,-1.2081,-1.2512,-1.1421,-1.087,-1.1406,-1.1045,-1.0681,-1.0618,-1.0681,-1.0744,-1.0618,-1.0618,-1.0807,-1.0744,-1.0681,-1.0681,-1.0618,-1.0744,-1.0618,-1.0681,-1.0688,-1.087,-1.1469,-1.1648,-1.1903,-1.2581,-1.2642,-1.2642,-1.2581,-1.2081,-1.1958,-1.2573,-1.2188,-1.166,-2.6716,-2.6737,-2.6683,-2.6685,-2.6737,-2.6682,-2.5743,-2.4281,-2.5051,-2.5274,-2.5005,-2.4167,-2.3594,-2.3258,-2.2716,-2.2151,-2.1552,-2.0735,-2.0084,-1.9547,-1.8825,-1.8443,-1.829,-1.7829,-1.7631,-1.7626,-1.7019,-1.6717,-1.6797,-1.7052,-1.7419,-1.7855,-1.7461,-1.7226,-1.7133,0.0,0.0,0.0,-1.6617,-1.4878,-1.4622,-1.4283,-1.4086,-1.4113,-1.4088,0.0,-1.4085,-1.4254,-1.4836,-1.5814,-1.6495,0.0,0.0,0.0,0.0,0.0,0.0,0.0,0.0,0.0,0.0,0.0,-1.9183,-1.7998,-1.7622,-1.538,-1.3349,-1.2082,-1.1345,-1.1166,-1.1567,-1.1609,-1.2289,-1.3765,-1.3405,-1.3496,-1.4587,-1.3972,-1.3226,-1.2541,-1.2074,-1.1593,-1.117,-1.0744,-1.0688,-1.08,-1.0681,-1.0624,-1.0618,-1.0618,-1.0618,-1.0618,-1.0618,-1.0618,-1.0618,-1.0618,-1.0618,-1.0618,-1.0618,-1.0618,-1.0618,-1.0618,-1.0618,-1.0863,-1.0807,-1.0863,-1.1052,-1.1045,-1.1178,-1.1052,-1.0926,-1.1045,-1.1834,-1.1399,-1.0843,-2.6328,0.0,-2.6318,-2.6331,0.0,-2.6287,-2.5716,-2.4852,-2.5226,-2.5071,-2.4539,-2.4308,-2.366,-2.2773,-2.3108,-2.263,-2.1565,-2.1005,-2.0185,-1.922,-1.9285,-1.9487,-1.9658,-1.9094,-1.861,-1.8245,-1.7702,-1.7372,-1.7263,-1.7197,-1.7566,-1.8347,-1.7801,-1.7443,-1.7289,-1.8336,-1.9151,-1.9672,-1.7833,-1.6608,-1.6087,-1.5807,-1.5536,-1.5303,-1.501,0.0,0.0,0.0,0.0,0.0,0.0,0.0,0.0,-1.8093,0.0,-1.8831,-1.8548,-1.8637,-1.9326,-1.8871,-1.8693,-1.8936,-1.6846,-1.5283,-1.4833,-1.2676,-1.1217,-1.1036,-1.0407,-1.0287,-1.0942,-1.0801,-1.1306,-1.2736,-1.2427,-1.2494,-1.3288,-1.2862,-1.2258,-1.1834,-1.1476,-1.1045,-1.0618,-1.0618,-1.0618,-1.0618,-1.0618,-1.0618,-1.0618,-1.0618,-1.0618,-1.0618,-1.0618,-1.0618,-1.0618,-1.0618,-1.0561,-1.0618,-1.0618,-1.0618,-1.0618,-1.0618,-1.0618,-1.0618,-1.0618,-1.0618,-1.0618,-1.0618,-1.0618,-1.0618,-1.0618,-1.0681,-1.1108,-1.0863,-1.0618,-2.584,-2.5703,-2.584,-2.5839,-2.5697,-2.5777,-2.5687,-2.5466,0.0,0.0,0.0,-2.4636,-2.3955,-2.2537,-2.3565,-2.3174,-2.1686,-2.1179,-2.0443,-1.9605,-1.9854,-2.0273,-2.0788,-2.0368,-1.9835,-1.9204,-1.8813,-1.8404,-1.7991,-1.7673,-1.7987,-1.8836,-1.8269,-1.7912,-1.8067,-2.0015,-2.0687,-1.9955,-1.9339,-1.8598,-1.7733,-1.7544,-1.7188,-1.6637,-1.6147,-1.5802,-1.5734,-1.5938,-1.6147,-1.6362,-1.6467,-1.6909,-1.7758,-1.7553,-1.7536,-1.7785,-1.791,-1.7935,-1.78,-1.7351,-1.689,-1.6413,-1.4429,-1.2926,-1.2319,-1.073,-0.9926,-1.0148,-0.9598,-0.959,-1.0502,-1.0317,-1.0611,-1.198,-1.1806,-1.1834,-1.2458,-1.202,-1.1593,-1.1531,-1.1045,-1.0618,-1.0618,-1.0618,-1.0618,-1.0618,-1.0618,-1.0491,-1.0434,-1.0491,-1.0498,-1.0364,-1.0238,-1.0301,-1.0168,-1.0231,-1.0364,-1.0301,-1.0428,-1.0618,-1.0618,-1.0618,-1.0618,-1.0618,-1.0618,-1.0618,-1.0618,-1.0618,-1.0618,-1.0618,-1.0498,-1.0384,-1.0366,-1.0251,-1.0245,-2.6348,-2.5684,-2.6484,-2.6376,-2.573,-2.6359,-2.6125,-2.5332,-2.5332,-2.5146,-2.4827,-2.4831,-2.4569,-2.4118,-2.3642,-2.3174,-2.2703,-2.1419,-2.1754,-2.3253,-2.1236,-2.0494,-2.0958,-2.1419,-2.1596,-2.1547,-2.0912,-2.0074,-1.9149,-1.8812,-1.8859,-1.9118,-1.8329,-1.8247,-1.8901,-2.0495,-2.115,-2.0811,-1.9955,-1.9441,-1.928,-1.843,-1.7747,-1.7203,-1.6638,-1.6151,-1.5721,-1.5323,-1.5311,-1.5777,-1.5348,-1.5583,-1.6617,-1.6243,-1.6132,-1.6549,-1.6268,-1.596,-1.5899,-1.5392,-1.437,-1.2675,-1.1912,-1.1471,-1.1358,-1.041,-0.9809,-0.9767,-0.9462,-0.9472,-1.0086,-1.0094,-1.0288,-1.0816,-1.0836,-1.087,-1.0989,-1.0926,-1.08,-1.08,-1.0681,-1.0618,-1.0618,-1.0618,-1.0618,-1.0618,-1.0491,-1.0301,-0.9786,-1.011,-1.0244,-0.9658,-0.946,-0.9198,-0.8807,-0.9069,-0.9396,-0.9466,-1.0104,-1.0491,-1.0491,-1.0555,-1.0555,-1.0618,-1.0555,-1.0498,-1.0555,-1.0618,-1.0441,-1.0378,-0.9938,-0.952,-0.9568,-0.9114,-0.9086,-2.6013,-2.5703,-2.6113,-2.606,-2.5722,-2.599,-2.5788,-2.5313,-2.5313,-2.5203,-2.4979,-2.478,-2.4625,-2.4398,-2.3392,-2.299,-2.308,-2.2433,-2.2648,-2.3419,-2.2878,-2.2391,-2.2081,-2.2298,-2.2278,-2.1909,-2.1604,-2.1074,-2.0479,-2.0303,-2.0361,-2.0509,-2.0344,-2.0459,-2.0831,-2.1516,-2.1814,-2.1681,-2.0574,-1.9743,-1.9236,-1.875,-1.8131,-1.7353,-1.7048,-1.6686,-1.6132,-1.5869,-1.572,-1.563,-1.5348,-1.5282,-1.5511,-1.5441,-1.5464,-1.5466,-1.5153,-1.4926,-1.4893,-1.4177,-1.2902,-1.1118,-1.0949,-1.0844,-1.0637,-1.01,-0.9784,-0.986,-0.9362,-0.9392,-1.0246,-0.9925,-0.992,-1.0541,-1.0618,-1.0618,-1.0618,-1.0618,-1.0618,-1.0618,-1.0618,-1.0618,-1.0618,-1.0618,-1.0618,-1.0561,-1.0238,-0.9588,-0.8742,-0.8935,-0.9064,-0.8678,-0.8549,-0.8484,-0.8091,-0.8291,-0.8549,-0.8613,-0.9332,-0.9843,-0.9913,-1.0168,-1.0555,-1.0555,-1.0238,-0.9913,-0.9907,-0.946,-0.9315,-0.9242,-0.895,-0.8663,-0.8698,-0.8446,-0.855,-2.5634,-2.5659,-2.5683,-2.5694,-2.5656,-2.5553,-2.5428,-2.5332,-2.5332,-2.5203,-2.4979,-2.4782,-2.4538,-2.4169,-2.306,-2.2597,-2.2704,-2.2768,-2.2866,-2.3059,-2.3746,-2.3802,-2.3377,-2.334,-2.3017,-2.2459,-2.2405,-2.2187,-2.1807,-2.1622,-2.1533,-2.1567,-2.2021,-2.2298,-2.2295,-2.2466,-2.2526,-2.2384,-2.1451,-2.0415,-1.9434,-1.9177,-1.8612,-1.7747,-1.7544,-1.7212,-1.666,-1.6473,-1.6159,-1.5693,-1.5315,-1.5084,-1.4987,-1.4974,-1.4812,-1.451,-1.4328,-1.4124,-1.3779,-1.2923,-1.1795,-1.0504,-1.0499,-1.0441,-1.0127,-0.998,-0.9967,-1.0106,-0.9572,-0.9519,-1.0349,-1.0047,-0.9868,-1.0498,-1.0618,-1.0618,-1.0618,-1.0618,-1.0618,-1.0618,-1.0618,-1.0618,-1.0618,-1.0618,-1.0498,-1.0174,-0.9524,-0.8678,-0.7897,-0.7567,-0.7442,-0.7442,-0.7572,-0.7572,-0.7507,-0.7572,-0.7697,-0.7697,-0.8415,-0.8877,-0.9069,-0.9582,-0.9901,-0.9837,-0.946,-0.9069,-0.8941,-0.8549,-0.8218,-0.8261,-0.7987,-0.7644,-0.7504,-0.7596,-0.7943,-2.5583,-2.5527,-2.5659,-2.5664,-2.5599,-2.5536,-2.5467,-2.539,-2.539,-2.5231,-2.5034,-2.4948,-2.4467,-2.3554,-2.2741,-2.2031,-2.1399,-2.1287,-2.2061,-2.3132,-2.2744,-2.3295,-2.4572,-2.461,-2.4501,-2.4215,-2.4163,-2.3637,-2.283,-2.2303,-2.1785,-2.1368,-2.1955,-2.2316,-2.2372,-2.2941,-2.3159,-2.293,-2.2884,-2.2184,-2.0843,-2.0019,-1.9317,-1.8779,-1.8263,-1.7731,-1.7092,-1.6602,-1.6219,-1.5875,-1.4666,-1.4522,-1.5495,-1.4635,-1.3936,-1.3877,-1.383,-1.3327,-1.2113,-1.1271,-1.0914,-1.0664,-1.0366,-1.0208,-1.014,-1.0341,-1.0537,-1.0461,-1.0199,-1.0082,-1.0514,-1.0441,-1.0378,-1.0561,-1.0618,-1.0618,-1.0618,-1.0618,-1.0618,-1.0618,-1.0618,-1.0618,-1.0618,-1.0555,-1.0238,-0.946,-0.8678,-0.7827,-0.6985,-0.6334,-0.5951,-0.5947,-0.6268,-0.6465,-0.6079,-0.6334,-0.6724,-0.6854,-0.7567,-0.8027,-0.8156,-0.8221,-0.8285,-0.8737,-0.8285,-0.8156,-0.8091,-0.8027,-0.7907,-0.7602,-0.7197,-0.6659,-0.6119,-0.6193,-0.6764,-2.555,-2.5572,-2.5662,-2.5664,-2.5586,-2.557,-2.5525,-2.5476,-2.5447,-2.537,-2.5253,-2.5283,-2.4905,-2.4219,-2.3441,-2.2938,-2.2778,-2.2804,-2.3157,-2.3845,-2.4052,-2.4484,-2.4911,-2.5063,-2.4894,-2.4528,-2.4512,-2.4227,-2.3687,-2.3041,-2.2755,-2.276,-2.2507,-2.2298,-2.2328,-2.2701,-2.337,-2.4249,-2.3211,-2.2352,-2.1764,-2.0786,-1.9856,-1.8979,-1.8677,-1.8314,-1.7746,-1.6764,-1.5953,-1.5327,-1.399,-1.3312,-1.3446,-1.3148,-1.284,-1.2575,-1.2823,-1.24,-1.1197,-1.1261,-1.1055,-1.0415,-1.039,-1.0381,-1.0381,-1.0494,-1.0618,-1.0541,-1.0008,-0.9869,-1.0478,-1.0142,-1.0021,-1.0441,-1.0618,-1.0618,-1.0618,-1.0618,-1.0618,-1.0618,-1.0618,-1.0618,-1.0491,-1.0174,-0.9524,-0.8613,-0.7767,-0.6981,-0.6075,-0.562,-0.5425,-0.5428,-0.5752,-0.5752,-0.5491,-0.5686,-0.5947,-0.6075,-0.6658,-0.7242,-0.7242,-0.7767,-0.8027,-0.7962,-0.7502,-0.7242,-0.7242,-0.6736,-0.649,-0.6485,-0.6503,-0.5942,-0.5755,-0.5806,-0.6335,-2.5517,-2.5587,-2.5654,-2.5654,-2.5625,-2.5586,-2.5556,-2.5536,-2.5532,-2.5354,-2.5085,-2.5134,-2.4859,-2.4322,-2.3923,-2.3805,-2.3769,-2.3986,-2.4138,-2.4306,-2.5072,-2.532,-2.5126,-2.5203,-2.5057,-2.47,-2.4588,-2.4355,-2.3933,-2.346,-2.3371,-2.3595,-2.2994,-2.2526,-2.2382,-2.2848,-2.3836,-2.4912,-2.3644,-2.2779,-2.2524,-2.1712,-2.0733,-1.9773,-1.9523,-1.9208,-1.86,-1.7327,-1.6247,-1.5352,-1.3811,-1.2785,-1.2436,-1.2289,-1.2078,-1.1797,-1.1819,-1.1569,-1.0733,-1.1146,-1.1133,-1.0342,-1.0454,-1.0618,-1.0618,-1.0618,-1.0498,-1.0174,-0.9658,-0.9652,-1.0371,-1.0021,-0.9957,-1.0498,-1.0618,-1.0618,-1.0618,-1.0618,-1.0618,-1.0618,-1.0618,-1.0491,-1.0238,-0.9658,-0.9005,-0.7822,-0.7111,-0.64,-0.562,-0.5428,-0.5428,-0.5428,-0.5428,-0.5428,-0.5428,-0.5425,-0.5428,-0.5491,-0.6009,-0.6334,-0.633,-0.6985,-0.7246,-0.6728,-0.6527,-0.64,-0.6334,-0.5763,-0.5509,-0.5562,-0.5579,-0.5703,-0.5688,-0.581,-0.5983,-2.5515,-2.56,-2.5601,-2.5632,-2.5684,-2.5547,-2.5547,-2.5576,-2.5543,-2.5097,-2.4383,-2.4316,-2.3918,-2.3294,-2.3925,-2.383,-2.3276,-2.3971,-2.4319,-2.4342,-2.4973,-2.5303,-2.5293,-2.5293,-2.5182,-2.4937,-2.4814,-2.43,-2.3376,-2.3284,-2.3265,-2.3451,-2.3422,-2.3029,-2.2808,-2.3885,-2.4824,-2.4933,-2.4397,-2.39,-2.3374,-2.2823,-2.2239,-2.1585,-2.1053,-2.0399,-1.9608,-1.8425,-1.7322,-1.6444,-1.4313,-1.3339,-1.3775,-1.2631,-1.1835,-1.1705,-1.1183,-1.0773,-1.0613,-1.0773,-1.0793,-1.0654,-1.0717,-1.0681,-1.0807,-1.0744,-1.0428,-0.953,-0.9524,-0.9722,-1.0428,-1.0225,-1.0238,-1.0364,-1.0491,-1.0428,-1.0561,-1.0491,-1.0555,-1.0618,-1.0618,-1.0231,-0.953,-0.9338,-0.8474,-0.7358,-0.6711,-0.6334,-0.562,-0.5428,-0.5428,-0.5428,-0.5428,-0.5428,-0.5428,-0.5428,-0.5428,-0.5425,-0.5557,-0.5554,-0.5491,-0.5491,-0.5624,-0.5686,-0.5686,-0.5686,-0.5495,-0.5428,-0.5432,-0.546,-0.5623,-0.5698,-0.5711,-0.6006,-0.6156,-2.5619,-2.5664,-2.5568,-2.5596,-2.5679,-2.5592,-2.5605,-2.5605,-2.5054,-2.4623,-2.4219,-2.3765,-2.3309,-2.3024,-2.3902,-2.4127,-2.3949,-2.473,-2.507,-2.5009,-2.5303,-2.539,-2.5313,-2.5313,-2.5203,-2.4998,-2.4869,-2.4504,-2.3987,-2.3911,-2.424,-2.4605,-2.4306,-2.438,-2.4928,-2.4585,-2.4321,-2.418,-2.3983,-2.3758,-2.3572,-2.3333,-2.3143,-2.2892,-2.1957,-2.1126,-2.0419,-1.9506,-1.8231,-1.6522,-1.5129,-1.3921,-1.2793,-1.2135,-1.1586,-1.1163,-1.1717,-1.1663,-1.0926,-1.1538,-1.1903,-1.1469,-1.1841,-1.2097,-1.2027,-1.1655,-1.1219,-1.0843,-1.0358,-1.0364,-1.0275,-0.9629,-0.8972,-0.8913,-0.8935,-0.9198,-0.9652,-0.9786,-0.9977,-1.0428,-1.0555,-1.0034,-0.8935,-0.8484,-0.8021,-0.6911,-0.6264,-0.5815,-0.5557,-0.5428,-0.5428,-0.5428,-0.5432,-0.5369,-0.5428,-0.5428,-0.5428,-0.5428,-0.5425,-0.5425,-0.5428,-0.5428,-0.5491,-0.5557,-0.5428,-0.5428,-0.5428,-0.5428,-0.5428,-0.5399,-0.5569,-0.5725,-0.5668,-0.601,-0.6146,-2.5626,-2.564,-2.5521,-2.5557,-2.5667,-2.5601,-2.5622,-2.5586,-2.4766,-2.4354,-2.4158,-2.3439,-2.3028,-2.3086,-2.3863,-2.4261,-2.4351,-2.513,-2.5505,-2.5428,-2.5466,-2.5428,-2.5313,-2.5313,-2.5184,-2.5043,-2.5083,-2.4986,-2.4872,-2.4751,-2.5079,-2.5726,-2.5162,-2.5456,-2.627,-2.5379,-2.451,-2.4191,-2.4113,-2.4116,-2.4074,-2.3958,-2.3786,-2.3477,-2.2569,-2.1743,-2.113,-2.0394,-1.9144,-1.7324,-1.5981,-1.4368,-1.2496,-1.2205,-1.1958,-1.1608,-1.2336,-1.2581,-1.1663,-1.2397,-1.2757,-1.2266,-1.2634,-1.2948,-1.2634,-1.2081,-1.1586,-1.1024,-1.0534,-1.0104,-0.9627,-0.8659,-0.8132,-0.828,-0.8187,-0.8197,-0.8818,-0.9145,-0.9722,-1.0364,-1.0301,-0.9524,-0.8355,-0.7832,-0.7177,-0.6396,-0.5749,-0.5425,-0.5428,-0.5428,-0.5428,-0.5432,-0.5372,-0.5033,-0.4824,-0.4758,-0.5296,-0.5362,-0.5428,-0.5428,-0.5428,-0.5428,-0.5428,-0.5428,-0.5428,-0.5428,-0.5428,-0.5428,-0.5432,-0.5376,-0.5555,-0.5752,-0.5775,-0.5915,-0.5667,-2.5592,-2.5524,-2.5447,-2.5428,-2.5562,-2.5459,-2.5554,-2.5547,-2.4707,-2.4214,-2.4022,-2.3302,-2.2829,-2.306,-2.3785,-2.4167,-2.4293,-2.5062,-2.5408,-2.537,-2.5437,-2.5389,-2.5253,-2.5264,-2.5217,-2.5108,-2.5499,-2.5838,-2.603,-2.5689,-2.5778,-2.6061,-2.5851,-2.5965,-2.6674,-2.6073,-2.5582,-2.5127,-2.4948,-2.4934,-2.5098,-2.443,-2.3906,-2.3466,-2.2838,-2.2208,-2.1622,-2.0944,-1.9915,-1.8573,-1.6613,-1.4672,-1.3459,-1.3235,-1.3061,-1.3053,-1.3122,-1.307,-1.3,-1.3061,-1.3252,-1.3061,-1.307,-1.3,-1.2565,-1.2074,-1.1392,-1.0338,-0.9716,-0.9198,-0.8608,-0.8264,-0.8334,-0.8952,-0.8239,-0.7931,-0.8187,-0.8812,-0.9594,-1.0238,-0.9983,-0.9005,-0.8091,-0.7437,-0.6719,-0.5881,-0.5495,-0.5428,-0.5428,-0.5428,-0.5432,-0.5166,-0.4558,-0.3747,-0.3816,-0.4087,-0.4758,-0.5365,-0.5362,-0.5428,-0.5428,-0.5428,-0.5428,-0.5428,-0.5428,-0.5428,-0.5428,-0.5428,-0.5432,-0.5406,-0.561,-0.5698,-0.5735,-0.5628,-0.4617,-2.5168,-2.4716,-2.4562,-2.4928,-2.5485,-2.4936,-2.5041,-2.5488,-2.416,-2.3473,-2.323,-2.2454,-2.2015,-2.235,-2.3445,-2.4129,-2.4168,-2.4818,-2.5157,-2.5168,-2.5282,-2.5217,-2.5031,-2.5061,-2.5228,-2.5568,-2.6206,-2.6646,-2.6758,-2.6488,-2.6525,-2.6818,-2.6548,-2.6489,-2.6616,-2.5877,-2.5325,-2.5153,-2.4471,-2.3933,-2.3505,-2.3344,-2.2937,-2.2363,-2.2091,-2.1712,-2.1126,-2.0855,-2.0092,-1.8768,-1.8035,-1.6948,-1.5628,-1.5351,-1.5042,-1.4674,-1.509,-1.4817,-1.3972,-1.4296,-1.4382,-1.4085,-1.4273,-1.4501,-1.4136,-1.3235,-1.2451,-1.164,-1.0912,-1.004,-0.9767,-0.9215,-0.8628,-0.7627,-0.7245,-0.7461,-0.8112,-0.9262,-0.9913,-0.9786,-0.9977,-0.9256,-0.7827,-0.7172,-0.692,-0.5686,-0.5428,-0.5428,-0.5428,-0.5296,-0.4755,-0.3872,-0.2937,-0.1935,-0.1735,-0.2671,-0.4278,-0.5226,-0.5634,-0.5428,-0.5428,-0.5428,-0.5428,-0.5428,-0.5428,-0.5428,-0.5428,-0.5432,-0.5369,-0.5373,-0.5467,-0.5525,-0.5564,-0.5179,-0.4624,-2.4861,-2.4639,-2.3928,-2.436,-2.537,-2.4645,-2.4631,-2.4998,-2.4038,-2.3504,-2.3328,-2.2813,-2.2679,-2.3092,-2.4082,-2.4524,-2.4572,-2.4878,-2.4974,-2.4937,-2.5049,-2.4994,-2.4861,-2.5139,-2.5574,-2.6189,-2.6877,-2.738,-2.763,-2.7326,-2.7192,-2.7234,-2.6906,-2.6707,-2.6623,-2.5889,-2.5307,-2.4625,-2.4122,-2.3563,-2.3069,-2.2746,-2.2307,-2.1769,-2.1697,-2.139,-2.0881,-2.0979,-2.0508,-1.9347,-1.8874,-1.8078,-1.6959,-1.6791,-1.6602,-1.6357,-1.6465,-1.6327,-1.5255,-1.5487,-1.5459,-1.4923,-1.5108,-1.5167,-1.4874,-1.3846,-1.3304,-1.2451,-1.1655,-1.0933,-1.0548,-1.0129,-0.9151,-0.7822,-0.747,-0.7611,-0.8425,-0.939,-1.0047,-0.9856,-0.9983,-0.9069,-0.7957,-0.7172,-0.6985,-0.5752,-0.5428,-0.5432,-0.5229,-0.4755,-0.3535,-0.2063,-0.0666,0.0133,0.0734,-0.0999,-0.3533,-0.4882,-0.5911,-0.5634,-0.5428,-0.5428,-0.5428,-0.5432,-0.5435,-0.5372,-0.5372,-0.5379,-0.5389,-0.5368,-0.524,-0.4918,-0.4882,-0.5803,0.0,-2.4668,-2.5005,-2.3562,-2.3869,-2.5146,-2.4575,-2.4427,-2.4451,-2.4271,-2.4176,-2.4118,-2.3928,-2.4313,-2.4976,-2.5043,-2.5178,-2.5244,-2.5027,-2.4917,-2.4851,-2.4884,-2.4919,-2.5013,-2.5662,-2.6321,-2.6934,-2.7524,-2.796,-2.8244,-2.7857,-2.7648,-2.7175,-2.6808,-2.6671,-2.6564,-2.6191,-2.4992,-2.3692,-2.3784,-2.3701,-2.3171,-2.2731,-2.2146,-2.1635,-2.1649,-2.1486,-2.1113,-2.1245,-2.1002,-1.994,-1.9202,-1.8543,-1.7895,-1.7731,-1.7786,-1.7709,-1.7677,-1.7302,-1.6754,-1.6425,-1.6151,-1.5575,-1.5342,-1.5108,-1.4569,-1.4213,-1.3606,-1.2504,-1.2012,-1.1531,-1.0926,-1.0688,-1.0174,-0.946,-0.8554,-0.849,-0.9139,-0.9402,-0.9849,-1.0238,-0.9849,-0.9075,-0.8221,-0.7567,-0.6728,-0.5892,-0.5631,-0.5634,-0.4558,-0.3542,-0.1865,-0.0266,0.1332,0.227,0.2878,0.0066,-0.2792,-0.6655,-0.6999,-0.6024,-0.5624,-0.5561,-0.5432,-0.5369,-0.5103,-0.5176,-0.5043,-0.4773,-0.5049,-0.5373,-0.4915,-0.4242,0.0,0.0,0.0,-2.4409,-2.3524,-2.3658,-2.409,-2.4531,-2.4358,-2.471,-2.5176,-2.4572,-2.4358,-2.4312,-2.4178,-2.4293,-2.4553,-2.5101,-2.5313,-2.5233,-2.5,-2.4842,-2.4873,-2.5148,-2.5317,-2.5706,-2.6689,-2.7306,-2.7598,-2.7999,-2.8316,-2.8342,-2.7823,-2.7251,-2.6704,-2.6437,-2.6372,-2.6484,-2.5472,-2.3938,-2.2555,-2.279,-2.2563,-2.1824,-2.1867,-2.1633,-2.1135,-2.1459,-2.1615,-2.1438,-2.1161,-2.093,-2.0547,-1.9888,-1.9423,-1.915,-1.915,-1.9097,-1.9044,-1.8661,-1.8328,-1.795,-1.7079,-1.6425,-1.6197,-1.569,-1.5352,-1.5108,-1.451,-1.4025,-1.3476,-1.3053,-1.2328,-1.167,-1.1493,-1.1066,-1.0308,-0.9582,-0.9134,-0.9396,-0.9913,-1.0364,-1.0498,-1.0364,-0.9779,-0.9069,-0.8619,-0.7842,-0.6758,-0.6238,-0.5554,-0.3808,-0.1934,-0.02,0.1663,0.327,0.4292,0.409,0.1195,-0.2588,-0.7758,-0.8306,-0.6535,-0.6145,-0.5826,-0.5568,-0.5376,-0.4434,-0.4236,-0.3756,-0.3284,-0.41,-0.4517,-0.453,0.0,0.0,0.0,0.0,-2.4409,-2.3812,-2.3667,-2.4042,-2.4667,-2.4471,-2.4632,-2.5024,-2.4958,-2.4635,-2.4463,-2.4596,-2.4664,-2.4745,-2.5111,-2.5293,-2.5253,-2.4968,-2.5012,-2.5468,-2.6116,-2.6294,-2.6425,-2.7279,-2.7805,-2.7897,-2.839,-2.8511,-2.8324,-2.7805,-2.7313,-2.6836,-2.6282,-2.6052,-2.5926,-2.4741,-2.3558,-2.2599,-2.2215,-2.1704,-2.1657,-2.1363,-2.1301,-2.1253,-2.1755,-2.213,-2.2025,-2.1259,-2.0809,-2.066,-2.0194,-1.9798,-1.9798,-1.9798,-1.9798,-1.9798,-1.9359,-1.9032,-1.8555,-1.7578,-1.6877,-1.6425,-1.5806,-1.5468,-1.5352,-1.4932,-1.4638,-1.4145,-1.3734,-1.3122,-1.252,-1.229,-1.2103,-1.167,-1.1156,-1.0591,-0.997,-1.0301,-1.0555,-1.0618,-1.0555,-1.0238,-0.9466,-0.9332,-0.8425,-0.7265,-0.6828,-0.48,-0.2332,-0.0466,0.14,0.327,0.4212,0.4903,0.4359,0.1795,-0.1523,-0.6709,-0.8498,-0.6854,-0.6474,-0.6028,-0.5505,-0.504,-0.3966,-0.3228,-0.3021,-0.2415,-0.188,-0.2384,-0.3033,0.0,0.0,0.0,0.0,-2.4332,-2.4803,-2.358,-2.385,-2.4908,-2.4711,-2.4625,-2.4651,-2.5226,-2.5137,-2.4731,-2.5136,-2.5258,-2.539,-2.5264,-2.5331,-2.5416,-2.5183,-2.5589,-2.6294,-2.7098,-2.7395,-2.7148,-2.7699,-2.8044,-2.8113,-2.8682,-2.8621,-2.829,-2.7936,-2.753,-2.6903,-2.6193,-2.5566,-2.5029,-2.4055,-2.352,-2.2907,-2.1965,-2.1738,-2.2081,-2.1697,-2.1506,-2.1871,-2.2464,-2.2746,-2.2486,-2.1704,-2.0944,-2.0894,-2.0194,-1.985,-1.9798,-1.9798,-1.9798,-1.9798,-1.9683,-1.9475,-1.8821,-1.8058,-1.7302,-1.6698,-1.5911,-1.541,-1.5362,-1.5294,-1.505,-1.451,-1.4332,-1.3906,-1.3312,-1.3078,-1.2834,-1.2704,-1.2765,-1.2212,-1.1296,-1.087,-1.087,-1.08,-1.0863,-1.0351,-0.997,-0.9448,-0.9046,-0.8339,-0.7502,-0.5249,-0.2458,-0.0067,0.2203,0.4558,0.5103,0.5106,0.3946,0.2329,-0.1192,-0.5064,-0.6811,-0.6654,-0.6609,-0.6164,-0.5439,-0.457,-0.2956,-0.2622,-0.3098,-0.2221,0.0,0.0,0.0,0.0,0.0,0.0,0.0,-2.2812,-2.2496,-2.3494,-2.379,-2.3807,-2.482,-2.535,-2.5375,-2.5473,-2.5426,-2.533,-2.5351,-2.5361,-2.538,-2.536,-2.5529,-2.5926,-2.5868,-2.6338,-2.737,-2.777,-2.8276,-2.8346,-2.8608,-2.8682,-2.8691,-2.853,-2.8368,-2.8047,-2.7689,-2.7049,-2.6368,-2.5822,-2.4923,-2.412,-2.3728,-2.301,-2.2333,-2.2126,-2.2161,-2.2175,-2.2296,-2.2296,-2.2483,-2.2966,-2.3288,-2.3143,-2.2179,-2.152,-2.1232,-2.0408,-1.9631,-1.9747,-1.9798,-1.9798,-1.9747,-1.9798,-1.9747,-1.9371,-1.8274,-1.7523,-1.7202,-1.614,-1.542,-1.542,-1.542,-1.5352,-1.5167,-1.5108,-1.4697,-1.4034,-1.3364,-1.3243,-1.3191,-1.3183,-1.3009,-1.2581,-1.2466,-1.2336,-1.2274,-1.1903,-1.171,-1.202,-1.1392,-1.0683,-0.966,-0.7906,-0.5883,-0.3113,-0.0133,0.2473,0.4897,0.5386,0.5113,0.3547,0.1933,-0.0996,-0.3997,-0.5665,-0.6465,-0.6358,-0.6106,-0.5316,-0.3629,-0.1545,0.0,0.0,0.0,0.0,0.0,0.0,0.0,0.0,0.0,0.0,-2.364,-2.3485,-2.4413,-2.4587,-2.4451,-2.5194,-2.5624,-2.5662,-2.5558,-2.5538,-2.5524,-2.5327,-2.5225,-2.5302,-2.5512,-2.5831,-2.6209,-2.6779,-2.7252,-2.78,-2.8088,-2.8521,-2.8847,-2.8839,-2.8773,-2.8929,-2.8815,-2.8583,-2.8334,-2.7823,-2.7413,-2.6759,-2.5783,-2.5064,-2.4191,-2.3513,-2.2996,-2.279,-2.286,-2.3022,-2.3172,-2.3009,-2.2873,-2.2649,-2.2711,-2.2606,-2.2146,-2.1301,-2.0654,-2.0168,-1.9374,-1.915,-1.9695,-1.9798,-1.9643,-1.9371,-1.9643,-1.9319,-1.8715,-1.807,-1.7413,-1.709,-1.6026,-1.5584,-1.542,-1.542,-1.542,-1.542,-1.5352,-1.5167,-1.4815,-1.451,-1.4154,-1.4094,-1.4085,-1.4145,-1.4025,-1.3485,-1.3009,-1.2948,-1.2573,-1.2581,-1.2642,-1.2512,-1.166,-1.0354,-0.9058,-0.6979,-0.3725,-0.0734,0.2136,0.4223,0.5049,0.4779,0.3149,0.1268,-0.0933,-0.3476,-0.5432,-0.5903,-0.5914,-0.5589,-0.5196,-0.35,0.0,0.0,0.0,0.0,0.0,0.0,0.0,0.0,0.0,0.0,0.0,-2.4785,-2.5072,-2.524,-2.537,-2.5428,-2.5531,-2.5635,-2.5657,-2.5546,-2.5515,-2.5495,-2.5225,-2.5088,-2.5216,-2.571,-2.6043,-2.6699,-2.7587,-2.8264,-2.8027,-2.8312,-2.8537,-2.8676,-2.8507,-2.8515,-2.8881,-2.8839,-2.8773,-2.8529,-2.8156,-2.7539,-2.7348,-2.6123,-2.526,-2.4791,-2.3618,-2.2965,-2.3342,-2.3362,-2.3774,-2.4231,-2.3812,-2.3201,-2.2725,-2.2132,-2.1602,-2.1073,-2.0268,-1.9505,-1.8703,-1.8004,-1.8328,-1.9097,-1.9592,-1.9527,-1.8927,-1.9527,-1.9214,-1.8394,-1.7743,-1.7302,-1.6539,-1.5806,-1.5468,-1.542,-1.542,-1.542,-1.542,-1.541,-1.541,-1.541,-1.5235,-1.5235,-1.5294,-1.5352,-1.542,-1.5177,-1.4145,-1.3666,-1.3494,-1.3425,-1.3364,-1.3312,-1.3174,-1.2148,-1.1063,-0.9737,-0.7955,-0.4779,-0.1936,0.0665,0.3347,0.4303,0.3703,0.2149,0.1338,-0.0936,-0.2609,-0.4773,-0.5183,-0.5326,-0.541,-0.5078,-0.4319,0.0,0.0,0.0,0.0,0.0,0.0,0.0,0.0,0.0,0.0,0.0,-2.3197,-2.3554,-2.4285,-2.4588,-2.4724,-2.5286,-2.56,-2.5586,-2.547,-2.5408,-2.5389,-2.5134,-2.4968,-2.5158,-2.5706,-2.6589,-2.7635,-2.8558,-2.8743,-2.8355,-2.8506,-2.856,-2.8201,-2.7974,-2.8139,-2.842,-2.8402,-2.8208,-2.8129,-2.7619,-2.74,-2.6841,-2.6005,-2.544,-2.5035,-2.4076,-2.3534,-2.3838,-2.3595,-2.3743,-2.4031,-2.3743,-2.301,-2.2438,-2.1697,-2.1081,-2.0515,-1.994,-1.9377,-1.8672,-1.797,-1.7786,-1.8004,-1.8489,-1.8874,-1.9202,-1.9423,-1.9044,-1.8178,-1.7797,-1.7246,-1.6539,-1.5806,-1.541,-1.5352,-1.542,-1.542,-1.5352,-1.5352,-1.5352,-1.542,-1.5294,-1.5352,-1.5352,-1.5294,-1.5294,-1.5177,-1.4874,-1.451,-1.4273,-1.4154,-1.4025,-1.3906,-1.3588,-1.274,-1.1753,-1.0567,-0.9041,-0.6688,-0.4138,-0.1791,0.0932,0.3493,0.2354,0.0942,0.0604,-0.0536,-0.1675,-0.3288,-0.4239,-0.4517,-0.5222,-0.502,-0.3645,0.0,0.0,0.0,0.0,0.0,0.0,0.0,0.0,0.0,0.1185,0.3371,-2.4075,-2.4433,-2.4827,-2.4999,-2.507,-2.5363,-2.5524,-2.5495,-2.5299,-2.5217,-2.5082,-2.4743,-2.4588,-2.4919,-2.5668,-2.6951,-2.8353,-2.8924,-2.8897,-2.8522,-2.8358,-2.8228,-2.7765,-2.7447,-2.7654,-2.7752,-2.7496,-2.759,-2.8073,-2.7811,-2.7327,-2.686,-2.5997,-2.5577,-2.5675,-2.4997,-2.4735,-2.4698,-2.3652,-2.281,-2.314,-2.2746,-2.2122,-2.1226,-2.0505,-1.9788,-1.9092,-1.8354,-1.7904,-1.7412,-1.6845,-1.6497,-1.6532,-1.6791,-1.7291,-1.7981,-1.8436,-1.8155,-1.7346,-1.6856,-1.6698,-1.6036,-1.5526,-1.5167,-1.505,-1.5108,-1.5294,-1.5294,-1.4932,-1.4991,-1.5352,-1.4991,-1.4805,-1.4756,-1.4746,-1.4569,-1.4332,-1.4213,-1.4273,-1.4451,-1.451,-1.4382,-1.4323,-1.387,-1.3262,-1.2332,-1.1298,-0.9755,-0.8007,-0.5947,-0.3645,-0.113,0.1539,0.1814,0.0404,-0.0471,-0.1208,-0.2147,-0.2686,-0.3567,-0.3572,-0.4193,-0.3446,-0.2157,0.0,0.0,0.0,0.0,0.0,0.0,0.0,0.0,0.0,0.2245,0.4335,-2.5335,-2.5604,-2.5547,-2.5542,-2.5553,-2.5346,-2.5275,-2.5252,-2.4905,-2.4747,-2.4737,-2.4243,-2.41,-2.467,-2.5783,-2.7235,-2.8881,-2.896,-2.8578,-2.7958,-2.7862,-2.7736,-2.7296,-2.706,-2.6867,-2.7002,-2.6768,-2.6719,-2.7611,-2.7365,-2.7156,-2.6602,-2.5632,-2.5454,-2.5878,-2.501,-2.5598,-2.4902,-2.3405,-2.1802,-2.1652,-2.1361,-2.0793,-1.971,-1.8927,-1.8147,-1.7258,-1.6746,-1.6146,-1.5698,-1.5255,-1.4895,-1.4857,-1.4847,-1.5158,-1.5823,-1.6655,-1.626,-1.5756,-1.5583,-1.5583,-1.4855,-1.4864,-1.451,-1.4273,-1.4392,-1.4756,-1.4805,-1.4451,-1.4154,-1.451,-1.4332,-1.4025,-1.3974,-1.3906,-1.3786,-1.3425,-1.3243,-1.3304,-1.3726,-1.4392,-1.4382,-1.3897,-1.3399,-1.2623,-1.2188,-1.1148,-0.9875,-0.8294,-0.7003,-0.4907,-0.2729,-0.0602,0.0738,0.0067,-0.1482,-0.2624,-0.3974,-0.411,-0.4451,-0.3708,-0.3036,-0.1955,0.0,0.0,0.0,0.0,0.0875,0.0,0.0,0.0,0.1212,0.2563,0.3444,0.4827,-2.5401,-2.5611,-2.5584,-2.5552,-2.5416,-2.4977,-2.4772,-2.4723,-2.4221,-2.3952,-2.3971,-2.3721,-2.3735,-2.4411,-2.595,-2.7464,-2.8402,-2.8674,-2.8121,-2.7269,-2.7158,-2.6853,-2.6351,-2.6624,-2.5924,-2.5826,-2.5979,-2.6765,-2.6858,-2.6051,-2.586,-2.5805,-2.5076,-2.4773,-2.5102,-2.4265,-2.3861,-2.3659,-2.2392,-2.1535,-2.1327,-2.0395,-1.9811,-1.9184,-1.8267,-1.6976,-1.5783,-1.5312,-1.4925,-1.3768,-1.3485,-1.3304,-1.3304,-1.3295,-1.3295,-1.3811,-1.4458,-1.5109,-1.4409,-1.43,-1.4259,-1.3708,-1.3425,-1.3243,-1.3373,-1.3304,-1.3425,-1.3312,-1.3191,-1.3312,-1.3485,-1.3252,-1.3122,-1.3061,-1.2992,-1.3,-1.2757,-1.2012,-1.2135,-1.2389,-1.2923,-1.2992,-1.281,-1.2373,-1.1935,-1.1556,-1.1003,-0.9722,-0.8452,-0.7046,-0.6129,-0.4008,-0.2206,-0.0871,-0.0469,-0.2016,-0.3366,-0.5135,-0.5272,-0.5065,-0.425,-0.31,-0.1146,0.0,0.0,0.0,0.0,0.2893,0.3431,0.3161,0.2554,0.3366,0.4727,0.5272,0.5403,-2.4966,-2.5572,-2.5234,-2.5075,-2.4977,-2.4433,-2.419,-2.4099,-2.3819,-2.3487,-2.3318,-2.3176,-2.344,-2.423,-2.5524,-2.6638,-2.7558,-2.8011,-2.7877,-2.686,-2.6521,-2.5881,-2.4981,-2.4259,-2.3662,-2.4091,-2.3707,-2.3702,-2.4385,-2.5029,-2.5051,-2.4766,-2.3937,-2.355,-2.398,-2.3068,-2.2164,-2.1365,-2.0407,-1.9683,-1.9331,-1.8775,-1.8095,-1.728,-1.6564,-1.5409,-1.4337,-1.3981,-1.3751,-1.3,-1.3009,-1.2504,-1.1873,-1.1556,-1.1432,-1.0947,-1.1396,-1.2295,-1.3184,-1.297,-1.2761,-1.2793,-1.2618,-1.2533,-1.2749,-1.2512,-1.2504,-1.3,-1.2573,-1.2443,-1.2626,-1.2573,-1.2389,-1.2205,-1.1804,-1.1703,-1.1516,-1.1024,-1.071,-1.1087,-1.1267,-1.1197,-1.1315,-1.1439,-1.094,-1.0382,-0.9996,-0.9256,-0.7977,-0.6728,-0.5951,-0.5239,-0.3618,-0.2207,-0.2008,-0.2614,-0.3558,-0.4916,-0.5399,-0.5129,-0.4788,-0.3569,-0.1549,0.0,0.0,0.0,0.0,0.4448,0.4451,0.4375,0.4233,0.4782,0.5266,0.5333,0.5393,-2.3654,-2.4204,-2.4154,-2.4137,-2.4044,-2.3286,-2.2763,-2.2642,-2.2723,-2.2541,-2.2315,-2.2339,-2.2936,-2.3815,-2.4527,-2.5223,-2.6161,-2.674,-2.6725,-2.6253,-2.5609,-2.4449,-2.3108,-2.1744,-2.1504,-2.2163,-2.1335,-2.1173,-2.1801,-2.2592,-2.301,-2.3613,-2.2342,-2.232,-2.2428,-2.1704,-2.0531,-1.8583,-1.7993,-1.7455,-1.7071,-1.6552,-1.5756,-1.4946,-1.4164,-1.3477,-1.2281,-1.2035,-1.1974,-1.1549,-1.1425,-1.0808,-1.0268,-0.9996,-0.9539,-0.9169,-0.9279,-0.9977,-1.0913,-1.1217,-1.141,-1.1348,-1.1356,-1.0781,-1.1231,-1.119,-1.094,-1.1301,-1.0996,-1.1058,-1.1439,-1.1003,-1.0752,-1.0431,-1.0173,-1.0072,-0.9894,-0.9633,-0.9378,-0.9564,-0.9558,-0.9116,-0.9424,-1.0186,-1.0002,-0.9256,-0.8812,-0.8549,-0.7507,-0.6272,-0.5826,-0.5382,-0.4837,-0.3618,-0.3553,-0.3756,-0.4495,-0.4764,-0.5183,-0.5326,-0.4989,-0.377,-0.1952,0.0,0.0,0.0,0.0,0.4241,0.5406,0.5049,0.4834,0.5113,0.5389,0.5389,0.5386,-2.0924,-2.0591,-2.2023,-2.2541,-2.2433,-2.1011,-2.0156,-2.0092,-2.0729,-2.0686,-2.0305,-2.0954,-2.1989,-2.3027,-2.2879,-2.3294,-2.4306,-2.4428,-2.457,-2.4442,-2.3926,-2.2335,-2.0637,-1.9478,-1.9463,-1.9257,-1.9029,-1.8869,-1.8734,-1.9406,-2.0703,-2.2014,-2.0398,-2.0796,-2.0733,-1.98,-1.7816,-1.6134,-1.5472,-1.5415,-1.4869,-1.4216,-1.3303,-1.2827,-1.1596,-1.0345,-0.9566,-0.9699,-0.9591,-0.8977,-0.8548,-0.9069,-0.8905,-0.8205,-0.7603,-0.7553,-0.7692,-0.8339,-0.8994,-0.9308,-0.9052,-0.8667,-0.8592,-0.8843,-0.9163,-0.8656,-0.8468,-0.8913,-0.9105,-0.8849,-0.872,-0.8345,-0.8918,-0.8988,-0.8982,-0.865,-0.8533,-0.8409,-0.8215,-0.8156,-0.8027,-0.7832,-0.7572,-0.8393,-0.8779,-0.8156,-0.8112,-0.7852,-0.6999,-0.5954,-0.5697,-0.5379,-0.5382,-0.5043,-0.5049,-0.5249,-0.5109,-0.5036,-0.5309,-0.5386,-0.5326,-0.3768,-0.2153,0.0,0.0,0.0,0.2347,0.4036,0.5189,0.5372,0.5432,0.5372,0.5379,0.5379,0.5376,-1.8874,-1.8806,-1.8672,-1.9326,-2.0426,-1.9538,-1.925,-1.9364,-1.9401,-1.904,-1.8535,-1.8881,-1.9212,-1.9648,-2.0257,-2.0689,-2.1559,-2.224,-2.311,-2.4049,-2.3409,-1.9833,-1.7493,-1.6525,-1.6817,-1.6697,-1.6899,-1.6852,-1.6437,-1.6874,-1.7132,-1.7722,-1.7567,-1.8386,-1.8258,-1.6877,-1.4467,-1.3377,-1.3125,-1.3346,-1.2366,-1.251,-1.205,-1.1315,-1.0989,-0.9688,-0.8748,-0.8549,-0.8236,-0.7558,-0.6128,-0.6494,-0.7143,-0.604,-0.5567,-0.5778,-0.6048,-0.6732,-0.7484,-0.7731,-0.7507,-0.7502,-0.7697,-0.7897,-0.7767,-0.7957,-0.7957,-0.8021,-0.7897,-0.7767,-0.7962,-0.8091,-0.8226,-0.8182,-0.7782,-0.7302,-0.7307,-0.7251,-0.7381,-0.7451,-0.7312,-0.7111,-0.6789,-0.6593,-0.692,-0.7116,-0.7199,-0.7077,-0.6083,-0.5491,-0.51,-0.4903,-0.4906,-0.4976,-0.4982,-0.5186,-0.5319,-0.5312,-0.5236,-0.5382,-0.5256,-0.3832,0.0,0.0,0.0,0.0,0.2551,0.4236,0.5046,0.5302,0.5362,0.5428,0.5432,0.5369,0.5432,-1.6827,-1.6911,-1.6039,-1.6682,-1.8158,-1.7633,-1.7487,-1.771,-1.7772,-1.7708,-1.7423,-1.7286,-1.7239,-1.707,-1.5533,-1.4988,-1.4867,-1.5321,-1.7979,-1.8661,-1.7831,-1.5542,-1.3803,-1.3295,-1.413,-1.4249,-1.4289,-1.4248,-1.5012,-1.5272,-1.3897,-1.3254,-1.4359,-1.5782,-1.5846,-1.2814,-1.0375,-1.0248,-1.1012,-1.1345,-1.0342,-0.9367,-0.868,-0.7614,-0.6905,-0.6193,-0.5284,-0.4957,-0.5094,-0.4492,-0.3823,-0.3499,-0.3779,-0.372,-0.2985,-0.3255,-0.4061,-0.4942,-0.5683,-0.6428,-0.6203,-0.64,-0.6724,-0.7051,-0.7246,-0.7246,-0.6985,-0.7055,-0.7125,-0.7256,-0.7251,-0.7068,-0.7012,-0.6894,-0.5672,-0.513,-0.6079,-0.6354,-0.6618,-0.6815,-0.6544,-0.6284,-0.6152,-0.5896,-0.609,-0.6288,-0.6296,-0.5826,-0.4613,-0.422,-0.4225,-0.4161,-0.4164,-0.4367,-0.4506,-0.4233,-0.4028,-0.4431,-0.4564,-0.5252,-0.4919,-0.3766,-0.2285,0.0,0.0,0.0,0.2418,0.3625,0.4564,0.5302,0.5365,0.5428,0.5428,0.5432,0.5432,-1.4369,-1.4746,-1.4306,-1.4766,-1.5223,-1.5115,-1.4641,-1.4824,-1.5712,-1.6434,-1.6529,-1.5986,-1.5609,-1.4883,-1.0461,-0.7683,-0.5759,-0.4731,-0.5779,-0.8275,-1.0316,-0.9856,-0.9518,-0.9257,-0.9071,-1.2025,-1.1428,-1.1145,-1.2848,-1.179,-0.9445,-0.8172,-0.9762,-1.2967,-1.427,-0.888,-0.6697,-0.7985,-0.9545,-0.9116,-0.7663,-0.5383,-0.3738,-0.2558,-0.1179,-0.0459,-0.0263,-0.0132,-0.0132,0.0132,0.0329,0.0726,0.0862,0.0133,0.053,0.1131,-0.0599,-0.1597,-0.2127,-0.4077,-0.4888,-0.5491,-0.6024,-0.5888,-0.569,-0.5624,-0.5822,-0.609,-0.5896,-0.5634,-0.5509,-0.5446,-0.5512,-0.5516,-0.4361,-0.3413,-0.435,-0.516,-0.5286,-0.5348,-0.5372,-0.5393,-0.5393,-0.5389,-0.5452,-0.5516,-0.5456,-0.4776,-0.3689,0.0,0.0,-0.2753,-0.2753,-0.2753,-0.2753,-0.275,-0.2813,-0.3215,-0.3623,-0.4167,-0.4992,-0.4861,-0.303,-0.0472,0.1414,0.276,0.282,0.288,0.4087,0.5299,0.5365,0.5428,0.5428,0.5428,0.5428,-0.4943,-0.4923,-0.4923,-0.5114,-0.6195,-1.138,-1.3777,-1.4422,-1.4913,-1.5107,-1.3991,-1.0686,-0.7958,-0.6473,-0.4067,-0.039,0.2172,0.3868,0.3197,0.4515,-0.0387,-0.0913,-0.0704,-0.0657,-0.1512,-0.3258,-0.4022,-0.4385,-0.4376,-0.4756,-0.4201,-0.3143,-0.4049,-0.7837,-0.9841,-0.7678,-0.5875,-0.604,-0.5967,-0.4888,-0.3043,-0.112,0.0526,0.1779,0.3818,0.4748,0.476,0.4626,0.4563,0.4629,0.4763,0.471,0.4193,0.3253,0.3595,0.4015,0.2874,0.2202,0.1132,-0.06,-0.2272,-0.382,-0.504,-0.497,-0.5316,-0.5382,-0.5386,-0.5382,-0.5316,-0.4909,-0.3959,-0.3687,-0.3889,-0.4919,-0.4102,-0.2345,-0.241,-0.3147,-0.3613,-0.3547,-0.3623,-0.3567,-0.3572,-0.4962,-0.5376,-0.4995,-0.4858,-0.4858,-0.4038,0.0,0.0,0.0,-0.0942,-0.0874,-0.0873,-0.0671,-0.0536,-0.0669,-0.1539,-0.2549,-0.3498,-0.4177,-0.1946,0.1613,0.3029,0.4182,0.3763,0.3618,0.4489,0.5233,0.5362,0.5428,0.5428,0.5428,0.5428,0.5798,0.6064,0.5771,0.5912,0.4674,-0.4204,-0.9012,-0.9826,-0.9848,-0.9722,-0.8391,-0.4333,-0.1336,0.0687,0.3434,0.6881,0.9979,1.0998,1.2017,1.3723,0.7951,0.6758,0.77,0.8534,0.707,0.5413,0.44,0.4066,0.4423,0.4001,0.3945,0.3737,0.2702,-0.0,-0.2531,-0.2759,-0.2384,-0.2323,-0.1985,-0.1454,0.0661,0.2644,0.4164,0.5356,0.675,0.7877,0.8156,0.8172,0.8052,0.8117,0.7857,0.7335,0.6005,0.5415,0.5418,0.5376,0.5243,0.4425,0.3347,0.3011,0.127,-0.0534,-0.2539,-0.348,-0.3682,-0.3611,-0.3885,-0.4159,-0.4709,-0.4509,-0.3558,-0.3084,-0.2149,-0.3167,-0.2567,-0.0809,-0.054,-0.1283,0.0136,-0.0068,-0.0752,-0.0956,-0.1971,-0.4031,-0.5372,-0.4842,-0.4258,-0.4051,-0.3641,0.0,0.0,0.0,0.0202,-0.0135,0.0471,0.1546,0.1745,0.1878,0.0871,-0.0335,-0.0535,-0.087,0.1405,0.3155,0.4036,0.4579,0.4364,0.4492,0.5027,0.5296,0.5362,0.5428,0.5428,0.5428,0.5428,1.6722,1.744,1.6687,1.6578,1.5695,0.5092,0.0149,-0.0454,-0.0331,-0.0401,-0.0343,0.14,0.4241,0.7215,1.0023,1.3193,1.6323,1.6942,1.711,1.6883,1.3278,1.3432,1.3512,1.4203,1.2971,1.2838,1.2089,1.0833,1.2572,1.1064,1.0547,1.0299,0.9172,0.667,0.4411,0.3043,0.301,0.3484,0.2505,0.3158,0.4804,0.6029,0.7279,0.8275,0.879,0.9221,0.9221,0.9041,0.8586,0.8195,0.7613,0.6654,0.5877,0.5491,0.5491,0.5495,0.5561,0.5362,0.5432,0.5299,0.51,0.34,0.1727,0.073,-0.0,-0.0532,-0.0866,-0.1736,-0.2544,-0.3694,-0.4105,-0.1951,0.0067,-0.0203,-0.0136,0.0614,0.0958,0.1998,0.4201,0.4377,0.3349,0.2346,0.028,-0.1888,-0.2999,-0.2539,-0.1631,-0.1012,-0.0606,0.0,0.0,0.0,0.1077,0.0471,0.1278,0.2488,0.3364,0.3291,0.3153,0.2277,0.2207,0.2006,0.3082,0.403,0.4709,0.4976,0.4831,0.4894,0.5226,0.5428,0.5428,0.5428,0.5428,0.5428,0.5428,1.7838,1.8357,1.8098,1.7804,1.6729,1.2477,1.0553,1.0546,0.9244,0.8574,0.9107,1.0938,1.2109,1.461,1.5934,1.7183,1.8249,1.902,1.8333,1.7786,1.7365,1.6553,1.6584,1.7058,1.671,1.6105,1.5618,1.5563,1.5058,1.4896,1.4191,1.2991,1.3143,1.1316,0.9819,0.8775,0.9744,0.9627,0.7822,0.7693,0.8206,0.9169,1.0085,1.0368,1.0557,1.0913,1.1107,1.0319,0.9996,1.0229,0.9748,0.8865,0.7377,0.7251,0.712,0.6396,0.6392,0.6523,0.7125,0.7242,0.699,0.6494,0.5058,0.4668,0.3941,0.3149,0.2407,0.1067,0.0403,-0.0337,-0.0605,0.0876,0.2049,0.2141,0.2163,0.2409,0.2698,0.3341,0.549,0.5919,0.5009,0.4247,0.2235,0.1651,0.0784,0.0768,0.103,0.1634,0.1892,0.2291,0.2827,0.2693,0.2488,0.2016,0.1945,0.2883,0.3966,0.4712,0.4367,0.4231,0.4095,0.4025,0.4434,0.4837,0.5239,0.5372,0.5299,0.5432,0.5428,0.5428,0.5428,0.5428,0.5428,0.5428,0.5428,2.0483,2.1208,2.0483,1.9308,1.7972,1.7282,1.6916,1.6294,1.4569,1.4121,1.4914,1.6276,1.7726,1.8278,1.8995,1.9566,1.966,2.046,2.0249,1.9737,1.9685,1.9363,1.9252,1.8951,1.8483,1.7996,1.7809,1.7779,1.7384,1.7109,1.6482,1.5786,1.5852,1.4476,1.3274,1.3349,1.4277,1.3571,1.2336,1.1575,1.1365,1.1421,1.164,1.2089,1.2289,1.2594,1.2826,1.1655,1.1344,1.1197,1.0534,0.946,0.8156,0.7962,0.7897,0.7242,0.7237,0.7432,0.7767,0.7887,0.7661,0.7522,0.7357,0.7091,0.6336,0.545,0.459,0.362,0.3729,0.3755,0.3811,0.3949,0.403,0.4177,0.4272,0.4367,0.4433,0.4413,0.5194,0.6006,0.5939,0.5464,0.4836,0.4522,0.4232,0.3747,0.3393,0.3498,0.3391,0.3092,0.3835,0.4241,0.4036,0.3763,0.3687,0.3613,0.4492,0.5243,0.5106,0.504,0.5382,0.5379,0.5166,0.5359,0.569,0.5756,0.5756,0.5495,0.5428,0.5491,0.5624,0.5557,0.5491,0.5428,0.5428,2.3932,2.5057,2.3248,2.1245,1.9873,1.9987,1.9571,1.857,1.7489,1.7138,1.7751,1.88,1.96,2.0197,2.0967,2.1515,2.1593,2.1947,2.1931,2.1351,2.1221,2.1158,2.1039,2.0757,2.0192,1.9883,1.9837,2.0031,1.9772,1.9428,1.8945,1.8606,1.9039,1.8088,1.6622,1.6862,1.7082,1.6032,1.3903,1.2181,1.2227,1.2212,1.2321,1.3045,1.3168,1.3186,1.3028,1.232,1.1447,1.0759,0.9952,0.9198,0.8549,0.8027,0.7962,0.8156,0.8086,0.835,0.8571,0.8722,0.8575,0.8543,0.8513,0.8386,0.7756,0.6744,0.5784,0.577,0.583,0.5862,0.5851,0.5935,0.6091,0.6241,0.632,0.6392,0.6459,0.6385,0.6514,0.7036,0.6749,0.6263,0.5786,0.5304,0.517,0.5487,0.5393,0.5202,0.4875,0.4201,0.4582,0.5336,0.4976,0.4767,0.49,0.4891,0.5226,0.5634,0.5697,0.5958,0.635,0.6083,0.5686,0.6145,0.6601,0.6342,0.621,0.6145,0.6145,0.6145,0.6145,0.5818,0.5756,0.5885,0.5818,2.4933,2.5195,2.3249,2.2076,2.1597,2.0664,2.084,2.1444,2.1517,2.069,2.006,2.1011,2.1698,2.1898,2.2872,2.3429,2.3509,2.3249,2.3207,2.298,2.2792,2.2561,2.2579,2.2483,2.1934,2.1722,2.1853,2.2193,2.1882,2.1467,2.1145,2.0925,2.1137,2.0345,1.9661,1.9798,1.8502,1.7709,1.6141,1.444,1.4269,1.3974,1.3959,1.4305,1.44,1.4223,1.3802,1.274,1.2443,1.2074,1.0912,0.997,0.9069,0.842,0.842,0.8812,0.9069,0.9396,0.979,1.0076,1.0095,0.9758,0.9604,0.9231,0.8628,0.7455,0.7089,0.7372,0.7599,0.7631,0.7667,0.784,0.7975,0.8116,0.8212,0.83,0.8389,0.8214,0.8036,0.7757,0.748,0.7003,0.6513,0.6318,0.618,0.6034,0.5895,0.5795,0.5647,0.5245,0.5369,0.5836,0.5512,0.5365,0.5697,0.6024,0.628,0.6605,0.6798,0.699,0.7246,0.7181,0.7055,0.7312,0.7572,0.7312,0.7181,0.7442,0.7377,0.7051,0.6985,0.6793,0.699,0.7186,0.6854,2.6215,2.6355,2.4496,2.3637,2.3438,2.2556,2.2717,2.3564,2.3923,2.3625,2.2897,2.3397,2.3684,2.3786,2.4583,2.4863,2.4837,2.4557,2.444,2.4359,2.4194,2.3946,2.3973,2.4076,2.3921,2.3646,2.3857,2.4013,2.3548,2.3274,2.2922,2.2788,2.2682,2.2423,2.2256,2.0878,1.9467,1.8727,1.7786,1.7135,1.6389,1.5926,1.5351,1.5508,1.5342,1.5089,1.3862,1.287,1.2389,1.1973,1.0863,1.0555,0.9913,0.9524,0.9518,0.9837,1.0231,1.0715,1.1312,1.1675,1.189,1.1681,1.1381,1.1325,1.119,1.017,0.8573,0.8715,0.8455,0.8413,0.8476,0.8665,0.868,0.8781,0.8851,0.8901,0.8656,0.8344,0.8143,0.777,0.7633,0.7548,0.7145,0.7145,0.6988,0.6864,0.6689,0.6636,0.6493,0.6549,0.6587,0.6621,0.6431,0.6428,0.6863,0.7055,0.7251,0.7507,0.7952,0.7762,0.7827,0.8285,0.8549,0.8474,0.8409,0.8221,0.8221,0.8468,0.8086,0.7637,0.7702,0.7832,0.8151,0.8538,0.8339,2.7269,2.7662,2.594,2.5182,2.5182,2.4823,2.4886,2.5325,2.5512,2.5822,2.5922,2.5411,2.5739,2.5781,2.5792,2.572,2.5606,2.5462,2.5488,2.5588,2.5362,2.5009,2.5056,2.5294,2.4981,2.4792,2.4816,2.4816,2.4641,2.4138,2.3834,2.4116,2.3943,2.357,2.3198,2.2172,2.0637,1.9202,1.8325,1.8293,1.7956,1.7527,1.656,1.6103,1.583,1.5233,1.395,1.3,1.2274,1.1725,1.1233,1.1045,1.0982,1.0787,1.0856,1.1108,1.1626,1.2074,1.2582,1.3107,1.3603,1.3854,1.3646,1.3275,1.3057,1.2104,1.0503,0.9874,0.9601,0.9378,0.9442,0.9547,0.958,0.9628,0.9633,0.969,0.9324,0.8964,0.8685,0.8385,0.8232,0.8228,0.8008,0.8012,0.7938,0.7794,0.7707,0.7625,0.7605,0.7783,0.7952,0.7933,0.787,0.7981,0.8117,0.835,0.8544,0.9023,0.9336,0.8784,0.8479,0.9128,0.9384,0.9238,0.9111,0.9366,0.9424,0.9539,0.9035,0.872,0.9105,0.9482,0.9736,1.0059,0.9945,2.6859,2.6717,2.5628,2.5221,2.5319,2.5812,2.6165,2.6371,2.7043,2.7447,2.7352,2.7372,2.7168,2.6654,2.7181,2.7151,2.664,2.6417,2.6726,2.6988,2.6134,2.5782,2.5664,2.5701,2.5329,2.5221,2.5051,2.4657,2.4909,2.4302,2.3794,2.3822,2.3752,2.354,2.3373,2.2287,2.1035,1.9775,1.9278,1.9153,1.8309,1.7645,1.6738,1.6206,1.5846,1.543,1.4874,1.4264,1.3906,1.3235,1.2258,1.1958,1.1965,1.1841,1.1841,1.222,1.2757,1.3241,1.3644,1.4286,1.4849,1.4429,1.405,1.366,1.3339,1.2802,1.1755,1.1565,1.1244,1.0808,1.082,1.0889,1.0945,1.092,1.0935,1.106,1.0948,1.0825,1.064,1.0335,1.0029,0.9583,0.9069,0.9074,0.915,0.896,0.8881,0.8867,0.8808,0.9037,0.9292,0.9375,0.9434,0.9117,0.9058,0.9786,1.0104,1.0564,1.0899,1.0615,1.0379,1.0174,1.0288,1.0451,1.0752,1.1128,1.1058,1.0801,1.0989,1.0871,1.1066,1.1322,1.1447,1.1439,1.1197]}]]